[[{"header":{"parameterUnit":"m.s-1","parameterCategory":1,"la1":30.6,"la2":29.2853,"lo1":-89.7004,"lo2":-87.6739,"dy":0.0162,"dx":0.0183,"nx":112,"ny":82,"refTime":"2026-05-01T12:00:00:Z","depth":0,"parameterNumber":2,"parameterNumberName":"U-component_of_WINDS"},"data":[0.0,0.0,0.0,0.0,0.0,0.0,0.0,0.0,0.0,0.0,0.0,0.0,0.0,0.0,0.0,0.0,0.0,0.0,0.0,0.0,0.0,0.0,0.0,0.0,0.0,0.0,0.0,0.0,0.0,0.0,0.0,0.0,0.0,0.0,0.0,0.0,0.0,0.0,0.0,0.0,0.0,0.0,0.0,0.0,0.0,0.0,0.0,0.0,0.0,0.0,0.0,0.0,0.0,0.0,0.0,0.0,0.0,0.0,0.0,0.0,0.0,0.0,0.0,0.0,0.0,0.0,0.0,0.0,0.0,0.0,0.0,0.0,0.0,0.0,0.0,0.0,0.0,0.0,0.0,0.0,0.0,0.0,0.0,0.0,0.0,0.0,0.0,0.0,0.0,0.0,0.0,6.0341,6.4783,6.6518,6.407,6.1671,5.7095,4.9574,0.0,0.0,0.0,0.0,0.0,0.0,0.0,0.0,0.0,0.0,0.0,0.0,0.0,0.0,0.0,0.0,0.0,0.0,0.0,0.0,0.0,0.0,0.0,0.0,0.0,0.0,0.0,0.0,0.0,0.0,0.0,0.0,0.0,0.0,0.0,0.0,0.0,0.0,0.0,0.0,0.0,0.0,0.0,0.0,0.0,0.0,0.0,0.0,0.0,0.0,0.0,0.0,0.0,0.0,0.0,0.0,0.0,0.0,0.0,0.0,0.0,0.0,0.0,0.0,0.0,0.0,0.0,0.0,0.0,0.0,0.0,0.0,0.0,0.0,0.0,0.0,0.0,0.0,0.0,0.0,0.0,0.0,0.0,0.0,0.0,0.0,0.0,0.0,0.0,0.0,0.0,0.0,0.0,0.0,0.0,0.0,0.0,0.0,0.0,0.0,0.0,0.0,0.0,0.0,5.5671,6.3259,6.4478,6.4298,6.3308,5.8858,5.4146,4.9538,0.0,0.0,0.0,0.0,0.0,0.0,0.0,0.0,0.0,0.0,0.0,0.0,0.0,0.0,0.0,0.0,0.0,0.0,0.0,0.0,0.0,0.0,0.0,0.0,0.0,0.0,0.0,0.0,0.0,0.0,0.0,0.0,0.0,0.0,0.0,0.0,0.0,0.0,0.0,0.0,0.0,0.0,0.0,0.0,0.0,0.0,0.0,0.0,0.0,0.0,0.0,0.0,0.0,0.0,0.0,0.0,0.0,0.0,0.0,0.0,0.0,0.0,0.0,0.0,0.0,0.0,0.0,0.0,0.0,0.0,0.0,0.0,0.0,0.0,0.0,0.0,0.0,0.0,0.0,0.0,0.0,0.0,0.0,0.0,0.0,0.0,0.0,0.0,0.0,0.0,0.0,0.0,0.0,0.0,0.0,0.0,0.0,0.0,0.0,0.0,0.0,0.0,0.0,5.4645,5.7584,6.3227,6.3985,6.3387,6.1599,5.7962,5.3713,4.906,4.5903,0.0,0.0,0.0,0.0,0.0,0.0,0.0,0.0,0.0,0.0,0.0,0.0,0.0,0.0,0.0,0.0,0.0,0.0,0.0,0.0,0.0,0.0,0.0,0.0,0.0,0.0,0.0,0.0,0.0,0.0,0.0,0.0,0.0,0.0,0.0,0.0,0.0,0.0,0.0,0.0,0.0,0.0,0.0,0.0,0.0,0.0,0.0,0.0,0.0,0.0,0.0,0.0,0.0,0.0,0.0,0.0,0.0,0.0,0.0,0.0,0.0,0.0,0.0,0.0,0.0,0.0,0.0,0.0,0.0,0.0,0.0,0.0,0.0,0.0,0.0,0.0,0.0,0.0,0.0,0.0,0.0,0.0,0.0,0.0,0.0,0.0,0.0,0.0,0.0,0.0,0.0,0.0,0.0,0.0,0.0,0.0,0.0,0.0,0.0,0.0,0.0,0.0,5.8063,5.9841,6.2705,6.3241,6.2432,6.0076,5.6885,5.3025,4.8356,4.4496,0.0,0.0,0.0,0.0,0.0,0.0,0.0,0.0,0.0,0.0,0.0,0.0,0.0,0.0,0.0,0.0,0.0,0.0,0.0,0.0,0.0,0.0,0.0,0.0,0.0,0.0,0.0,0.0,0.0,0.0,0.0,0.0,0.0,0.0,0.0,0.0,0.0,0.0,0.0,0.0,0.0,0.0,0.0,0.0,0.0,0.0,0.0,0.0,0.0,0.0,0.0,0.0,0.0,0.0,0.0,0.0,0.0,0.0,0.0,0.0,0.0,0.0,0.0,0.0,0.0,0.0,0.0,0.0,0.0,0.0,0.0,0.0,0.0,0.0,0.0,0.0,0.0,0.0,0.0,0.0,0.0,0.0,0.0,0.0,0.0,0.0,0.0,0.0,0.0,0.0,0.0,0.0,0.0,0.0,0.0,0.0,0.0,0.0,0.0,0.0,0.0,0.0,5.7855,6.1288,6.2858,6.1983,6.0736,5.9279,5.4491,5.0361,4.7549,4.2551,0.0,0.0,0.0,0.0,0.0,0.0,0.0,0.0,0.0,0.0,0.0,0.0,0.0,0.0,0.0,0.0,0.0,0.0,0.0,0.0,0.0,0.0,0.0,0.0,0.0,0.0,0.0,0.0,0.0,0.0,0.0,0.0,0.0,0.0,0.0,0.0,0.0,0.0,0.0,0.0,0.0,0.0,0.0,0.0,0.0,0.0,0.0,0.0,0.0,0.0,0.0,0.0,0.0,0.0,0.0,0.0,0.0,0.0,0.0,0.0,0.0,0.0,0.0,0.0,0.0,0.0,0.0,0.0,0.0,0.0,0.0,0.0,0.0,0.0,0.0,0.0,0.0,0.0,0.0,0.0,0.0,0.0,0.0,0.0,0.0,0.0,0.0,0.0,0.0,0.0,0.0,0.0,0.0,0.0,0.0,0.0,0.0,0.0,0.0,0.0,0.0,0.0,5.5086,5.8469,0.0,6.0776,5.9937,5.859,5.5179,5.1259,4.698,0.0,0.0,0.0,0.0,0.0,0.0,0.0,0.0,0.0,0.0,0.0,0.0,0.0,0.0,0.0,0.0,0.0,0.0,0.0,0.0,0.0,0.0,0.0,0.0,0.0,0.0,0.0,0.0,0.0,0.0,0.0,0.0,0.0,0.0,0.0,0.0,0.0,0.0,0.0,0.0,0.0,0.0,0.0,0.0,0.0,0.0,0.0,0.0,0.0,0.0,0.0,0.0,0.0,0.0,0.0,0.0,0.0,0.0,0.0,0.0,0.0,0.0,0.0,0.0,0.0,0.0,0.0,0.0,0.0,0.0,0.0,0.0,0.0,0.0,0.0,0.0,0.0,0.0,0.0,0.0,0.0,0.0,0.0,0.0,0.0,0.0,0.0,0.0,0.0,0.0,0.0,0.0,0.0,0.0,0.0,0.0,0.0,0.0,0.0,0.0,0.0,0.0,4.9922,5.3861,5.7365,0.0,6.0416,5.9877,5.856,5.5628,5.1708,4.6608,0.0,0.0,0.0,0.0,0.0,0.0,0.0,0.0,0.0,0.0,0.0,0.0,0.0,0.0,0.0,0.0,0.0,0.0,0.0,0.0,0.0,0.0,0.0,0.0,0.0,0.0,0.0,0.0,0.0,0.0,0.0,0.0,0.0,0.0,0.0,0.0,0.0,0.0,0.0,0.0,0.0,0.0,0.0,0.0,0.0,0.0,0.0,0.0,0.0,0.0,0.0,0.0,0.0,0.0,0.0,0.0,0.0,0.0,0.0,0.0,0.0,0.0,0.0,0.0,0.0,0.0,0.0,0.0,0.0,0.0,0.0,0.0,0.0,0.0,0.0,0.0,0.0,0.0,0.0,0.0,0.0,0.0,0.0,0.0,0.0,0.0,0.0,0.0,0.0,0.0,0.0,0.0,0.0,0.0,0.0,0.0,0.0,0.0,0.0,0.0,0.0,0.0,4.9884,5.483,5.8919,6.0894,6.1104,6.0565,5.9219,5.5478,5.1229,0.0,0.0,0.0,0.0,0.0,0.0,0.0,0.0,0.0,0.0,0.0,0.0,0.0,0.0,0.0,0.0,0.0,0.0,0.0,0.0,0.0,0.0,0.0,0.0,0.0,0.0,0.0,0.0,0.0,0.0,0.0,0.0,0.0,0.0,0.0,0.0,0.0,0.0,0.0,0.0,0.0,0.0,0.0,0.0,0.0,0.0,0.0,0.0,0.0,0.0,0.0,0.0,0.0,0.0,0.0,0.0,0.0,0.0,0.0,0.0,0.0,0.0,0.0,0.0,0.0,0.0,0.0,0.0,0.0,0.0,0.0,0.0,0.0,0.0,0.0,0.0,0.0,0.0,0.0,0.0,0.0,0.0,0.0,0.0,0.0,0.0,0.0,0.0,0.0,0.0,0.0,0.0,0.0,0.0,0.0,0.0,0.0,0.0,0.0,0.0,0.0,0.0,0.0,4.9942,5.5658,5.9907,6.1014,6.1104,6.0745,5.9877,5.7034,5.2935,4.7369,0.0,0.0,0.0,0.0,0.0,0.0,0.0,0.0,0.0,0.0,0.0,0.0,0.0,0.0,0.0,0.0,0.0,0.0,0.0,0.0,0.0,0.0,0.0,0.0,0.0,0.0,0.0,0.0,0.0,0.0,0.0,0.0,0.0,0.0,0.0,0.0,0.0,0.0,0.0,0.0,0.0,0.0,0.0,0.0,0.0,0.0,0.0,0.0,0.0,0.0,0.0,0.0,0.0,0.0,0.0,0.0,0.0,0.0,0.0,0.0,0.0,0.0,0.0,0.0,0.0,0.0,0.0,0.0,0.0,0.0,0.0,0.0,0.0,0.0,0.0,0.0,0.0,0.0,0.0,0.0,0.0,0.0,0.0,0.0,0.0,0.0,0.0,0.0,0.0,0.0,0.0,0.0,0.0,0.0,0.0,0.0,0.0,0.0,0.0,0.0,0.0,0.0,4.9927,5.5987,6.0446,6.1403,6.1283,6.0954,6.0535,5.8321,5.4401,4.8446,0.0,0.0,0.0,0.0,0.0,0.0,0.0,0.0,0.0,0.0,0.0,0.0,0.0,0.0,0.0,0.0,0.0,0.0,0.0,0.0,0.0,0.0,0.0,0.0,0.0,0.0,0.0,0.0,0.0,0.0,0.0,0.0,0.0,0.0,0.0,0.0,0.0,0.0,0.0,0.0,0.0,0.0,0.0,0.0,0.0,0.0,0.0,0.0,0.0,0.0,0.0,0.0,0.0,0.0,0.0,0.0,0.0,0.0,0.0,0.0,0.0,0.0,0.0,0.0,0.0,0.0,0.0,0.0,0.0,0.0,0.0,0.0,0.0,0.0,0.0,0.0,0.0,0.0,0.0,0.0,0.0,0.0,0.0,0.0,0.0,0.0,0.0,0.0,0.0,0.0,0.0,0.0,0.0,0.0,0.0,0.0,0.0,0.0,0.0,0.0,0.0,0.0,5.0046,5.6196,6.0835,6.2061,6.1642,6.1283,6.1224,5.9428,5.5807,4.9958,0.0,0.0,0.0,0.0,0.0,0.0,0.0,0.0,0.0,0.0,0.0,0.0,0.0,0.0,0.0,0.0,0.0,0.0,0.0,0.0,0.0,0.0,0.0,0.0,0.0,0.0,0.0,0.0,0.0,0.0,0.0,0.0,0.0,0.0,0.0,0.0,0.0,0.0,0.0,0.0,0.0,0.0,0.0,0.0,0.0,0.0,0.0,0.0,0.0,0.0,0.0,0.0,0.0,0.0,0.0,0.0,0.0,0.0,0.0,0.0,6.0473,0.0,0.0,0.0,0.0,0.0,0.0,0.0,0.0,0.0,0.0,0.0,0.0,0.0,0.0,0.0,0.0,0.0,0.0,0.0,0.0,0.0,0.0,0.0,0.0,0.0,0.0,0.0,0.0,0.0,0.0,0.0,0.0,0.0,0.0,0.0,0.0,0.0,0.0,0.0,0.0,0.0,5.081,5.7693,6.254,6.2839,6.275,6.245,6.1942,6.0535,5.7363,5.1917,0.0,0.0,0.0,0.0,0.0,0.0,0.0,0.0,0.0,0.0,0.0,0.0,0.0,0.0,0.0,0.0,0.0,0.0,0.0,0.0,0.0,0.0,0.0,0.0,0.0,0.0,0.0,0.0,0.0,0.0,0.0,0.0,0.0,0.0,0.0,0.0,0.0,0.0,0.0,0.0,0.0,0.0,0.0,0.0,0.0,0.0,0.0,0.0,0.0,0.0,0.0,0.0,0.0,0.0,0.0,0.0,0.0,0.0,0.0,0.0,0.0,6.4649,0.0,0.0,0.0,0.0,0.0,0.0,0.0,0.0,0.0,0.0,0.0,0.0,0.0,0.0,0.0,0.0,0.0,0.0,0.0,0.0,0.0,0.0,0.0,0.0,0.0,0.0,0.0,0.0,0.0,0.0,0.0,0.0,0.0,0.0,0.0,0.0,0.0,0.0,0.0,0.0,5.1468,5.8351,6.3079,6.3079,6.251,6.2121,6.2091,6.0266,5.7573,5.3862,4.9643,0.0,0.0,0.0,0.0,0.0,0.0,0.0,0.0,0.0,0.0,0.0,0.0,0.0,0.0,0.0,0.0,0.0,0.0,0.0,0.0,0.0,0.0,0.0,0.0,0.0,0.0,0.0,0.0,0.0,0.0,0.0,0.0,0.0,0.0,0.0,0.0,0.0,0.0,0.0,0.0,0.0,0.0,0.0,0.0,0.0,0.0,0.0,0.0,0.0,0.0,0.0,0.0,0.0,0.0,6.8882,7.382,7.3951,7.5261,7.7232,7.3037,7.1301,7.1277,0.0,0.0,0.0,0.0,0.0,0.0,0.0,0.0,0.0,0.0,0.0,0.0,0.0,0.0,0.0,0.0,0.0,0.0,0.0,0.0,0.0,0.0,0.0,0.0,0.0,6.1426,6.0584,0.0,0.0,0.0,0.0,0.0,0.0,0.0,0.0,0.0,0.0,0.0,0.0,5.2276,5.862,6.2899,6.2899,6.1942,6.1403,6.1702,5.9847,5.7693,5.5508,5.1439,4.7399,0.0,0.0,0.0,0.0,0.0,0.0,0.0,0.0,0.0,0.0,0.0,0.0,0.0,0.0,0.0,0.0,0.0,0.0,0.0,0.0,0.0,0.0,0.0,0.0,0.0,0.0,0.0,0.0,0.0,0.0,0.0,0.0,5.6188,5.6543,0.0,0.0,0.0,0.0,0.0,0.0,0.0,0.0,0.0,0.0,0.0,0.0,0.0,0.0,7.3763,7.5528,7.5483,7.3535,7.5775,7.8119,8.0624,8.114,8.2531,8.4471,8.4437,0.0,7.5129,7.3833,0.0,0.0,0.0,0.0,0.0,0.0,0.0,0.0,0.0,0.0,0.0,0.0,0.0,0.0,0.0,0.0,0.0,0.0,0.0,0.0,0.0,0.0,6.7334,6.6199,6.61,6.5208,0.0,5.4895,4.9254,4.7136,0.0,0.0,0.0,0.0,0.0,0.0,0.0,0.0,5.3623,5.88,6.2241,6.2241,6.2061,6.1523,6.0446,6.0565,5.9368,5.6226,5.3832,5.102,4.7638,4.321,0.0,0.0,0.0,0.0,0.0,0.0,0.0,0.0,0.0,0.0,0.0,0.0,0.0,0.0,0.0,0.0,0.0,0.0,0.0,0.0,0.0,0.0,0.0,0.0,0.0,0.0,0.0,0.0,0.0,5.6789,6.0656,5.9899,6.0496,6.0034,0.0,0.0,0.0,0.0,0.0,0.0,0.0,0.0,0.0,7.8991,7.9217,7.9737,8.0717,8.0618,7.9733,7.8105,7.8986,8.1078,8.4251,8.4539,8.6205,8.8869,8.8801,8.665,8.3006,7.9299,7.5232,7.0893,0.0,0.0,0.0,0.0,0.0,5.8204,6.2534,6.3933,0.0,0.0,0.0,0.0,0.0,0.0,0.0,0.0,0.0,0.0,0.0,0.0,0.0,6.7508,6.7285,6.6459,6.4209,6.0022,5.5417,0.0,4.9644,4.7309,4.277,0.0,0.0,0.0,0.0,0.0,5.5029,5.8949,6.1553,6.1553,6.1194,6.0894,6.0685,6.0236,5.9219,5.7393,5.5418,5.2995,5.0062,4.6561,4.294,0.0,0.0,0.0,0.0,0.0,0.0,0.0,0.0,0.0,0.0,0.0,0.0,0.0,0.0,0.0,0.0,0.0,0.0,0.0,0.0,0.0,0.0,0.0,0.0,0.0,0.0,0.0,0.0,6.0512,6.4858,6.3209,6.5017,6.5534,0.0,0.0,0.0,0.0,0.0,0.0,7.7333,7.9464,8.203,8.5257,8.5243,8.5323,8.5567,8.42,8.2949,8.1781,8.1123,8.2663,8.6206,8.6516,8.8175,9.0892,9.0591,8.9951,8.8688,8.3516,7.9299,7.5637,7.1522,6.7776,6.4647,6.4311,6.3862,6.4125,6.9251,7.1035,7.1105,7.0821,0.0,6.6237,6.14,0.0,0.0,0.0,0.0,6.138,6.4198,6.5651,6.6599,6.7567,6.7441,6.6678,6.5171,6.3395,6.0625,0.0,5.4012,5.1618,4.5915,0.0,0.0,0.0,0.0,5.4401,5.6406,5.9129,6.0835,6.0835,6.0386,6.0236,6.0565,5.9847,5.8919,5.7932,5.6496,5.4491,5.1828,4.9523,4.6292,4.2013,0.0,0.0,0.0,0.0,0.0,0.0,0.0,0.0,0.0,0.0,0.0,0.0,0.0,0.0,0.0,0.0,0.0,0.0,0.0,0.0,0.0,0.0,0.0,0.0,0.0,0.0,0.0,0.0,0.0,6.6261,7.0206,0.0,0.0,0.0,0.0,7.3343,7.8707,8.2813,8.5114,8.8632,9.0481,9.0302,9.1029,9.0023,8.7321,8.7207,8.6267,8.4504,8.3846,8.4516,8.6421,8.7561,8.87,8.9829,9.0833,9.0425,8.8835,8.5709,8.3407,8.1544,7.6926,7.3824,7.1726,6.9423,6.8238,6.8152,7.1301,7.1836,7.2014,7.696,7.5134,7.0703,6.9011,6.5967,0.0,0.0,6.4306,6.5475,6.5714,6.6818,6.7769,6.7267,6.7125,6.6519,6.4475,6.3017,6.1433,0.0,5.7752,5.5748,5.2306,0.0,5.1678,5.096,5.3294,5.5807,5.7782,5.9249,6.0146,6.0146,6.0116,5.9847,5.9249,5.9727,5.9219,5.7274,5.7064,5.5807,5.3204,5.1768,4.9434,4.6082,4.1564,0.0,0.0,0.0,0.0,0.0,0.0,0.0,0.0,0.0,0.0,0.0,0.0,0.0,0.0,0.0,0.0,0.0,0.0,0.0,0.0,0.0,0.0,0.0,0.0,0.0,0.0,0.0,0.0,7.3242,7.6158,0.0,7.5244,7.5523,7.6961,7.9704,8.5024,8.8903,9.0696,9.1817,9.2553,9.2873,9.1188,8.9793,8.8787,8.7173,8.5981,8.5342,8.4265,8.4698,8.6432,8.7656,8.9056,9.0497,9.1547,9.144,9.0391,8.8835,8.6097,8.2598,7.9512,7.6651,7.4026,7.2174,7.1371,7.1453,7.3539,7.4707,7.5506,7.7177,7.5777,7.2852,6.997,6.8161,6.6911,6.5967,6.6108,6.6644,6.7157,6.7644,6.7872,6.7204,6.7062,6.6701,6.5532,6.4605,6.3528,6.1972,6.0236,5.7992,5.47,5.5538,5.5837,5.3503,5.5388,5.7483,5.862,5.9159,5.9458,5.9458,5.9458,5.9368,5.9129,5.8919,5.8171,5.6585,5.6107,5.488,5.2636,5.1678,4.9883,4.701,4.4077,4.0127,0.0,0.0,0.0,0.0,0.0,0.0,0.0,0.0,0.0,0.0,0.0,0.0,0.0,0.0,0.0,0.0,0.0,0.0,0.0,0.0,0.0,0.0,0.0,0.0,0.0,0.0,7.8274,7.7963,8.0865,8.2203,8.0378,8.0795,8.2173,8.4511,8.9166,9.2258,9.3073,9.3525,9.3465,9.2899,9.0674,8.923,8.8578,8.6886,8.603,8.6,8.4684,8.4683,8.5881,8.7506,8.8855,9.0096,9.1677,9.1981,9.1179,8.985,8.7036,8.3323,8.1608,7.9005,7.6073,7.4456,7.3762,7.3791,7.5037,7.6429,7.7446,7.6642,7.555,7.4072,7.1331,7.0503,7.0196,6.8774,6.8342,6.8296,6.812,6.8107,6.7873,6.7153,6.6999,6.6759,6.5862,6.5323,6.4635,6.3318,6.1822,5.9937,5.7304,5.8471,5.883,5.5957,5.7573,5.9039,5.88,5.9159,5.9338,5.9129,5.9099,5.9099,5.9099,5.8112,5.7094,5.6226,5.491,5.3384,5.1618,5.069,4.9105,4.6681,4.4018,4.0397,3.5818,0.0,0.0,0.0,0.0,0.0,0.0,0.0,0.0,0.0,0.0,0.0,0.0,0.0,0.0,0.0,0.0,0.0,0.0,0.0,0.0,0.0,0.0,0.0,6.8027,7.5832,8.1253,8.0277,8.4476,8.6459,8.3892,8.3662,8.48,8.7744,9.1107,9.2773,9.2244,9.4005,9.3646,9.0536,8.9797,8.8533,8.6738,8.6689,8.6689,8.6659,8.5342,8.4714,8.4808,8.7098,8.8187,8.8324,9.1159,9.1957,9.1064,8.8662,8.619,8.3899,8.3163,8.1027,7.8076,7.6477,7.5467,7.5022,7.5866,7.6837,7.7408,7.5911,7.5016,7.4403,7.3522,7.3299,7.2959,7.1513,7.1127,7.0613,6.854,6.7956,6.7807,6.7148,6.6999,6.664,6.5353,6.5054,6.4665,6.3378,6.26,6.1702,6.0386,6.0715,6.0475,5.8471,5.9847,0.0,5.8441,5.9308,5.9817,5.9189,5.9069,5.9039,5.9069,5.7244,5.6158,5.6158,5.3623,5.1588,5.0255,4.9015,4.7399,4.5394,4.1504,3.8506,3.6563,0.0,0.0,0.0,0.0,0.0,0.0,0.0,0.0,0.0,0.0,0.0,0.0,0.0,0.0,0.0,0.0,0.0,0.0,0.0,0.0,0.0,0.0,7.3525,7.4961,8.1339,8.6463,8.8235,8.9921,9.0348,8.8713,8.8575,8.8874,8.9733,9.1889,9.3121,9.3011,9.1777,9.0643,8.9779,8.8271,8.726,8.6689,8.6689,8.6689,8.6659,8.5342,8.4714,8.4808,8.7098,8.8187,8.8356,9.1786,9.2076,9.0028,8.8966,8.6242,8.2749,8.153,7.9527,7.715,7.6175,7.5467,7.5022,7.5866,7.6054,7.593,7.6132,7.5777,7.4933,7.316,7.2586,7.2166,7.0158,6.9603,6.9358,6.826,6.7956,6.7807,6.7148,6.6999,6.6879,6.652,6.5712,6.4934,6.4575,6.3588,6.254,6.1702,6.1702,6.1313,5.9787,6.0446,0.0,5.9668,5.9847,5.9817,5.9189,5.8231,5.7842,5.8351,5.6166,5.476,5.476,5.2695,5.1109,5.0226,4.9434,4.8297,4.677,4.3329,4.0561,0.0,0.0,0.0,0.0,0.0,0.0,0.0,0.0,0.0,0.0,0.0,0.0,0.0,0.0,0.0,0.0,0.0,0.0,0.0,0.0,0.0,0.0,7.3133,7.8504,8.1555,8.5207,8.8362,9.0473,9.123,9.108,8.9911,8.9738,8.9647,8.9341,9.105,9.1889,9.138,9.0177,8.9433,8.9158,8.7531,8.6689,8.6689,8.6689,8.6689,8.6659,8.5342,8.4714,8.4731,8.6378,8.7096,0.0,9.0128,9.0143,8.8082,8.7018,8.4774,0.0,0.0,0.0,0.0,0.0,7.5647,7.5335,7.5565,7.5195,7.4718,7.4904,7.4562,7.3785,7.2182,7.1687,7.1438,7.0127,6.9602,6.9243,6.8585,6.8196,6.7807,6.7148,6.6999,6.6909,6.664,6.5772,6.4934,6.4665,0.0,0.0,6.257,6.251,6.2061,6.0715,6.1343,6.1493,6.0236,6.0326,6.0266,5.9578,5.856,5.8112,5.8501,5.6137,0.0,0.0,0.0,5.0106,4.8611,4.7967,0.0,0.0,0.0,0.0,0.0,0.0,0.0,0.0,3.9854,3.9231,0.0,0.0,0.0,0.0,0.0,0.0,0.0,0.0,0.0,0.0,0.0,0.0,0.0,0.0,0.0,0.0,7.7741,8.2602,8.6816,8.7439,8.8069,8.9474,9.0292,9.0235,8.9056,8.8843,8.8544,8.7975,8.9355,8.9741,8.8595,0.0,0.0,0.0,0.0,8.6689,8.6689,8.6689,8.6689,8.6659,8.5342,8.4714,8.4731,8.528,8.5502,8.5645,8.7439,8.7416,8.5933,8.4219,8.2551,8.107,8.1008,7.9703,7.7652,7.6365,7.5916,0.0,0.0,0.0,0.0,7.3223,7.2505,7.1787,7.1188,7.0949,7.0889,7.0889,7.047,6.9842,6.9183,6.8495,6.7807,6.7148,6.6999,6.6819,6.6251,6.5533,6.4844,6.4246,6.3558,6.3079,6.3079,6.3079,6.266,6.1403,6.2271,6.2421,6.0535,6.0835,6.0924,6.0176,0.0,0.0,5.9009,5.6585,5.5119,5.5179,5.2217,4.9359,4.707,4.6322,4.5663,4.5005,4.4915,4.5693,4.7429,4.7489,4.7878,4.8386,4.294,4.1624,0.0,0.0,0.0,0.0,0.0,0.0,0.0,0.0,0.0,0.0,0.0,0.0,0.0,0.0,0.0,7.5467,8.0075,8.3849,8.5796,8.6536,8.7945,9.0744,9.1716,9.16,9.0324,8.9771,8.9412,8.9292,8.8677,8.8106,8.7885,8.7475,0.0,8.7048,8.6808,8.6689,8.6689,8.6689,8.6689,8.6659,0.0,0.0,8.4731,8.528,8.5502,8.5645,8.7439,8.7212,8.5502,8.4101,8.1814,7.9272,7.873,7.8175,7.7652,7.6365,7.5916,7.5796,7.5108,7.445,7.3881,7.3762,7.2894,7.1876,7.1727,7.1338,0.0,7.0889,7.047,6.9842,6.9183,6.8495,6.7807,6.7148,6.6999,6.6939,6.6819,6.5862,6.4934,6.4844,6.3887,6.3079,6.3079,6.3079,6.281,6.2032,6.257,6.275,6.1822,6.1822,6.1433,6.0206,5.9009,5.8321,5.8321,5.5897,5.461,5.5149,5.3054,5.1588,5.1079,5.0421,4.9763,4.906,4.8566,4.8281,4.8087,4.8626,4.9224,4.9777,4.7608,4.6561,0.0,0.0,0.0,0.0,0.0,0.0,0.0,0.0,0.0,0.0,0.0,6.5742,6.8046,0.0,7.5946,7.9267,8.2559,8.5043,8.606,8.6778,8.7805,8.9408,8.9851,8.9971,8.9673,8.9382,8.9052,8.8693,8.8065,8.7706,8.7706,8.7048,8.6838,8.7167,8.6868,8.6689,8.6689,8.6689,8.6689,8.6659,8.5342,8.4714,8.4654,8.4335,8.4142,8.4216,8.5071,8.4814,8.3533,8.2162,8.0566,7.8759,7.843,7.831,7.813,7.6844,7.6365,7.6215,7.5228,7.4659,7.433,7.4001,7.3223,7.2325,7.1996,7.1427,7.0889,7.0889,7.047,6.9842,6.9183,6.8495,6.7807,6.7148,6.6999,6.6909,6.658,6.5712,6.4934,6.4575,6.3737,6.3079,6.3079,6.3079,6.2959,6.263,6.2869,6.2959,6.263,6.2301,6.1702,6.0715,5.9697,5.8979,5.865,5.6526,5.5179,5.5179,5.3623,5.2546,5.2217,5.1887,5.1558,5.1229,5.09,5.072,5.072,5.1126,5.1409,5.1708,5.105,5.0391,0.0,0.0,0.0,0.0,0.0,0.0,0.0,0.0,6.541,6.6162,6.8315,7.0889,7.3552,7.6425,7.9387,8.2439,8.4384,8.5791,8.6569,8.7167,8.7467,8.7317,8.7676,8.8095,8.8634,8.8574,8.8274,8.7736,8.7586,8.7496,8.7496,8.6988,8.6928,8.7496,8.6958,8.6689,8.6689,8.6689,8.6599,8.6479,8.5282,8.4654,8.4474,8.3307,8.2844,8.2814,8.2619,8.22,8.1512,8.0315,7.9417,7.8789,7.8789,7.8789,7.8639,7.7442,7.6933,7.6664,7.5497,7.4988,7.4779,7.427,7.3552,7.2804,7.2265,7.1547,7.0889,7.0889,7.047,6.9842,6.9183,6.8495,6.7807,6.7148,6.6999,6.6849,6.6311,6.5592,6.4874,6.4306,6.3588,6.3079,6.3079,6.3079,6.3079,6.3079,6.3079,6.3079,6.3079,6.26,6.2002,6.1194,6.0625,5.9907,5.8979,5.7453,5.6226,5.5418,5.4371,5.3473,5.2815,5.2665,5.2606,5.2606,5.2606,5.2845,5.3384,5.3109,5.302,5.3139,5.2713,5.2477,5.5687,5.7198,6.0532,6.4665,6.4505,6.5355,0.0,0.0,7.1683,7.4061,7.6185,7.7682,7.8071,7.9417,8.1153,8.3277,8.4295,8.5252,8.6509,8.6748,8.6569,8.6,8.7496,8.8604,8.8663,8.8155,8.7796,8.7706,8.7137,8.6778,8.6778,8.6718,8.6718,8.6778,8.6718,8.6689,8.6689,8.6689,8.6389,8.5791,8.5073,8.4414,8.3816,8.3098,8.2844,8.2814,8.214,8.1512,8.0853,8.0135,7.9417,7.8789,7.8789,7.8789,7.8699,7.7981,7.7322,7.6724,7.6036,7.5377,7.4869,7.4779,7.3941,7.2894,7.2834,7.1906,7.0889,7.0889,7.047,6.9842,6.9183,6.8495,6.7807,6.7148,6.6999,6.6969,6.6879,6.5892,6.4994,6.4934,6.3917,6.3079,6.3079,6.3079,6.3079,6.3079,6.3079,6.3079,6.3079,6.3019,6.248,6.1253,6.1044,6.0236,5.8381,5.8022,5.7363,5.6137,5.5978,5.5538,5.488,5.4281,5.3982,5.3982,5.3982,5.4012,5.4102,5.2778,5.2422,5.2972,5.0992,5.1161,6.1056,6.2336,6.4585,6.8746,7.0585,7.2387,7.6614,7.6972,7.6933,7.846,8.0016,8.1093,8.1093,8.2499,8.3786,0.0,8.5162,8.591,8.609,8.609,8.5731,8.4684,8.5641,8.6539,8.6898,8.6689,8.6689,8.7077,8.6838,8.6689,8.6689,8.6689,8.6689,8.6689,8.6689,8.6689,8.6689,8.6689,8.6329,8.5671,8.5043,8.4384,8.3726,8.3068,8.2559,8.217,8.1901,8.1183,8.0225,7.9926,7.9417,7.8789,7.8789,7.8789,7.8699,7.8041,7.7622,7.7263,7.6245,7.5707,7.5407,7.5018,7.3971,7.2924,7.2924,7.1966,7.0889,7.0889,7.0709,7.038,6.9722,6.9064,6.8405,6.7717,6.7268,6.6879,6.649,6.5682,6.4904,6.4515,6.3707,6.3079,6.3079,6.3079,6.3079,6.3079,6.3079,6.3079,6.3079,6.3079,6.257,6.1253,6.0416,5.9608,5.877,5.8351,5.7902,5.7334,5.6585,5.6047,5.5777,5.5119,5.479,5.479,5.479,5.4327,5.3502,5.2903,5.2252,5.1644,5.0711,5.0786,6.4096,6.6041,6.8495,7.2086,7.5467,7.813,7.8968,7.9926,8.0764,8.1242,8.211,8.2844,8.2844,8.4085,8.5043,8.4773,8.5671,8.624,8.5761,8.5551,8.4863,8.3367,8.3457,8.3906,8.4564,8.5103,8.5701,8.6359,8.6389,8.6479,8.6659,8.6689,8.6689,8.6689,8.6689,8.6689,8.6689,8.6509,8.609,8.5432,8.4743,8.4085,8.3457,8.2978,8.2499,8.205,8.1871,8.1123,8.0075,7.9896,7.9417,7.8789,7.8789,7.8789,7.8729,7.825,7.7981,7.7652,7.6544,7.6036,7.5796,7.5108,7.3971,7.2924,7.2924,7.1966,7.0889,7.0889,7.0889,7.0769,7.0141,6.9482,6.8824,6.8136,6.7478,6.6849,6.637,6.5622,6.4874,6.4366,6.3617,6.3139,6.3318,6.3199,6.3139,6.3318,6.3199,6.3079,6.3079,6.275,6.2091,6.0954,5.9787,5.9099,5.9099,5.865,5.8321,5.8141,5.7244,5.6555,5.6248,5.5867,5.5538,5.5209,5.4973,5.4244,5.3016,5.2133,5.1181,5.0101,4.9651,4.9508,6.3109,6.7358,7.2415,7.5108,7.825,8.1003,8.232,8.2649,8.2679,8.2784,8.2739,8.2844,8.2844,8.3337,8.3995,8.4624,8.5282,8.5731,8.5701,8.5132,8.4025,8.208,8.1302,8.1183,0.0,8.3636,8.5013,8.5671,8.5731,8.6,8.6629,8.6689,8.6689,8.6689,8.6689,8.6689,8.6689,8.603,8.5402,8.4743,8.4085,8.3427,8.2798,8.2769,8.2814,8.2709,8.205,8.1392,8.0734,8.0075,7.9417,7.8789,7.8789,7.8789,7.8789,7.8759,7.837,7.7711,7.7023,7.6425,7.5796,7.5108,7.3971,7.2924,7.2924,7.1966,7.0889,7.0889,7.0889,7.0769,7.0141,6.9482,6.8824,6.8136,6.7478,6.6999,6.6969,6.5951,6.5024,6.4934,6.3947,6.3258,6.3857,6.3468,6.3288,6.3887,6.3468,6.3079,6.3079,6.1972,6.0894,6.0176,5.9518,5.9099,5.9099,5.9099,5.88,5.8171,5.8082,5.7483,5.6226,5.6735,5.6466,5.5209,5.4364,5.3646,5.2963,5.0099,4.8589,4.8532,4.7087,4.6421,6.7448,7.1667,7.5916,7.9028,8.1601,8.3517,8.3965,8.4055,8.3816,8.2948,8.1721,8.0674,8.0195,8.0674,8.1362,8.202,8.3756,8.5192,8.5641,8.5492,8.4295,8.1452,8.1691,0.0,0.0,0.0,0.0,8.5551,8.5701,8.597,8.6629,8.6689,8.6689,8.6689,8.624,8.603,8.603,8.5372,8.4714,8.4055,8.3397,8.2978,8.2844,8.2844,8.2529,8.208,8.1422,8.0764,8.0105,7.9417,7.8998,7.8789,7.8789,7.8789,7.8789,7.8789,7.837,7.7711,7.7053,7.6425,7.5796,7.5108,7.3971,7.2924,7.2924,7.1966,7.0889,7.0889,7.0889,7.0769,7.0141,6.9482,6.8824,6.8136,6.7478,6.6999,6.6999,6.5951,6.5024,6.5024,6.4306,6.3617,6.3438,6.3558,6.3617,6.3408,6.3199,6.3079,6.3079,6.1942,6.1014,6.0805,5.9787,5.9099,5.9099,5.9099,5.9009,5.88,5.8381,5.7932,5.7483,5.6825,5.5812,5.434,5.3661,5.2224,5.0043,4.8965,4.7977,4.7053,4.692,4.6853,7.1697,7.5587,7.9028,8.235,8.4295,8.5282,8.4833,8.4714,8.4205,8.2439,8.0285,7.8549,7.7891,7.7352,7.7682,7.9746,8.1721,8.3517,8.5132,8.5132,8.4025,8.1452,8.1482,8.1123,0.0,0.0,0.0,8.4474,8.5073,8.5641,8.6299,8.6539,8.6689,8.6689,8.603,8.5701,8.5701,8.4803,8.4025,8.3367,8.2978,8.2844,8.2844,8.2844,8.2409,8.1751,8.1332,8.0644,7.9776,7.9357,7.8998,7.8789,7.8789,7.8789,7.8789,7.8789,7.822,7.7382,7.6963,7.6425,7.5796,7.5108,7.3971,7.2924,7.2924,7.1966,7.0889,7.0889,7.0889,7.0769,7.0141,6.9482,6.8824,6.8136,6.7478,6.6999,6.6999,6.5951,6.5024,6.5024,6.4306,6.3617,6.3438,6.3558,6.3528,6.3139,6.2347,6.1936,6.2333,6.1642,6.0924,6.0446,5.9608,5.9099,5.9099,5.9099,5.9099,5.9099,5.871,5.8381,5.8141,5.7007,5.5723,5.4284,5.2991,5.1285,4.9106,4.8577,4.7769,4.6878,4.7255,4.7405,7.5527,7.8938,8.1811,8.4923,8.615,8.6299,8.5013,8.4624,8.3816,8.1183,7.843,7.6275,0.0,7.3432,7.3253,7.7741,7.9267,8.1003,8.4295,8.4205,8.3307,0.0,0.0,0.0,0.0,0.0,0.0,8.2635,0.0,8.4983,8.5671,8.6329,8.6659,8.6629,8.6,8.5641,8.5611,8.4325,8.3367,8.2844,8.2844,8.2844,8.2844,8.2844,8.2409,8.1841,8.1751,8.1033,7.9866,7.9806,7.9387,7.8789,7.8789,7.8789,7.8789,7.8789,7.7951,7.6814,7.6814,7.6395,7.5736,7.5048,7.3941,7.2894,7.2864,7.1936,7.0889,7.0889,7.0889,7.0709,7.0081,6.9453,6.8764,6.8076,6.7448,6.6999,6.6999,6.5951,6.5024,6.5024,6.4006,6.3318,6.3887,6.3528,6.3109,6.2961,6.097,5.9946,6.1058,6.1022,6.0514,5.9338,5.9129,5.9099,5.9099,5.9099,5.9045,5.8991,5.8991,5.8638,5.7958,5.7035,5.5934,5.4617,5.2353,5.0767,5.0093,4.86,4.7908,4.7908,4.7933,4.7958,7.7382,8.1302,8.4654,8.5492,8.5821,8.5731,8.4893,8.3576,8.1781,7.9118,7.4929,7.1218,6.9572,6.9542,7.0769,7.3911,7.7861,8.1691,8.4983,8.4863,0.0,8.2679,0.0,8.1512,8.0195,8.0794,0.0,0.0,8.3247,8.4474,8.5641,8.6329,8.6449,8.597,8.5312,8.4743,8.4235,8.3427,8.2918,8.2844,8.2844,8.2844,8.2844,8.2844,8.2679,8.2469,8.1482,8.0853,8.0464,7.9477,7.8938,7.8789,7.8789,7.8789,7.8789,7.8789,7.7951,7.6814,7.6814,7.6096,7.5018,7.436,7.3582,7.2834,7.2295,7.1577,7.0889,7.0889,7.056,7.0081,6.9423,6.8734,6.8076,6.7388,6.7119,6.6999,6.6999,6.5951,6.5024,6.5024,6.4336,6.3827,6.3977,6.3857,6.3058,6.0911,6.0376,6.0819,6.2398,6.0586,5.9535,6.0514,5.9697,5.9099,5.9099,5.9099,5.858,5.7384,5.7328,5.6706,5.5392,5.462,5.3588,5.2139,5.1037,4.9828,4.8502,4.8094,4.7908,4.7908,4.836,4.856,8.0165,8.3277,8.5761,8.606,8.591,8.4983,8.229,8.0614,7.819,7.3223,6.8944,6.5652,6.4216,6.4575,6.652,7.0889,7.5557,7.9986,8.3876,8.4325,8.4025,0.0,8.2948,0.0,8.1212,8.1512,8.1901,0.0,8.3158,8.4055,8.4803,8.5462,8.5641,8.5282,8.4624,8.3965,8.3307,8.2649,8.2469,8.2844,8.2469,8.232,8.232,8.232,8.202,8.1422,0.0,8.0195,7.9866,7.9088,7.8789,7.8789,7.8789,7.8789,7.8789,7.8789,7.7951,7.6814,7.6814,7.5976,7.4809,7.445,7.3702,7.2834,7.2445,7.1667,7.0889,7.0889,7.0649,7.0171,6.9243,6.8704,6.8196,6.7208,6.6999,6.6909,6.661,6.5742,6.4934,6.4635,6.4036,6.3677,6.3947,6.3288,6.2283,6.0969,5.9916,6.0033,6.2368,6.0472,5.9365,6.0548,5.9997,5.9428,5.9129,5.9099,5.8386,5.6792,5.6736,5.6022,5.4446,5.3343,5.2373,5.1549,4.964,4.8321,4.7415,4.7415,4.7415,4.7415,4.8643,4.9138,8.3128,8.4893,8.594,8.6419,8.591,8.3965,7.8849,7.6754,7.3791,6.6311,6.248,6.0296,5.9787,5.9907,6.2211,6.8734,7.3163,7.7412,8.211,8.3158,8.3547,8.3726,8.3158,8.2844,8.2844,8.223,8.214,8.2709,8.3277,8.3636,8.3726,8.4354,8.4684,8.4594,8.3936,8.3307,8.2649,8.205,8.202,8.2499,8.1931,8.1661,8.1661,8.1661,8.1033,7.9956,0.0,0.0,7.8908,7.8819,7.8789,7.8789,7.8789,7.8729,7.8669,7.8669,7.7831,7.6694,7.6694,7.5886,7.4839,7.4659,7.3851,7.2894,7.2714,7.1816,7.0889,7.0889,7.0829,7.05,6.9303,6.9004,6.8582,6.7051,6.6906,6.6848,6.5827,6.5233,6.4695,6.4006,6.3498,6.3318,6.3677,6.2421,6.1407,6.1535,5.9333,5.861,6.1189,6.0268,5.9626,6.016,6.0146,5.9817,5.9159,5.8936,5.811,5.6508,5.6194,5.5385,5.379,5.2394,5.1678,5.1678,4.8484,4.6798,4.6798,4.6532,4.6465,4.6465,4.8126,4.8828,8.4743,8.591,8.6389,8.597,8.4564,8.217,7.7951,7.3971,6.9692,6.4485,5.9997,5.7154,5.7543,5.8979,6.2091,6.8166,7.2475,7.6844,8.202,8.238,8.2529,8.3606,8.3158,8.2844,8.2844,8.2649,0.0,0.0,0.0,8.3158,8.3696,8.4354,8.4474,8.3906,8.3277,8.2619,8.1961,8.1841,8.1572,8.1153,8.1033,8.0973,8.0973,8.0973,8.0853,8.0614,0.0,0.0,7.9597,7.9028,7.8789,7.8789,7.8789,7.846,7.7981,7.7981,7.7173,7.6066,7.6066,7.5557,7.4689,7.3612,7.3103,7.2714,7.1577,7.1098,7.0889,7.0889,7.053,6.9961,6.9183,6.9004,6.83,6.5426,6.6302,6.7046,6.4343,6.4003,6.3977,6.3378,6.3558,6.3528,6.26,6.26,6.1781,5.8898,5.8378,5.8407,5.8465,5.858,5.9248,6.0787,6.0416,5.9817,5.9159,5.786,5.6423,5.4918,5.3522,5.2112,5.0499,5.0142,5.0014,5.0014,4.7904,4.6798,4.6798,4.5321,4.4573,4.4573,4.4937,4.5073,8.5252,8.618,8.6509,8.5851,8.3965,8.0494,7.3762,6.9453,6.4784,5.7393,5.4181,5.2714,5.2965,5.5209,5.853,6.3109,6.6879,7.1308,7.7293,7.816,7.9327,8.235,8.2739,8.2844,8.2844,8.2844,8.2844,8.2844,0.0,8.2529,8.3187,8.3517,8.3547,8.3247,8.2589,8.211,8.1781,8.1093,8.0764,8.0794,8.0464,8.0285,8.0285,8.0285,8.0105,7.9746,7.9417,0.0,7.9238,7.8549,7.828,7.825,7.7921,7.7562,7.7293,7.7293,7.6694,7.5856,7.5497,7.4929,7.4151,7.2804,7.2624,7.2714,7.1727,7.1188,7.0889,7.0889,7.0679,7.0007,6.8065,6.7607,6.6802,6.3658,6.335,6.3335,6.1812,6.1149,6.1152,6.2112,6.2232,6.2263,6.2575,6.2301,6.1357,5.9259,5.8855,5.8972,5.9411,5.9677,6.005,6.054,6.0595,5.9844,5.8003,5.7131,5.5647,5.3308,5.2394,5.1268,4.9654,4.8673,4.8126,4.8126,4.5366,4.3934,4.3934,4.3057,4.2661,4.2661,4.3611,4.4116,8.5222,8.606,8.6299,8.5641,8.3187,7.8609,6.9782,6.5263,6.0356,5.1216,4.909,4.903,4.9404,5.1708,5.479,5.8501,6.1642,6.5922,7.2535,7.427,7.6485,8.0853,8.205,8.2559,8.2559,8.2559,0.0,8.2559,0.0,0.0,8.2529,8.2409,8.2409,8.2529,8.1931,8.1512,8.1362,8.0345,8.0016,8.0375,7.9836,7.9597,7.9597,7.9597,7.9297,7.8789,7.8639,0.0,0.0,7.7861,7.7592,7.7562,7.7023,7.6754,7.6634,7.6634,7.6155,7.5407,7.4839,7.424,7.3492,7.2265,7.2265,7.2565,7.1876,7.1308,7.0889,7.0739,7.0509,6.9654,6.6846,6.6012,6.5145,6.2331,6.0419,5.9314,5.9569,5.875,5.8648,6.0836,6.0739,6.0817,6.243,6.1672,6.0655,5.9967,5.9548,5.9697,6.0745,6.1014,6.0835,6.0146,6.0377,5.9524,5.6908,5.6079,5.4654,5.2148,5.1678,5.0764,4.9087,4.7575,4.6599,4.6197,4.2966,4.1326,4.1326,4.0921,4.0708,4.0779,4.2241,4.294,8.4863,8.5731,8.5611,8.4983,8.1452,7.6215,6.8764,6.3169,5.7603,5.0737,4.8327,4.8027,4.9777,5.0853,5.3174,5.8291,6.0894,6.4575,7.1158,7.3702,7.6155,7.9597,8.1093,8.1871,8.1871,8.1871,8.1871,8.1871,0.0,0.0,8.1841,8.1302,8.1242,8.1841,8.1242,8.0614,8.0016,7.9866,7.9537,7.8968,7.8908,7.8878,7.8878,7.8878,7.8849,7.8759,7.816,0.0,0.0,7.7203,7.6904,7.6904,7.6844,7.6485,7.5976,7.5976,7.5198,7.4061,7.4001,7.3552,7.2894,7.2116,7.1936,7.1846,7.1188,7.0949,7.0799,7.0231,6.9207,6.7882,6.5939,6.4989,6.4124,6.2212,5.9481,5.7705,5.8851,5.8538,5.8509,6.0234,6.0048,5.9945,6.1091,6.0685,5.9967,5.9308,5.9668,6.0027,6.0176,6.0715,6.0835,6.0146,5.9385,5.835,5.6822,5.4061,5.2332,5.2024,5.06,4.8998,4.7154,4.6865,4.6063,4.4368,4.2382,4.1326,4.1326,3.9674,3.8865,3.8846,3.8991,3.9136,8.3397,8.4803,8.4863,8.3786,8.0345,7.5108,6.7029,6.1732,5.6526,4.9523,4.7668,4.7549,4.8327,4.8686,4.9823,5.2725,5.3503,5.6226,6.3199,6.5922,6.9453,7.5527,7.81,7.9866,8.1063,0.0,8.1033,8.0644,0.0,0.0,8.0584,8.0734,8.0913,8.1183,8.0554,8.0075,7.9806,7.9417,7.9058,7.8789,7.84,7.819,7.819,7.7801,7.7622,7.7592,7.7322,0.0,0.0,7.6544,7.6275,7.6245,7.5826,7.5497,7.5228,7.4839,7.436,7.3762,7.2954,7.2505,7.2176,7.1517,7.1038,7.0769,7.0859,7.0889,7.0859,7.062,6.9376,6.7534,6.4979,6.1654,5.8848,5.8096,5.6452,5.5229,5.5695,5.536,5.5709,5.8481,5.8441,5.8639,6.0743,6.0535,5.9847,5.9189,5.9668,6.0236,6.0655,6.1283,6.1065,5.9444,5.8552,5.7339,5.547,5.2261,4.9914,4.8938,4.7263,4.5952,4.5186,4.4071,4.3127,4.2452,4.0586,3.9674,3.9674,3.8918,3.8574,3.8574,3.8574,3.8437,8.1212,8.3187,8.3576,8.2469,7.8609,7.3073,6.5443,6.0206,5.5119,4.8626,4.7309,4.7309,4.7309,4.7309,4.7668,4.885,4.9254,5.1648,5.7932,6.0715,6.4515,7.1068,7.418,7.6544,7.8549,7.9836,8.0225,0.0,0.0,0.0,7.9507,7.9776,8.0105,8.0494,7.9866,7.9507,7.9507,7.8849,7.8489,7.8489,7.7831,7.7502,7.7502,7.7053,7.6814,7.6814,0.0,0.0,0.0,7.5856,7.5497,7.5258,7.4779,7.448,7.424,7.3762,7.3462,7.3163,7.2206,7.1637,7.1248,7.0799,7.035,6.9957,6.9619,6.9631,6.9719,6.9607,6.7516,6.4734,6.2101,5.8433,5.5315,5.4963,5.4285,5.3658,5.3507,5.3569,5.4448,5.7214,5.7543,5.8175,6.0446,6.0236,5.9638,5.9189,5.9668,6.016,6.0336,6.0605,6.0089,5.8165,5.6778,5.5158,5.3072,5.0154,4.7758,4.613,4.4778,4.3841,4.3266,4.2031,4.1063,4.0494,3.9261,3.8574,3.8574,3.8574,3.8516,3.8379,3.8379,3.8144,7.825,8.0823,8.1661,8.0973,7.5856,6.9572,6.4276,5.8501,5.2935,4.8267,4.7309,4.7309,4.7309,4.7309,4.7519,4.8177,5.0481,5.3563,5.7573,6.0416,6.3318,6.667,6.9363,7.1757,7.3762,7.7532,7.9537,0.0,0.0,0.0,7.8789,7.819,7.846,7.9776,7.9148,7.8789,7.8789,7.816,7.7831,7.7801,7.7143,7.6844,7.6844,7.6814,7.6814,0.0,0.0,0.0,0.0,7.5168,7.451,7.3911,7.3911,7.3492,7.2924,7.2924,7.2505,7.1906,7.1876,7.1038,6.9991,6.9991,6.9991,6.9521,6.713,6.6709,6.7055,6.6479,6.2794,5.8604,5.6776,5.5817,5.5114,5.3984,5.3708,5.3557,5.3055,5.419,5.5693,5.6793,5.7817,5.8842,5.99,5.9548,5.9129,5.9099,5.9668,5.9711,5.8638,5.806,5.7393,5.631,5.3705,5.1288,4.943,4.7783,4.6063,4.4231,4.4116,4.3288,4.1397,4.1326,4.0443,3.8647,3.8647,3.8574,3.8574,3.8574,3.8359,3.793,3.793,3.7715,6.9393,7.1697,7.2654,7.1068,6.8106,6.4306,5.9458,5.5837,5.2336,4.8177,4.7309,4.7309,4.7309,4.695,4.7578,5.0481,5.1289,5.2755,5.6286,5.9847,6.2989,6.5353,7.1158,7.5557,7.7083,0.0,7.837,0.0,0.0,0.0,7.7442,7.7263,7.7532,7.843,7.6459,7.5349,7.5349,7.3834,7.3018,7.3018,7.3704,7.4095,7.4066,7.509,0.0,0.0,0.0,0.0,0.0,7.2404,7.2228,7.3089,7.1816,7.2001,7.2864,7.2385,7.2056,7.1816,7.1368,6.9874,6.8152,6.8152,6.6718,6.4841,6.4555,6.5742,6.6585,6.3376,6.0833,5.8578,5.6678,5.5214,5.416,5.3783,5.3432,5.345,5.4392,5.4694,5.5564,5.8231,5.8282,5.8349,5.9811,5.9548,5.9099,5.9099,5.9079,5.8754,5.8032,5.7636,5.651,5.4243,5.2045,5.0308,4.9264,4.657,4.4162,4.2312,4.0992,4.0105,3.9478,3.9478,3.9049,3.8144,3.8125,3.7988,3.7695,3.7695,3.7637,3.748,3.7207,3.6992,6.3288,6.5981,6.7148,6.5622,6.3199,6.0266,5.6615,5.3683,5.087,4.7908,4.71,4.692,4.692,4.6381,4.6741,4.9194,5.0301,5.1648,5.3982,5.7723,6.1403,6.4635,7.026,7.4385,0.0,7.6073,0.0,0.0,0.0,0.0,7.566,7.6152,7.6282,7.5998,7.4533,7.3432,7.2659,7.1198,7.0373,7.0449,7.0997,7.1561,7.2158,7.2947,0.0,0.0,0.0,0.0,0.0,7.0715,7.0217,7.029,6.912,6.9633,7.096,6.9816,6.9872,7.0282,6.8911,6.7305,6.5759,6.56,6.3592,6.1273,6.175,6.2935,6.35,5.9947,5.82,5.708,5.5648,5.4486,5.3658,5.3457,5.3005,5.3055,5.4668,5.5108,5.5869,5.8275,5.8639,5.8825,5.9593,5.9368,5.8882,5.8276,5.7997,5.7337,5.5989,5.5469,5.4181,5.1267,4.9771,4.8206,4.6366,4.4278,4.2241,4.0371,3.9188,3.8574,3.8574,3.8418,3.8203,3.793,3.7773,3.7559,3.7305,3.7148,3.7051,3.7051,3.6621,3.6426,0.0,6.254,6.3857,6.3139,6.0206,5.7004,5.5059,5.1768,0.0,4.7429,4.6681,4.6249,4.6339,4.5753,4.5364,4.5783,4.8446,5.0674,5.1468,5.5029,5.9578,6.4964,6.7712,0.0,7.096,0.0,0.0,0.0,0.0,0.0,7.3599,7.4852,7.4598,7.2561,7.2858,7.2282,7.044,6.9631,6.9252,6.9225,6.8827,6.929,7.0635,7.0777,0.0,0.0,0.0,0.0,0.0,6.9729,6.8202,6.607,6.597,6.6707,6.7644,6.5795,6.6314,6.7587,6.5279,6.3943,6.31,6.2371,6.0558,5.8692,5.8806,5.885,5.8429,5.6577,5.534,5.4386,5.3833,5.3683,5.3507,5.298,5.2477,5.2523,5.4119,5.5321,5.6386,5.7395,5.8911,5.9817,5.9026,5.8936,5.8386,5.6792,5.6451,5.5552,5.3076,5.2145,5.0665,4.7916,4.6906,4.5027,4.1608,4.1326,4.0514,3.872,3.8574,3.8555,3.8535,3.8144,3.7891,3.7832,3.7422,3.7207,3.7207,3.6816,3.6621,3.6621,3.6211,3.6016,5.102,0.0,5.4192,5.3025,5.2085,5.096,0.0,4.8446,4.7399,4.6052,4.5633,4.5843,4.689,4.5693,4.6022,5.0601,5.1977,5.3084,5.476,5.9249,6.4545,7.038,7.1179,7.1718,7.2994,0.0,0.0,0.0,0.0,7.2086,7.1596,7.1979,7.0993,6.8479,6.7141,6.6626,6.6997,6.4925,6.382,6.382,6.4814,6.6209,6.796,6.9522,0.0,0.0,0.0,0.0,6.9067,6.5661,6.4709,6.5237,6.3361,6.3938,6.5795,6.49,6.5152,6.5823,6.519,6.3384,6.0935,5.8485,5.7333,5.6747,5.6387,5.6259,5.6086,5.5207,5.4436,5.3884,5.3733,5.3406,5.298,5.2427,5.2201,5.2421,5.3698,5.4735,5.5858,5.7397,5.8585,5.8867,5.7526,5.7243,5.6736,5.5152,5.4233,5.3359,5.235,5.019,4.83,4.7146,4.4344,4.222,4.1397,4.1326,4.0514,3.872,3.8574,3.8418,3.8086,3.7969,3.7617,3.6973,3.6543,3.6328,3.6328,3.6211,3.6172,3.6172,3.6074,3.6016,4.692,4.8805,5.0601,4.9883,4.9254,4.8626,4.7908,4.704,4.6172,4.5454,4.5065,4.5155,4.6202,4.5484,4.5933,4.9464,5.1289,5.3713,5.7872,6.0844,6.4579,6.9994,7.0003,6.9647,0.0,0.0,0.0,0.0,0.0,6.8189,6.7856,6.8731,6.82,6.5782,6.471,6.406,6.3697,6.2303,6.1617,6.1617,6.2426,6.3691,6.5302,6.7345,6.851,0.0,0.0,0.0,6.5411,6.3051,6.2138,6.2059,6.0501,6.1158,6.301,6.1852,6.2148,6.301,6.1806,6.0073,5.7976,5.6356,5.5666,5.534,5.4787,5.4612,5.4561,5.426,5.3758,5.3281,5.303,5.2754,5.2402,5.185,5.1523,5.1661,5.3069,5.3583,5.4254,5.5864,5.6623,5.6679,5.5791,5.5618,5.5094,5.3549,5.2783,5.1742,4.9888,4.8231,4.6503,4.4505,4.25,4.0992,4.0157,4.0085,3.9602,3.8647,3.8379,3.8164,3.793,3.7559,3.7051,3.6387,3.6133,3.6016,3.6016,3.6016,3.6016,3.6016,3.6016,3.6016,4.5663,4.7878,4.9956,4.9657,4.8955,4.8237,4.8027,4.6591,4.5274,4.5155,4.4706,4.4556,4.5304,4.5544,4.5963,4.704,5.0062,5.4551,6.1104,6.1697,6.3099,6.7544,6.7138,0.0,0.0,0.0,0.0,0.0,0.0,6.4125,6.394,6.5538,6.5605,6.3752,6.3373,6.2431,6.0688,6.0939,6.1014,6.0914,6.0914,6.1658,6.2993,6.4644,6.5011,0.0,0.0,0.0,6.1516,6.1327,6.0317,5.878,5.8152,5.8922,6.0195,5.8347,5.8715,5.9783,5.7537,5.6168,5.539,5.539,5.5013,5.4461,5.3984,5.3758,5.3658,5.3507,5.313,5.2703,5.2226,5.2051,5.185,5.1272,5.077,5.076,5.2059,5.2145,5.2394,5.379,5.4208,5.4327,5.4089,5.4029,5.3429,5.1502,5.119,5.0028,4.6775,4.613,4.4755,4.1608,4.1063,4.0279,3.8622,3.8476,3.8457,3.8379,3.8086,3.7871,3.7734,3.6992,3.6406,3.6035,3.5743,3.5587,3.5587,3.5587,3.5587,3.5587,3.5879,3.6016,4.7369,4.8596,4.9015,4.7339,4.7608,4.7997,4.689,4.5933,4.5125,4.4586,4.4377,4.4706,4.5933,4.6621,4.7938,5.084,5.4551,5.9189,6.5233,6.4681,6.4957,6.8486,0.0,6.4535,0.0,0.0,0.0,0.0,0.0,6.3755,6.2703,6.2996,6.2591,6.1272,5.973,5.8681,5.8403,5.9759,6.0211,5.9759,5.9759,6.0456,6.1753,6.2046,6.3001,0.0,0.0,6.2152,6.1395,6.0327,5.9665,5.9282,5.8278,5.8303,5.8757,5.7046,5.6893,5.7341,5.6065,5.5541,5.539,5.539,5.5013,5.4536,5.4461,5.4084,5.3507,5.2603,5.2302,5.2201,5.2126,5.1749,5.1247,5.0695,5.0469,5.0358,5.0114,5.1094,5.2086,5.2332,5.3489,5.3969,5.2578,5.2332,5.1315,4.8093,4.7569,4.6841,4.4778,4.3127,4.1961,4.1326,3.9962,3.8761,3.8047,3.8027,3.7871,3.7519,3.7773,3.7598,3.6894,3.6387,3.6094,3.6016,3.4452,3.3605,3.3605,3.3605,3.3605,3.3674,3.5226,3.6016,4.4407,4.5813,4.707,4.689,4.8117,4.9075,4.8147,4.713,4.6202,4.5544,4.5394,4.5693,4.6681,4.8536,5.1379,5.5748,5.889,6.1749,6.452,6.4422,6.4456,0.0,0.0,0.0,0.0,0.0,0.0,0.0,0.0,0.0,6.0401,6.0142,5.973,5.9216,5.8375,5.7901,5.7901,5.8629,5.888,5.8629,5.8629,5.9009,5.9576,6.1593,6.1765,6.052,0.0,6.1191,5.8965,5.8074,5.7901,5.8052,5.6972,5.6872,5.7223,5.6168,5.5742,5.5616,5.5114,5.4737,5.4486,5.4486,5.411,5.3632,5.3331,5.3055,5.2448,5.0646,5.108,5.1747,5.013,4.9517,4.8974,4.7389,4.7738,4.8353,4.8109,4.949,5.0727,5.0727,5.1268,5.1475,5.0441,4.952,4.8323,4.6592,4.5599,4.4414,4.2827,4.182,4.0921,3.9962,3.8846,3.8144,3.7949,3.7715,3.7402,3.6992,3.7148,3.6973,3.6348,3.6133,3.5519,3.4521,3.3674,3.2665,3.1667,3.2665,3.317,3.324,3.4861,3.6135,4.2551,4.3898,4.5603,4.698,4.8566,4.9942,5.0511,4.9404,4.8297,4.8566,4.8267,4.8027,4.8386,5.1139,5.494,5.9757,6.2106,6.3499,6.4028,0.0,0.0,0.0,0.0,0.0,0.0,0.0,0.0,0.0,0.0,0.0,5.8529,0.0,5.77,5.77,5.7575,5.7499,5.7499,5.7499,5.7575,5.77,5.7826,5.7826,5.775,6.0517,5.9913,5.6994,6.0164,5.9631,5.662,5.6344,5.647,5.6746,5.5917,5.5691,5.5767,5.534,5.4762,5.4185,5.4185,5.3884,5.3462,5.3143,5.2605,5.1941,5.1206,5.0798,5.0181,4.823,4.9016,4.9869,4.7617,4.697,4.6374,4.4549,4.5186,4.6264,4.6732,4.7929,4.9112,4.9525,4.9242,4.8834,4.8412,4.681,4.5427,4.4946,4.3714,4.2326,4.0859,4.0636,4.0116,3.8583,3.8125,3.7851,3.7637,3.7246,3.6855,3.6543,3.6523,3.6367,3.6035,3.5587,3.4659,3.324,3.2316,3.1282,3.0178,3.1669,3.2556,3.295,3.4864,3.6431,4.5484,4.5633,4.5603,4.698,4.7878,4.9553,5.3803,5.2785,5.1798,5.485,5.3982,5.2516,5.1947,5.4521,5.7872,6.1373,6.3137,6.4684,6.6585,0.0,0.0,0.0,0.0,0.0,0.0,0.0,0.0,0.0,0.0,0.0,5.7951,0.0,0.0,5.7097,5.6595,5.6319,5.6319,5.6319,5.6595,5.7097,5.765,5.7625,5.7072,5.6839,5.6586,5.6244,5.6031,5.5804,5.5541,5.6018,5.6244,5.6269,5.6194,5.5541,5.4687,5.4637,5.3959,5.3055,5.3055,5.303,5.2779,5.1415,5.0364,4.9319,4.7938,4.6887,4.6048,4.5362,4.5272,4.5342,4.5134,4.4705,4.4298,4.4116,4.4185,4.4778,4.6465,4.6889,4.7509,4.9242,4.8191,4.6998,4.6974,4.5085,4.3171,4.1833,4.1207,4.0423,3.9004,3.8773,3.8563,3.8008,3.7949,3.7617,3.6816,3.6367,3.6094,3.6074,3.6074,3.6055,3.6016,3.4314,3.3309,3.317,2.9702,2.8545,2.9745,2.9884,3.0686,3.207,3.5386,3.7019,4.2432,4.3329,4.4706,4.7279,4.9015,5.078,5.3354,5.4431,5.5478,5.7573,5.7393,5.6795,5.6526,5.8201,6.0535,6.3438,6.5065,6.5803,6.5331,0.0,0.0,0.0,0.0,0.0,0.0,0.0,0.0,0.0,0.0,0.0,0.0,0.0,0.0,5.652,5.5993,5.5691,5.5691,5.5365,5.529,5.5491,5.6068,5.6043,5.5563,5.647,5.6252,5.5236,5.6162,5.5944,5.4863,5.4712,5.5248,5.6132,5.6132,5.5274,5.3984,5.3658,5.3281,5.2648,5.1121,5.0777,5.0811,4.9026,4.8033,4.7293,4.6442,4.5711,4.485,4.3122,4.264,4.264,4.264,4.2511,4.2101,4.0921,4.1559,4.257,4.3244,4.4277,4.5321,4.6019,4.5337,4.4545,4.4224,4.2371,4.0826,4.0492,3.9163,3.8207,3.8158,3.7949,3.7715,3.7559,3.7305,3.7381,3.7814,3.6706,3.6471,3.7575,3.6606,3.6016,3.6016,3.3985,3.2378,3.1184,2.8381,2.6606,2.6008,2.8275,2.9712,3.0326,3.3704,3.5735,4.0876,4.1983,4.3888,4.6411,4.9134,5.1768,5.3922,5.6466,5.9039,6.1403,6.0924,5.9997,5.9787,6.0475,0.0,0.0,6.5109,6.5287,6.357,0.0,0.0,0.0,0.0,0.0,0.0,0.0,0.0,0.0,0.0,0.0,0.0,0.0,0.0,0.0,5.5666,5.5315,5.5139,5.4762,5.4461,5.4285,5.4687,5.4762,5.4632,5.5684,5.5571,5.4678,5.5503,5.5314,5.4235,5.3683,5.4123,5.5138,5.5468,5.4738,5.3406,5.3055,5.2491,5.1767,4.9979,4.9227,4.8699,4.6557,4.5618,4.5062,4.3933,4.3243,4.2578,4.0933,3.9973,3.943,3.943,3.9973,4.0157,3.8918,3.955,4.0565,4.1205,4.2312,4.336,4.3777,4.3192,4.2408,4.1924,3.999,3.8664,3.9048,3.7728,3.6934,3.7637,3.748,3.7246,3.7109,3.6719,3.706,3.8507,3.6991,3.6682,3.8256,3.679,3.582,3.582,3.3762,3.1665,2.9738,2.764,2.5831,2.4525,2.6962,2.8461,2.8957,3.1669,3.3539,4.1893,4.2312,4.3469,4.4197,4.7848,5.2306,5.6256,5.9219,6.245,6.7059,6.4874,6.1942,6.1283,6.1134,0.0,0.0,0.0,0.0,0.0,0.0,0.0,0.0,0.0,0.0,0.0,0.0,0.0,0.0,0.0,0.0,0.0,0.0,0.0,0.0,5.5666,5.5114,5.4561,5.4632,5.426,5.3683,5.3683,5.4009,5.4536,5.3959,5.4009,5.4486,5.3406,5.3206,5.3658,5.313,5.2904,5.2991,5.4077,5.3808,5.2929,5.2836,5.1652,4.9961,4.9937,4.8627,4.6573,4.422,4.3163,4.2335,3.9889,3.8906,3.8574,3.8574,3.7106,3.5497,3.5497,3.7032,3.8574,3.8574,3.8574,3.9063,4.0921,4.1255,4.1671,4.3037,4.1878,4.0507,4.0135,3.8211,3.6816,3.7226,3.6934,3.6816,3.7226,3.7285,3.7129,3.6719,3.6269,3.6722,3.8465,3.7059,3.6542,3.7796,3.6329,3.5391,3.5391,3.3477,3.1405,2.9237,2.7308,2.6186,2.5942,2.5927,2.6713,2.8163,2.9707,3.0409,4.0277,4.1586,4.4007,4.704,5.1588,5.6406,6.0386,6.263,6.4904,6.8615,6.6969,6.4665,6.3977,6.3468,0.0,0.0,0.0,0.0,0.0,0.0,0.0,0.0,0.0,0.0,0.0,0.0,0.0,0.0,0.0,0.0,0.0,0.0,0.0,0.0,5.4511,5.4135,5.3959,5.3607,5.3331,5.3155,5.3155,5.3256,5.3406,5.4431,5.4321,5.3451,5.4319,5.409,5.3149,5.3325,5.3881,5.4612,5.3658,5.2918,5.2116,5.0025,4.9133,4.8518,4.5453,4.4221,4.3677,4.1617,4.0624,4.0151,3.9386,3.8906,3.8263,3.6811,3.5961,3.5127,3.3449,3.4705,3.6423,3.6423,3.7566,3.872,3.9261,3.9166,3.9029,3.9454,3.8667,3.7877,3.7757,3.6897,3.6367,3.6797,3.6484,3.6269,3.6387,3.6406,3.6348,3.623,3.7206,3.834,3.9646,3.8289,3.7343,3.7254,3.4615,3.307,3.307,3.1,2.904,2.7106,2.3694,2.1899,2.1823,2.1734,2.1919,2.2428,2.4099,2.4856,4.1115,4.309,4.6142,4.9583,5.3803,5.8411,6.3498,6.5443,6.6849,6.9123,6.7687,6.577,6.4892,6.4003,0.0,0.0,0.0,0.0,0.0,0.0,0.0,0.0,0.0,0.0,0.0,0.0,0.0,0.0,0.0,0.0,0.0,0.0,0.0,0.0,5.3884,5.3507,5.308,5.2754,5.2503,5.2277,5.2902,5.3187,5.3212,5.4707,5.498,5.4253,5.4335,5.3907,5.3177,5.3243,5.3693,5.4258,5.2991,5.1627,5.013,4.8343,4.7095,4.5859,4.3242,4.199,4.1427,4.0022,3.9434,3.918,3.9004,3.8769,3.8151,3.5925,3.4744,3.3615,3.1232,3.167,3.318,3.4734,3.6748,3.8262,3.8105,3.7259,3.6723,3.7319,3.6432,3.573,3.6288,3.6191,3.6113,3.6367,3.6191,3.6016,3.6016,3.6016,3.6209,3.6683,3.762,3.8786,3.9985,3.7869,3.6354,3.5845,3.2627,3.0035,2.8405,2.8641,2.7149,2.3735,2.1233,1.8885,1.6658,1.6529,1.653,1.6589,1.8356,1.8755,4.321,4.5693,4.8955,5.1768,5.5119,5.9308,6.5413,6.7268,6.7956,6.8824,6.7508,6.5822,6.4544,6.3239,0.0,0.0,0.0,0.0,0.0,0.0,0.0,0.0,0.0,0.0,0.0,0.0,0.0,0.0,0.0,0.0,0.0,5.4331,0.0,5.3507,5.3482,5.3005,5.2051,5.2026,5.1842,0.0,5.2919,5.3704,5.3858,5.4981,5.5683,5.5919,5.3887,5.331,5.3779,5.3071,5.2922,5.2959,5.1951,4.9934,4.7675,4.7288,4.5245,4.2658,4.2439,4.1231,3.9648,3.9219,3.9062,3.8965,3.8574,3.8384,3.7759,3.5413,3.3305,3.1157,2.8882,2.8462,2.9493,3.3009,3.5678,3.7234,3.708,3.565,3.4841,3.6162,3.5102,3.4445,3.5801,3.6016,3.6016,3.6016,3.5996,3.5957,3.5957,3.6054,3.6529,3.7645,3.7971,3.853,3.9348,3.6157,3.3798,3.2989,2.9473,2.5749,2.1855,2.5749,2.5269,1.9415,1.8959,1.6263,1.114,1.0992,1.092,1.0928,1.2543,1.2467,4.1803,4.4975,4.9284,5.3503,5.856,6.3019,6.4994,6.5562,6.6311,6.8555,6.8226,6.6954,6.4845,0.0,0.0,0.0,0.0,0.0,0.0,0.0,0.0,0.0,0.0,0.0,0.0,0.0,0.0,0.0,0.0,0.0,5.2026,5.2,5.1925,5.18,5.18,5.1699,5.1448,5.1448,5.2012,0.0,5.3448,5.4313,5.5655,5.5901,5.5402,5.4323,5.37,5.4262,5.5476,5.3574,5.3851,5.4956,4.987,4.7865,4.7288,4.39,4.2244,4.1427,3.9976,3.8977,3.832,3.8223,3.7969,3.7695,3.7598,3.6523,3.4939,3.278,3.0776,2.8807,2.643,2.719,2.8641,2.8914,3.1069,3.3346,3.481,3.4536,3.4068,3.4348,3.5016,3.5635,3.5967,3.6016,3.6016,3.6016,3.5742,3.5527,3.5527,3.6299,3.697,3.7188,3.961,4.0021,3.7162,3.3631,2.9579,2.5009,2.0047,1.6204,1.3895,1.8912,1.9771,1.5551,1.2517,1.0436,0.9198,0.7734,0.7004,0.6983,0.74,0.7391,4.2731,4.6172,5.0631,5.6555,6.1044,6.4186,6.4874,6.4366,6.4173,6.5588,6.5588,6.4542,6.1939,0.0,0.0,0.0,0.0,0.0,0.0,0.0,0.0,0.0,0.0,0.0,0.0,0.0,0.0,0.0,0.0,5.19,5.1322,5.1272,5.1272,5.1272,5.1272,5.1021,5.0469,5.1201,5.1727,5.1979,5.2754,5.318,5.3416,5.4553,5.4432,5.3409,5.2955,5.3139,5.3707,5.2199,5.2269,5.2883,4.8046,4.5766,4.4909,4.1869,4.0137,3.9101,3.7244,3.6463,3.6274,3.6274,3.6142,3.5972,3.5972,3.5293,3.3857,3.0673,2.9112,2.7807,2.5452,2.5778,2.7054,2.8491,3.0827,3.2855,3.3678,3.3691,3.3757,3.4682,3.474,3.4952,3.5879,3.5859,3.5723,3.5723,3.5351,3.5323,3.6073,3.6758,3.7614,3.8913,3.9171,3.7627,3.3548,2.8281,2.2897,1.7271,1.2589,0.9223,0.7477,0.9307,0.9874,0.8911,0.6906,0.4987,0.3225,0.3079,0.2996,0.3045,0.3944,0.3861,4.3359,4.7459,5.2336,5.8949,6.2061,6.3589,6.3832,6.2844,6.1714,6.124,6.1651,6.1231,0.0,0.0,0.0,0.0,0.0,0.0,0.0,0.0,0.0,0.0,0.0,0.0,0.0,0.0,0.0,0.0,0.0,5.1046,5.0845,5.0845,5.0795,5.0695,5.0695,5.0243,4.9314,5.0544,5.083,5.0247,5.1494,5.1494,5.0386,5.2039,5.267,5.2473,5.2068,5.1748,5.139,5.085,5.0486,4.9947,4.6314,4.3955,4.2371,4.0371,3.8416,3.6559,3.5007,3.445,3.4396,3.4396,3.4341,3.4287,3.4287,3.3768,3.2547,2.8981,2.7747,2.704,2.5133,2.4636,2.5478,2.8893,3.1452,3.3108,3.3155,3.317,3.3637,3.5131,3.4539,3.4346,3.5897,3.589,3.5586,3.534,3.4883,3.5156,3.6789,3.715,3.8168,4.0432,3.7588,3.361,2.8932,2.1618,1.5039,0.9619,0.5754,0.3018,0.1601,-0.0349,-0.0558,0.1047,0.1256,-0.014,-0.3136,-0.1323,-0.0484,-0.0411,0.1367,0.129,3.9888,4.6352,5.3713,5.7573,6.0027,6.1154,5.983,5.9362,5.8526,5.6114,5.8181,5.9597,0.0,0.0,0.0,0.0,0.0,0.0,0.0,0.0,0.0,0.0,0.0,0.0,0.0,0.0,0.0,0.0,5.0519,5.0117,4.9163,4.9113,4.8862,4.8385,4.836,4.8284,4.8134,4.8296,4.9061,5.0307,5.0486,5.0486,5.0273,4.9153,4.9379,5.065,5.1882,5.2355,5.2331,5.2248,5.1436,4.9801,4.486,4.2814,4.2238,3.8902,3.6469,3.4864,3.4558,3.4269,3.389,3.389,3.3673,3.3402,3.3402,3.1044,2.8335,2.7725,2.6341,2.4972,2.4649,2.4636,2.507,2.6831,2.8757,3.0766,3.2751,3.317,3.3131,3.2993,3.4906,3.6694,3.6887,3.691,3.6374,3.4982,3.4434,3.4784,3.6394,3.7418,3.8223,3.8551,3.505,3.0064,2.3507,1.4615,0.7095,0.1884,-0.1975,-0.4165,-0.4254,-0.6136,-0.7005,-0.651,-0.5074,-0.4529,-0.5012,-0.3191,-0.236,-0.229,-0.0472,-0.0606,4.1534,4.7309,5.2965,5.6645,5.806,5.8572,5.8234,5.7021,5.562,5.4405,5.4642,5.4891,0.0,0.0,0.0,0.0,0.0,0.0,0.0,0.0,0.0,0.0,0.0,0.0,0.0,0.0,0.0,0.0,4.9012,4.8786,4.8309,4.8284,4.8159,4.7908,4.7908,4.7782,4.7481,4.7956,4.8276,4.8378,4.8378,4.7916,4.7093,4.6348,4.7547,5.0307,5.1489,5.1498,5.0721,5.1285,5.0174,4.7656,4.3461,4.1808,4.1351,3.7895,3.5344,3.3605,3.2524,3.1976,3.1696,3.0645,3.0751,3.0922,2.8805,2.6911,2.517,2.412,2.3207,2.2797,2.3852,2.4155,2.4809,2.75,2.8777,3.0275,3.3348,3.4029,3.3973,3.3784,3.4851,3.5775,3.5775,3.5574,3.5156,3.4466,3.3984,3.4622,3.7105,3.7093,3.6773,3.647,3.0421,2.3505,1.6261,0.7188,0.0,-0.4437,-0.8139,-1.0103,-0.9968,-1.1728,-1.2598,-1.2418,-0.8895,-0.6948,-0.6825,-0.5111,-0.4225,-0.4225,-0.3423,-0.3421,4.1803,4.6082,4.9612,5.3456,5.4831,5.5275,5.5395,5.409,5.2807,5.2391,5.1318,5.0544,0.0,0.0,0.0,0.0,0.0,0.0,0.0,0.0,0.0,0.0,0.0,0.0,0.0,0.0,0.0,0.0,4.7908,4.7857,4.7707,4.7581,4.7431,4.7305,4.7154,4.6878,4.6502,4.7126,4.7117,4.6312,4.6312,4.5716,4.4618,4.4618,4.6353,4.9408,5.0111,4.9724,4.8721,4.9464,4.7999,4.5009,4.1999,4.0545,3.9777,3.6276,3.3792,3.1947,3.0537,3.0029,2.9764,2.8364,2.8444,2.83,2.449,2.2859,2.196,2.0036,2.0143,2.1258,2.2658,2.3398,2.4579,2.7699,2.8422,2.9529,3.3794,3.4609,3.4662,3.5117,3.5062,3.4983,3.4983,3.4724,3.4398,3.397,3.3633,3.4383,3.7265,3.5762,3.4104,3.3254,2.4741,1.6323,0.9262,0.076,-0.5792,-0.9556,-1.2231,-1.3857,-1.4068,-1.5375,-1.602,-1.5913,-1.2168,-1.0178,-1.0003,-0.8178,-0.7304,-0.7233,-0.6749,-0.674,3.7644,4.0277,4.2733,4.6114,4.9153,5.0938,4.9508,4.9849,5.001,4.8556,4.8146,4.8083,0.0,0.0,0.0,0.0,0.0,0.0,0.0,0.0,0.0,0.0,0.0,0.0,0.0,0.0,0.0,0.0,4.7908,4.7682,4.7143,4.6677,4.615,4.5623,4.507,4.4794,4.4744,4.4777,4.4785,4.4734,4.4734,4.4676,4.4618,4.4618,4.5508,4.703,4.7116,4.7116,4.706,4.7063,4.5285,4.234,4.0471,3.8835,3.7063,3.3567,3.1073,2.9355,2.9286,2.9286,2.9218,2.9149,2.7968,2.5893,2.2185,1.9802,1.7958,1.6058,1.8124,2.0886,2.103,2.243,2.4184,2.5771,2.6162,2.7741,3.3454,3.4394,3.4596,3.608,3.6081,3.5746,3.5746,3.5746,3.5191,3.369,3.3437,3.4027,3.5683,3.284,2.9958,2.812,1.8123,0.9276,0.3702,-0.3666,-0.9492,-1.3033,-1.3419,-1.4192,-1.5684,-1.5869,-1.5923,-1.5913,-1.5664,-1.5534,-1.545,-1.3448,-1.2442,-1.2378,-1.0412,-1.0412,3.5402,3.7564,3.9856,4.2283,4.3993,4.5197,4.5795,4.6846,4.7682,4.7453,4.7682,4.7908,0.0,0.0,0.0,0.0,0.0,0.0,0.0,0.0,0.0,0.0,0.0,0.0,0.0,0.0,0.0,0.0,0.0,4.5723,4.5547,4.5347,4.5146,4.4945,4.4744,4.4443,4.4091,4.4091,4.3915,4.3564,4.3564,4.3564,4.3564,4.3564,4.3877,4.4438,4.4438,4.5382,4.679,4.5814,4.4153,4.2005,3.9246,3.7826,3.6851,3.336,3.0885,2.9031,2.7931,2.8276,2.8826,2.6504,2.5082,2.3391,1.8475,1.4648,1.2086,1.2676,1.3834,1.5426,1.7897,1.9052,2.0005,2.1703,2.3856,2.6115,2.8229,3.1283,3.3843,3.4392,3.4378,3.4258,3.4258,3.4258,3.407,3.3481,3.2428,3.187,3.2257,2.8202,2.3628,1.9233,1.096,0.3065,-0.3559,-0.8769,-1.2653,-1.4996,-1.6115,-1.6979,-1.7538,-1.9687,-2.0334,-1.9279,-2.009,-1.8911,-1.5637,-1.49,-1.4395,-1.4201,-1.3421,-1.3457,3.2364,3.3902,3.5939,3.8206,3.9033,4.006,4.2736,4.3989,4.4895,4.5824,4.6451,4.6803,0.0,0.0,0.0,0.0,0.0,0.0,0.0,0.0,0.0,0.0,0.0,0.0,0.0,0.0,0.0,0.0,0.0,0.0,4.4618,4.4443,4.4267,4.4091,4.389,4.3614,4.3263,4.3062,4.2785,4.2434,4.2434,4.2434,4.2434,4.2434,4.2534,4.2766,4.2766,4.3802,4.546,4.3865,4.2307,4.0685,3.7895,3.6477,3.5611,3.2093,2.9967,2.8603,2.6847,2.6969,2.7447,2.4442,2.238,1.991,1.361,0.938,0.6837,0.7491,0.8561,1.0274,1.3499,1.4788,1.5545,1.6738,1.9347,2.1555,2.1555,2.6901,3.1643,3.1643,3.1643,3.1433,3.0781,3.0699,3.0488,2.9854,2.8177,2.6791,2.6005,2.1119,1.5587,1.0,0.3306,-0.3197,-0.9205,-1.2527,-1.5026,-1.6802,-1.7885,-1.9012,-2.0157,-2.2375,-2.3266,-2.2544,-2.3353,-2.2054,-1.8472,-1.746,-1.6848,-1.6619,-1.6542,-1.6425,0.0,0.0,0.0,3.3556,3.441,3.5635,4.0004,4.105,4.1576,4.3338,4.4116,4.4518,0.0,0.0,0.0,0.0,0.0,0.0,0.0,0.0,0.0,0.0,0.0,0.0,0.0,0.0,0.0,0.0,4.4568,4.4543,4.4543,4.4041,4.3489,4.2936,4.2464,4.2187,4.2187,4.1605,4.1275,4.1275,4.1275,4.1275,4.1275,4.1275,4.1576,4.2133,4.2133,4.2379,4.2687,4.1167,3.9581,3.7985,3.6356,3.4798,3.2956,2.9474,2.8163,2.79,2.6039,2.545,2.5084,2.3202,1.9908,1.5362,0.7908,0.4236,0.2237,0.0434,0.259,0.5869,0.7835,0.9681,1.1082,1.1082,1.2422,1.3747,1.3825,2.1112,2.7653,2.7801,2.7867,2.729,2.5375,2.5011,2.4381,2.2498,2.0601,1.8654,1.6849,1.1692,0.6213,0.0733,-0.4681,-0.9358,-1.3012,-1.495,-1.6689,-1.8448,-1.864,-2.0157,-2.345,-2.3683,-2.4254,-2.5261,-2.5347,-2.5001,-2.431,-2.1291,-1.9859,-1.9891,-1.9668,-1.9479,2.7072,0.0,0.0,0.0,0.0,0.0,3.3507,3.5403,3.7362,4.0224,4.1279,4.2007,4.3212,0.0,0.0,0.0,0.0,0.0,0.0,0.0,0.0,0.0,0.0,0.0,0.0,0.0,0.0,0.0,4.3062,4.2836,4.2836,4.2308,4.1902,4.1806,4.1656,4.1555,4.1555,4.1351,4.1275,4.1275,4.1275,4.1275,4.1275,4.1275,4.0785,3.9982,3.9982,3.9419,3.857,3.8813,3.7903,3.6295,3.4674,3.3776,3.2956,2.9474,2.8163,2.7768,2.4655,2.3542,2.2916,1.9772,1.5144,0.987,0.5059,0.0359,-0.3184,-0.2312,-0.1369,-0.0072,0.1868,0.2798,0.3152,0.3152,0.4556,0.6304,0.7747,1.115,1.5119,1.9082,1.9872,1.9737,1.9184,1.9117,1.8463,1.6629,1.4809,1.2518,0.9352,0.4187,-0.0812,-0.5031,-0.9207,-1.3153,-1.6753,-1.7496,-1.85,-2.0259,-2.1497,-2.2625,-2.3574,-2.5572,-2.6211,-2.532,-2.5973,-2.5668,-2.431,-2.2369,-2.1844,-2.2689,-2.2652,-2.2589,2.637,2.6784,2.7704,2.7954,0.0,0.0,3.1662,3.3068,3.4625,0.0,3.9094,3.9898,4.1354,0.0,0.0,0.0,0.0,0.0,0.0,0.0,0.0,0.0,0.0,0.0,0.0,4.2911,4.2635,4.2308,4.2007,4.1806,4.1806,4.1505,4.1275,4.1275,4.1075,4.1003,4.1003,4.0724,4.0308,3.9726,3.9726,3.9404,3.8785,3.8785,3.8445,3.7859,3.7859,3.711,3.5961,3.6413,3.6118,3.5139,3.3689,3.3164,3.2724,2.9422,2.8163,2.7569,2.3215,2.1177,1.9623,1.5095,1.0223,0.5177,0.0572,-0.3675,-0.6745,-0.564,-0.4771,-0.3833,-0.2742,-0.2372,-0.2362,-0.2362,-0.1491,-0.0282,0.0847,0.1958,0.4848,1.201,1.3423,1.289,1.1363,1.1091,1.0506,0.8636,0.6126,0.3462,0.0603,-0.3895,-0.82,-1.1805,-1.4155,-1.6514,-1.9355,-1.961,-2.0309,-2.2027,-2.3076,-2.4117,-2.5303,-2.6957,-2.7495,-2.6792,-2.7343,-2.6791,-2.5035,-2.3513,-2.3117,-2.3822,-2.3822,-2.4156,2.6266,2.6515,2.762,0.0,0.0,0.0,3.1989,3.234,3.2641,0.0,3.681,3.7538,3.8743,3.8668,0.0,0.0,0.0,0.0,0.0,0.0,0.0,0.0,0.0,0.0,4.2162,4.163,4.1275,4.1275,4.1225,4.1175,4.11,4.11,4.11,4.11,4.0676,4.0425,4.0425,3.9767,3.8792,3.753,3.7346,3.6541,3.5288,3.5288,3.5479,3.577,3.577,3.5106,3.4118,3.4118,3.4181,3.4129,3.3152,3.2591,3.2114,2.9168,2.7851,2.6764,2.15,1.8218,1.5338,0.9801,0.5195,0.0927,-0.4443,-0.7415,-0.8955,-0.8955,-0.7729,-0.6433,-0.6433,-0.6305,-0.6249,-0.6249,-0.6122,-0.5997,-0.5789,-0.5851,-0.3534,0.4971,0.6932,0.6141,0.2665,0.2051,0.1301,-0.0825,-0.3913,-0.6617,-0.8411,-1.1629,-1.4997,-1.8127,-1.8704,-1.9419,-2.0982,-2.1082,-2.1734,-2.339,-2.367,-2.4951,-2.7602,-2.7839,-2.8256,-2.8871,-2.8867,-2.8036,-2.6318,-2.4986,-2.4211,-2.4044,-2.4211,-2.5078,2.7213,2.7118,2.7278,2.7178,0.0,0.0,2.7193,2.8097,2.9352,0.0,3.1662,3.2541,3.4073,3.5002,0.0,0.0,0.0,0.0,0.0,0.0,0.0,0.0,0.0,0.0,4.1505,4.1351,4.1275,4.1275,4.0874,4.0475,4.0049,4.0023,4.0023,4.0023,3.9898,3.9848,3.9848,3.8579,3.7796,3.7477,3.6271,3.5563,3.5288,3.5288,3.4725,3.3713,3.3713,3.2887,3.1582,3.1582,3.1999,3.2633,3.2368,3.1512,3.0036,2.8035,2.5572,2.2649,1.8697,1.424,0.9611,0.5473,0.0486,-0.4321,-0.7008,-0.9201,-1.0683,-1.0683,-1.0474,-1.0119,-1.0119,-1.0101,-1.0083,-1.0083,-1.0058,-0.9625,-0.809,-0.8823,-0.9199,-0.7193,-0.4527,-0.332,-0.5447,-0.579,-0.6859,-1.0088,-1.1161,-1.2257,-1.4045,-1.6128,-1.7765,-1.8448,-1.9737,-2.0716,-2.1046,-2.0895,-2.1431,-2.2941,-2.4042,-2.5445,-2.719,-2.8146,-2.8752,-2.8926,-2.8594,-2.8252,-2.7853,-2.7565,-2.6825,-2.5663,-2.6879,-2.7941,2.8398,2.8323,2.8473,2.8234,0.0,0.0,0.0,2.7268,2.7846,2.9804,2.9754,2.9955,3.1888,0.0,3.2441,0.0,0.0,0.0,0.0,0.0,0.0,0.0,0.0,0.0,4.0099,3.9848,3.962,3.962,3.9421,3.9145,3.8868,3.8843,3.8843,3.8843,3.8843,3.854,3.7878,3.7108,3.6156,3.4962,3.4197,3.3574,3.3098,3.3098,3.2701,3.1977,3.1977,3.1594,3.0898,3.0898,3.1152,3.1543,3.1758,3.0831,2.8985,2.566,2.2863,1.9776,1.352,0.8911,0.5018,0.0344,-0.3735,-0.723,-0.9129,-1.0461,-1.1234,-1.1234,-1.1234,-1.1234,-1.1234,-1.1111,-1.1056,-1.1056,-1.0995,-1.0934,-1.084,-1.1502,-1.2301,-1.3079,-1.1807,-1.092,-1.1777,-1.1911,-1.2547,-1.4256,-1.5296,-1.6179,-1.7087,-1.8586,-1.96,-1.96,-2.0908,-2.1826,-2.1826,-2.2326,-2.3351,-2.4897,-2.5652,-2.6632,-2.7921,-2.8584,-2.8828,-2.8613,-2.8398,-2.8301,-2.8301,-2.868,-2.8292,-2.7203,-2.8397,-2.9095,0.0,0.0,0.0,0.0,0.0,2.806,0.0,0.0,0.0,2.9252,0.0,0.0,0.0,0.0,0.0,0.0,0.0,0.0,0.0,0.0,0.0,0.0,0.0,0.0,0.0,3.7864,3.7663,3.799,3.7713,3.7663,3.799,3.8015,3.8015,3.8015,3.8015,3.7369,3.5985,3.573,3.4464,3.2293,3.1982,3.1426,3.0644,3.0644,3.0644,3.0644,3.0644,3.0684,3.0762,3.0762,3.0626,3.043,3.0757,2.9481,2.6912,2.2286,1.8918,1.5534,0.7521,0.3273,0.0547,-0.4324,-0.7172,-0.9068,-1.0659,-1.1077,-1.1145,-1.1481,-1.1351,-1.1214,-1.1549,-1.126,-1.084,-1.084,-1.0812,-1.1174,-1.2931,-1.3578,-1.4297,-1.6043,-1.6689,-1.6818,-1.6431,-1.6366,-1.6485,-1.6765,-1.8047,-1.8991,-1.9247,-2.0322,-2.1129,-2.1422,-2.2332,-2.2944,-2.2944,-2.397,-2.5333,-2.69,-2.6942,-2.7493,-2.8754,-2.8789,-2.8633,-2.8301,-2.8301,-2.8349,-2.8516,-2.9157,-2.9178,-2.8569,-2.9362,-2.9799,0.0,0.0,0.0,0.0,2.9367,0.0,0.0,0.0,2.7595,2.6414,0.0,0.0,0.0,0.0,0.0,0.0,0.0,0.0,0.0,0.0,0.0,0.0,0.0,0.0,0.0,3.6157,3.6386,3.7889,3.6611,3.6411,3.7939,3.8015,3.8015,3.8015,3.8015,3.7369,3.5985,3.4699,3.3303,3.1831,3.0555,2.9892,2.9783,2.9783,2.9783,2.9783,2.9783,2.9922,3.0273,3.0273,2.9659,2.8664,2.8719,2.5836,2.119,1.7639,1.2307,0.6271,0.2047,-0.1592,-0.4806,-0.6973,-0.894,-1.0498,-1.0705,-1.0772,-1.1098,-1.26,-1.1946,-1.1098,-1.2666,-1.1873,-1.0744,-1.0744,-1.0731,-1.1174,-1.2931,-1.4493,-1.6108,-1.7859,-1.9483,-2.0005,-1.8448,-1.818,-1.8621,-1.9938,-2.0335,-2.0862,-2.1896,-2.2198,-2.2826,-2.4098,-2.4343,-2.4444,-2.4444,-2.4384,-2.5003,-2.645,-2.6333,-2.6828,-2.8306,-2.8359,-2.834,-2.8301,-2.8301,-2.8668,-2.9362,-2.9453,-2.9453,-2.9393,-3.0209,-3.0956,0.0,0.0,0.0,0.0,0.0,0.0,2.6037,0.0,2.6189,0.0,0.0,0.0,0.0,0.0,0.0,0.0,0.0,0.0,0.0,0.0,0.0,0.0,0.0,0.0,0.0,0.0,0.0,0.0,3.3247,3.3808,3.5085,3.6051,3.6734,3.7036,3.7061,3.6015,3.3876,3.3266,3.1949,3.0092,2.951,2.9336,2.9626,2.9626,2.9626,2.9626,2.9626,2.9668,2.9824,2.9824,2.9051,2.7472,2.4671,2.1843,1.8662,1.3046,0.7946,0.2907,-0.2714,-0.5653,-0.7208,-0.8967,-1.0763,-1.2215,-1.2215,-1.2215,-1.2545,-1.4297,-1.4297,-1.3643,-1.339,-1.3513,-1.3456,-1.2479,-1.2997,-1.4166,-1.5913,-1.6786,-1.7707,-1.9437,-2.0211,-2.0341,-1.9585,-1.965,-1.9925,-2.0332,-2.1194,-2.1925,-2.2438,-2.3114,-2.3805,-2.4425,-2.5082,-2.5527,-2.5527,-2.6167,-2.6866,-2.7505,-2.7444,-2.7672,-2.8281,-2.8301,-2.8184,-2.793,-2.8625,-2.9055,-2.9086,-3.0317,-3.1219,-3.1809,-3.2155,-3.2512,2.7978,0.0,0.0,0.0,0.0,0.0,0.0,0.0,0.0,0.0,0.0,0.0,0.0,0.0,0.0,0.0,0.0,0.0,0.0,0.0,0.0,0.0,0.0,0.0,0.0,0.0,0.0,0.0,0.0,3.1172,3.2783,3.4259,3.5403,3.6107,3.5777,3.4558,3.2331,3.1927,3.0735,2.875,2.875,2.8906,2.9219,2.9219,2.9439,2.9749,2.9384,2.9553,2.9928,2.9561,2.8296,2.6151,2.1274,1.7729,1.46,0.7996,0.3128,-0.1055,-0.6792,-0.8745,-0.8981,-1.0709,-1.2115,-1.3237,-1.3617,-1.3746,-1.4134,-1.5859,-1.5987,-1.5475,-1.4704,-1.5026,-1.5347,-1.4069,-1.4714,-1.6115,-1.7909,-1.8085,-1.8467,-2.024,-2.0374,-2.0214,-2.0134,-2.0361,-2.0577,-2.0676,-2.1637,-2.2644,-2.3372,-2.4269,-2.5121,-2.5869,-2.6427,-2.6861,-2.722,-2.7868,-2.8441,-2.8794,-2.9197,-2.9347,-2.9172,-2.9172,-2.8969,-2.8523,-2.9396,-2.9792,-2.964,-3.1159,-3.2564,-3.3835,-3.3835,-3.4007,0.0,0.0,0.0,2.6113,0.0,0.0,0.0,0.0,2.7102,0.0,0.0,0.0,0.0,0.0,0.0,2.5737,0.0,0.0,0.0,0.0,0.0,0.0,0.0,0.0,0.0,0.0,0.0,0.0,0.0,0.0,3.207,3.3321,3.4449,3.5483,3.429,3.3186,3.2331,3.103,2.967,2.832,2.832,2.832,2.834,2.834,2.9046,3.0214,2.8887,2.934,3.0829,2.947,2.7343,2.4496,1.9516,1.3676,0.7426,0.2109,-0.3109,-0.7757,-0.9864,-1.0557,-1.0688,-1.229,-1.2808,-1.2972,-1.4466,-1.4965,-1.5339,-1.7083,-1.6331,-1.5401,-1.7022,-1.6269,-1.5027,-1.4965,-1.4965,-1.5525,-1.7268,-1.7637,-1.8129,-1.9876,-2.0241,-2.0147,-1.9867,-2.0054,-2.0602,-2.1788,-2.1963,-2.2996,-2.5624,-2.6009,-2.7077,-2.9807,-2.9006,-2.8741,-3.0047,-2.9006,-2.8847,-3.0172,-3.1469,-3.1929,-3.1389,-3.1367,-3.1145,-3.0607,-3.0656,-3.1031,-3.1803,-3.1871,-3.2838,-3.4635,-3.4635,-3.5183,0.0,0.0,2.5013,2.4277,0.0,0.0,0.0,0.0,0.0,0.0,0.0,0.0,0.0,0.0,2.6055,2.5661,2.4821,0.0,0.0,0.0,0.0,0.0,0.0,0.0,0.0,0.0,0.0,0.0,2.4832,0.0,0.0,3.0077,3.1409,3.2112,3.1946,3.1285,3.0134,2.9973,2.9219,2.7943,2.8164,2.8301,2.8301,2.8301,2.8548,2.8953,2.8495,2.8627,2.9173,2.8711,2.6152,2.2021,1.5986,0.9137,0.2125,-0.1757,-0.5747,-0.9659,-1.2537,-1.4295,-1.5117,-1.449,-1.5067,-1.6062,-1.6556,-1.6741,-1.7061,-1.8863,-1.8924,-1.83,-1.7737,-1.7994,-1.8178,-1.6988,-1.7614,-1.8606,-1.9168,-1.9149,-1.9488,-2.1081,-2.1262,-2.1437,-2.228,-2.2528,-2.2387,-2.1822,-2.3424,-2.5069,-2.6009,-2.7756,-2.9242,-3.0203,-3.0669,-3.1133,-3.1571,-3.1214,-3.0982,-3.1083,-3.149,-3.1538,-3.0998,-3.0975,-3.073,-3.0239,-3.1041,-3.1505,-3.144,-3.3003,-3.4434,-3.5694,-3.6436,-3.6905,2.2757,2.289,0.0,2.2934,2.2499,0.0,2.2029,0.0,0.0,0.0,0.0,0.0,0.0,0.0,0.0,2.4915,2.3708,0.0,0.0,1.8067,0.0,0.0,0.0,0.0,0.0,0.0,2.1011,2.1212,2.222,0.0,0.0,0.0,2.9195,3.0076,3.0027,2.9683,2.8992,2.8805,2.8329,2.7441,2.7715,2.8042,2.8493,2.8493,2.8813,2.9424,2.8923,2.8813,2.8953,2.7941,2.4737,1.9836,1.2783,0.5253,-0.208,-0.5447,-0.8842,-1.2097,-1.4241,-1.57,-1.6486,-1.5934,-1.6492,-1.7588,-1.8706,-1.9005,-1.9363,-2.0993,-2.148,-2.123,-2.0123,-2.0611,-2.1171,-2.0064,-2.067,-2.148,-2.148,-2.1321,-2.151,-2.246,-2.2518,-2.2702,-2.3654,-2.4267,-2.4322,-2.3319,-2.5281,-2.6985,-2.7542,-2.9588,-3.1345,-3.2264,-3.2359,-3.2392,-3.2563,-3.3033,-3.3238,-3.3055,-3.3525,-3.3516,-3.2983,-3.2959,-3.2738,-3.2204,-3.2978,-3.3287,-3.2953,-3.4515,-3.5762,-3.676,-3.7472,-3.7878]},{"header":{"parameterUnit":"m.s-1","parameterCategory":1,"la1":30.6,"la2":29.2853,"lo1":-89.7004,"lo2":-87.6739,"dy":0.0162,"dx":0.0183,"nx":112,"ny":82,"refTime":"2026-05-01T12:00:00:Z","depth":0,"parameterNumber":3,"parameterNumberName":"V-component_of_WINDS"},"data":[0.0,0.0,0.0,0.0,0.0,0.0,0.0,0.0,0.0,0.0,0.0,0.0,0.0,0.0,0.0,0.0,0.0,0.0,0.0,0.0,0.0,0.0,0.0,0.0,0.0,0.0,0.0,0.0,0.0,0.0,0.0,0.0,0.0,0.0,0.0,0.0,0.0,0.0,0.0,0.0,0.0,0.0,0.0,0.0,0.0,0.0,0.0,0.0,0.0,0.0,0.0,0.0,0.0,0.0,0.0,0.0,0.0,0.0,0.0,0.0,0.0,0.0,0.0,0.0,0.0,0.0,0.0,0.0,0.0,0.0,0.0,0.0,0.0,0.0,0.0,0.0,0.0,0.0,0.0,0.0,0.0,0.0,0.0,0.0,0.0,0.0,0.0,0.0,0.0,0.0,0.0,3.319,3.9991,4.4656,4.5385,4.6157,4.4108,3.8125,0.0,0.0,0.0,0.0,0.0,0.0,0.0,0.0,0.0,0.0,0.0,0.0,0.0,0.0,0.0,0.0,0.0,0.0,0.0,0.0,0.0,0.0,0.0,0.0,0.0,0.0,0.0,0.0,0.0,0.0,0.0,0.0,0.0,0.0,0.0,0.0,0.0,0.0,0.0,0.0,0.0,0.0,0.0,0.0,0.0,0.0,0.0,0.0,0.0,0.0,0.0,0.0,0.0,0.0,0.0,0.0,0.0,0.0,0.0,0.0,0.0,0.0,0.0,0.0,0.0,0.0,0.0,0.0,0.0,0.0,0.0,0.0,0.0,0.0,0.0,0.0,0.0,0.0,0.0,0.0,0.0,0.0,0.0,0.0,0.0,0.0,0.0,0.0,0.0,0.0,0.0,0.0,0.0,0.0,0.0,0.0,0.0,0.0,0.0,0.0,0.0,0.0,0.0,0.0,3.2711,3.9337,4.4939,4.8123,4.7815,4.6923,4.4734,4.0927,0.0,0.0,0.0,0.0,0.0,0.0,0.0,0.0,0.0,0.0,0.0,0.0,0.0,0.0,0.0,0.0,0.0,0.0,0.0,0.0,0.0,0.0,0.0,0.0,0.0,0.0,0.0,0.0,0.0,0.0,0.0,0.0,0.0,0.0,0.0,0.0,0.0,0.0,0.0,0.0,0.0,0.0,0.0,0.0,0.0,0.0,0.0,0.0,0.0,0.0,0.0,0.0,0.0,0.0,0.0,0.0,0.0,0.0,0.0,0.0,0.0,0.0,0.0,0.0,0.0,0.0,0.0,0.0,0.0,0.0,0.0,0.0,0.0,0.0,0.0,0.0,0.0,0.0,0.0,0.0,0.0,0.0,0.0,0.0,0.0,0.0,0.0,0.0,0.0,0.0,0.0,0.0,0.0,0.0,0.0,0.0,0.0,0.0,0.0,0.0,0.0,0.0,0.0,3.3733,3.7128,4.4478,4.7563,4.919,4.9438,4.778,4.507,4.1075,3.8517,0.0,0.0,0.0,0.0,0.0,0.0,0.0,0.0,0.0,0.0,0.0,0.0,0.0,0.0,0.0,0.0,0.0,0.0,0.0,0.0,0.0,0.0,0.0,0.0,0.0,0.0,0.0,0.0,0.0,0.0,0.0,0.0,0.0,0.0,0.0,0.0,0.0,0.0,0.0,0.0,0.0,0.0,0.0,0.0,0.0,0.0,0.0,0.0,0.0,0.0,0.0,0.0,0.0,0.0,0.0,0.0,0.0,0.0,0.0,0.0,0.0,0.0,0.0,0.0,0.0,0.0,0.0,0.0,0.0,0.0,0.0,0.0,0.0,0.0,0.0,0.0,0.0,0.0,0.0,0.0,0.0,0.0,0.0,0.0,0.0,0.0,0.0,0.0,0.0,0.0,0.0,0.0,0.0,0.0,0.0,0.0,0.0,0.0,0.0,0.0,0.0,0.0,3.8888,4.2096,4.7898,4.9187,4.9772,5.0187,4.7732,4.4493,4.0576,3.7337,0.0,0.0,0.0,0.0,0.0,0.0,0.0,0.0,0.0,0.0,0.0,0.0,0.0,0.0,0.0,0.0,0.0,0.0,0.0,0.0,0.0,0.0,0.0,0.0,0.0,0.0,0.0,0.0,0.0,0.0,0.0,0.0,0.0,0.0,0.0,0.0,0.0,0.0,0.0,0.0,0.0,0.0,0.0,0.0,0.0,0.0,0.0,0.0,0.0,0.0,0.0,0.0,0.0,0.0,0.0,0.0,0.0,0.0,0.0,0.0,0.0,0.0,0.0,0.0,0.0,0.0,0.0,0.0,0.0,0.0,0.0,0.0,0.0,0.0,0.0,0.0,0.0,0.0,0.0,0.0,0.0,0.0,0.0,0.0,0.0,0.0,0.0,0.0,0.0,0.0,0.0,0.0,0.0,0.0,0.0,0.0,0.0,0.0,0.0,0.0,0.0,0.0,4.2713,4.6922,4.8341,5.0081,5.0738,4.9741,4.5723,4.2258,3.9898,3.5705,0.0,0.0,0.0,0.0,0.0,0.0,0.0,0.0,0.0,0.0,0.0,0.0,0.0,0.0,0.0,0.0,0.0,0.0,0.0,0.0,0.0,0.0,0.0,0.0,0.0,0.0,0.0,0.0,0.0,0.0,0.0,0.0,0.0,0.0,0.0,0.0,0.0,0.0,0.0,0.0,0.0,0.0,0.0,0.0,0.0,0.0,0.0,0.0,0.0,0.0,0.0,0.0,0.0,0.0,0.0,0.0,0.0,0.0,0.0,0.0,0.0,0.0,0.0,0.0,0.0,0.0,0.0,0.0,0.0,0.0,0.0,0.0,0.0,0.0,0.0,0.0,0.0,0.0,0.0,0.0,0.0,0.0,0.0,0.0,0.0,0.0,0.0,0.0,0.0,0.0,0.0,0.0,0.0,0.0,0.0,0.0,0.0,0.0,0.0,0.0,0.0,0.0,4.2364,4.6093,0.0,5.0323,5.0293,4.9163,4.6301,4.3011,3.9421,0.0,0.0,0.0,0.0,0.0,0.0,0.0,0.0,0.0,0.0,0.0,0.0,0.0,0.0,0.0,0.0,0.0,0.0,0.0,0.0,0.0,0.0,0.0,0.0,0.0,0.0,0.0,0.0,0.0,0.0,0.0,0.0,0.0,0.0,0.0,0.0,0.0,0.0,0.0,0.0,0.0,0.0,0.0,0.0,0.0,0.0,0.0,0.0,0.0,0.0,0.0,0.0,0.0,0.0,0.0,0.0,0.0,0.0,0.0,0.0,0.0,0.0,0.0,0.0,0.0,0.0,0.0,0.0,0.0,0.0,0.0,0.0,0.0,0.0,0.0,0.0,0.0,0.0,0.0,0.0,0.0,0.0,0.0,0.0,0.0,0.0,0.0,0.0,0.0,0.0,0.0,0.0,0.0,0.0,0.0,0.0,0.0,0.0,0.0,0.0,0.0,0.0,3.971,4.3228,4.666,0.0,5.0695,5.0243,4.9138,4.6677,4.3388,3.9196,0.0,0.0,0.0,0.0,0.0,0.0,0.0,0.0,0.0,0.0,0.0,0.0,0.0,0.0,0.0,0.0,0.0,0.0,0.0,0.0,0.0,0.0,0.0,0.0,0.0,0.0,0.0,0.0,0.0,0.0,0.0,0.0,0.0,0.0,0.0,0.0,0.0,0.0,0.0,0.0,0.0,0.0,0.0,0.0,0.0,0.0,0.0,0.0,0.0,0.0,0.0,0.0,0.0,0.0,0.0,0.0,0.0,0.0,0.0,0.0,0.0,0.0,0.0,0.0,0.0,0.0,0.0,0.0,0.0,0.0,0.0,0.0,0.0,0.0,0.0,0.0,0.0,0.0,0.0,0.0,0.0,0.0,0.0,0.0,0.0,0.0,0.0,0.0,0.0,0.0,0.0,0.0,0.0,0.0,0.0,0.0,0.0,0.0,0.0,0.0,0.0,0.0,4.1672,4.6109,4.9439,5.1096,5.1272,5.082,4.969,4.6552,4.2986,0.0,0.0,0.0,0.0,0.0,0.0,0.0,0.0,0.0,0.0,0.0,0.0,0.0,0.0,0.0,0.0,0.0,0.0,0.0,0.0,0.0,0.0,0.0,0.0,0.0,0.0,0.0,0.0,0.0,0.0,0.0,0.0,0.0,0.0,0.0,0.0,0.0,0.0,0.0,0.0,0.0,0.0,0.0,0.0,0.0,0.0,0.0,0.0,0.0,0.0,0.0,0.0,0.0,0.0,0.0,0.0,0.0,0.0,0.0,0.0,0.0,0.0,0.0,0.0,0.0,0.0,0.0,0.0,0.0,0.0,0.0,0.0,0.0,0.0,0.0,0.0,0.0,0.0,0.0,0.0,0.0,0.0,0.0,0.0,0.0,0.0,0.0,0.0,0.0,0.0,0.0,0.0,0.0,0.0,0.0,0.0,0.0,0.0,0.0,0.0,0.0,0.0,0.0,4.1907,4.6702,5.0268,5.1197,5.1272,5.0971,5.0243,4.7857,4.4418,3.9747,0.0,0.0,0.0,0.0,0.0,0.0,0.0,0.0,0.0,0.0,0.0,0.0,0.0,0.0,0.0,0.0,0.0,0.0,0.0,0.0,0.0,0.0,0.0,0.0,0.0,0.0,0.0,0.0,0.0,0.0,0.0,0.0,0.0,0.0,0.0,0.0,0.0,0.0,0.0,0.0,0.0,0.0,0.0,0.0,0.0,0.0,0.0,0.0,0.0,0.0,0.0,0.0,0.0,0.0,0.0,0.0,0.0,0.0,0.0,0.0,0.0,0.0,0.0,0.0,0.0,0.0,0.0,0.0,0.0,0.0,0.0,0.0,0.0,0.0,0.0,0.0,0.0,0.0,0.0,0.0,0.0,0.0,0.0,0.0,0.0,0.0,0.0,0.0,0.0,0.0,0.0,0.0,0.0,0.0,0.0,0.0,0.0,0.0,0.0,0.0,0.0,0.0,4.1986,4.6979,5.072,5.1523,5.1423,5.1147,5.0795,4.8937,4.5648,4.0651,0.0,0.0,0.0,0.0,0.0,0.0,0.0,0.0,0.0,0.0,0.0,0.0,0.0,0.0,0.0,0.0,0.0,0.0,0.0,0.0,0.0,0.0,0.0,0.0,0.0,0.0,0.0,0.0,0.0,0.0,0.0,0.0,0.0,0.0,0.0,0.0,0.0,0.0,0.0,0.0,0.0,0.0,0.0,0.0,0.0,0.0,0.0,0.0,0.0,0.0,0.0,0.0,0.0,0.0,0.0,0.0,0.0,0.0,0.0,0.0,0.0,0.0,0.0,0.0,0.0,0.0,0.0,0.0,0.0,0.0,0.0,0.0,0.0,0.0,0.0,0.0,0.0,0.0,0.0,0.0,0.0,0.0,0.0,0.0,0.0,0.0,0.0,0.0,0.0,0.0,0.0,0.0,0.0,0.0,0.0,0.0,0.0,0.0,0.0,0.0,0.0,0.0,4.2087,4.7154,5.1046,5.2076,5.1724,5.1423,5.1373,4.9866,4.6828,4.1827,0.0,0.0,0.0,0.0,0.0,0.0,0.0,0.0,0.0,0.0,0.0,0.0,0.0,0.0,0.0,0.0,0.0,0.0,0.0,0.0,0.0,0.0,0.0,0.0,0.0,0.0,0.0,0.0,0.0,0.0,0.0,0.0,0.0,0.0,0.0,0.0,0.0,0.0,0.0,0.0,0.0,0.0,0.0,0.0,0.0,0.0,0.0,0.0,0.0,0.0,0.0,0.0,0.0,0.0,0.0,0.0,0.0,0.0,0.0,0.0,3.7971,0.0,0.0,0.0,0.0,0.0,0.0,0.0,0.0,0.0,0.0,0.0,0.0,0.0,0.0,0.0,0.0,0.0,0.0,0.0,0.0,0.0,0.0,0.0,0.0,0.0,0.0,0.0,0.0,0.0,0.0,0.0,0.0,0.0,0.0,0.0,0.0,0.0,0.0,0.0,0.0,0.0,4.2635,4.841,5.2477,5.2729,5.2653,5.2402,5.1975,5.0795,4.8134,4.3564,0.0,0.0,0.0,0.0,0.0,0.0,0.0,0.0,0.0,0.0,0.0,0.0,0.0,0.0,0.0,0.0,0.0,0.0,0.0,0.0,0.0,0.0,0.0,0.0,0.0,0.0,0.0,0.0,0.0,0.0,0.0,0.0,0.0,0.0,0.0,0.0,0.0,0.0,0.0,0.0,0.0,0.0,0.0,0.0,0.0,0.0,0.0,0.0,0.0,0.0,0.0,0.0,0.0,0.0,0.0,0.0,0.0,0.0,0.0,0.0,0.0,3.5652,0.0,0.0,0.0,0.0,0.0,0.0,0.0,0.0,0.0,0.0,0.0,0.0,0.0,0.0,0.0,0.0,0.0,0.0,0.0,0.0,0.0,0.0,0.0,0.0,0.0,0.0,0.0,0.0,0.0,0.0,0.0,0.0,0.0,0.0,0.0,0.0,0.0,0.0,0.0,0.0,4.3187,4.8962,5.2929,5.2929,5.2452,5.2126,5.2101,5.0569,4.8309,4.5196,4.1656,0.0,0.0,0.0,0.0,0.0,0.0,0.0,0.0,0.0,0.0,0.0,0.0,0.0,0.0,0.0,0.0,0.0,0.0,0.0,0.0,0.0,0.0,0.0,0.0,0.0,0.0,0.0,0.0,0.0,0.0,0.0,0.0,0.0,0.0,0.0,0.0,0.0,0.0,0.0,0.0,0.0,0.0,0.0,0.0,0.0,0.0,0.0,0.0,0.0,0.0,0.0,0.0,0.0,0.0,5.132,4.8629,4.8715,4.7257,4.459,4.2168,3.8713,3.4572,0.0,0.0,0.0,0.0,0.0,0.0,0.0,0.0,0.0,0.0,0.0,0.0,0.0,0.0,0.0,0.0,0.0,0.0,0.0,0.0,0.0,0.0,0.0,0.0,0.0,3.7919,3.925,0.0,0.0,0.0,0.0,0.0,0.0,0.0,0.0,0.0,0.0,0.0,0.0,4.3865,4.9188,5.2779,5.2779,5.1975,5.1523,5.1774,5.0218,4.841,4.6577,4.3162,3.9772,0.0,0.0,0.0,0.0,0.0,0.0,0.0,0.0,0.0,0.0,0.0,0.0,0.0,0.0,0.0,0.0,0.0,0.0,0.0,0.0,0.0,0.0,0.0,0.0,0.0,0.0,0.0,0.0,0.0,0.0,0.0,0.0,4.7043,4.6922,0.0,0.0,0.0,0.0,0.0,0.0,0.0,0.0,0.0,0.0,0.0,0.0,0.0,0.0,4.8361,5.2518,5.56,5.771,6.1911,6.117,5.5931,5.642,5.3724,4.8769,4.875,0.0,3.9422,3.8948,0.0,0.0,0.0,0.0,0.0,0.0,0.0,0.0,0.0,0.0,0.0,0.0,0.0,0.0,0.0,0.0,0.0,0.0,0.0,0.0,0.0,0.0,3.9465,4.1266,4.2009,4.2956,0.0,4.1649,3.7708,3.6744,0.0,0.0,0.0,0.0,0.0,0.0,0.0,0.0,4.4995,4.9339,5.2226,5.2226,5.2076,5.1624,5.072,5.082,4.9816,4.7179,4.5171,4.2811,3.9973,3.6257,0.0,0.0,0.0,0.0,0.0,0.0,0.0,0.0,0.0,0.0,0.0,0.0,0.0,0.0,0.0,0.0,0.0,0.0,0.0,0.0,0.0,0.0,0.0,0.0,0.0,0.0,0.0,0.0,0.0,4.6192,4.7925,4.5651,4.7371,4.6693,0.0,0.0,0.0,0.0,0.0,0.0,0.0,0.0,0.0,4.5605,4.7834,5.092,5.4829,5.8304,6.132,6.3814,6.5692,6.3916,5.8993,5.9195,5.6384,5.1308,5.1269,4.9525,4.6367,4.3056,3.9477,3.6219,0.0,0.0,0.0,0.0,0.0,4.5988,4.4914,4.3735,0.0,0.0,0.0,0.0,0.0,0.0,0.0,0.0,0.0,0.0,0.0,0.0,0.0,4.5001,4.6786,4.7954,4.8825,4.753,4.5278,0.0,4.1106,3.9697,3.5809,0.0,0.0,0.0,0.0,0.0,4.6175,4.9464,5.1649,5.1649,5.1348,5.1096,5.0921,5.0544,4.969,4.8159,4.6502,4.4468,4.2007,3.9069,3.6031,0.0,0.0,0.0,0.0,0.0,0.0,0.0,0.0,0.0,0.0,0.0,0.0,0.0,0.0,0.0,0.0,0.0,0.0,0.0,0.0,0.0,0.0,0.0,0.0,0.0,0.0,0.0,0.0,4.7918,4.8874,4.5714,4.8661,4.8162,0.0,0.0,0.0,0.0,0.0,0.0,4.4648,4.5879,4.7839,5.0597,5.3395,5.7011,6.1458,6.3449,6.5833,6.8622,6.807,6.5753,6.1774,6.1002,5.8224,5.3807,5.2699,5.1933,5.1075,4.6413,4.3056,4.0961,4.213,4.3595,4.5582,4.9014,5.0232,5.0213,4.9624,4.8366,4.6287,4.2239,0.0,3.8242,3.5449,0.0,0.0,0.0,0.0,3.7246,4.179,4.335,4.4605,4.8084,5.0246,5.1511,5.1031,5.1566,5.087,0.0,4.5321,4.3313,3.8442,0.0,0.0,0.0,0.0,4.5648,4.733,4.9615,5.1046,5.1046,5.067,5.0544,5.082,5.0218,4.9439,4.8611,4.7405,4.5723,4.3489,4.1555,3.8843,3.5253,0.0,0.0,0.0,0.0,0.0,0.0,0.0,0.0,0.0,0.0,0.0,0.0,0.0,0.0,0.0,0.0,0.0,0.0,0.0,0.0,0.0,0.0,0.0,0.0,0.0,0.0,0.0,0.0,0.0,5.0386,5.3265,0.0,0.0,0.0,0.0,4.583,4.6709,4.7812,4.9141,5.1172,5.3964,5.7529,5.8132,6.1151,6.6702,6.6916,6.8313,7.0907,7.0355,6.8746,6.6014,6.3035,5.997,5.6815,5.3906,5.2207,5.1289,4.936,4.8034,4.7198,4.7835,4.8979,5.0456,5.2552,5.4645,5.5931,5.1922,5.03,4.9494,4.6357,4.3379,4.082,3.9844,3.8086,0.0,0.0,4.1264,4.2621,4.5694,4.7113,4.8339,5.0804,5.1507,5.197,5.3267,5.276,5.1548,0.0,4.846,4.6778,4.389,0.0,4.3363,4.276,4.4719,4.6828,4.8485,4.9715,5.0469,5.0469,5.0444,5.0218,4.9715,5.0117,4.969,4.8058,4.7883,4.6828,4.4644,4.3438,4.148,3.8668,3.4876,0.0,0.0,0.0,0.0,0.0,0.0,0.0,0.0,0.0,0.0,0.0,0.0,0.0,0.0,0.0,0.0,0.0,0.0,0.0,0.0,0.0,0.0,0.0,0.0,0.0,0.0,0.0,0.0,4.9635,5.5205,0.0,5.0158,5.1422,5.2155,5.0899,5.0835,5.1328,5.2363,5.5306,5.7693,5.9309,6.3112,6.6141,6.8129,6.9496,7.0719,7.161,7.0706,6.8894,6.6322,6.3103,6.021,5.7514,5.4465,5.2793,5.2187,5.1289,5.1095,5.1363,5.2628,5.4046,5.553,5.7667,5.8965,5.9295,5.6301,5.4278,5.2137,4.6602,4.375,4.2486,4.2668,4.2179,4.2116,4.4495,4.5329,4.634,4.958,5.0627,5.1494,5.3937,5.4548,5.4619,5.4745,5.421,5.3306,5.2,5.0544,4.8661,4.5899,4.6602,4.6853,4.4895,4.6476,4.8234,4.9188,4.964,4.9891,4.9891,4.9891,4.9816,4.9615,4.9439,4.8812,4.7481,4.7079,4.605,4.4166,4.3363,4.1856,3.9446,3.6985,3.3671,0.0,0.0,0.0,0.0,0.0,0.0,0.0,0.0,0.0,0.0,0.0,0.0,0.0,0.0,0.0,0.0,0.0,0.0,0.0,0.0,0.0,0.0,0.0,0.0,0.0,0.0,5.342,5.1358,5.7017,5.9178,5.4215,5.6573,5.7806,5.6468,5.5447,5.5709,5.7596,5.901,6.0842,6.3104,6.6789,6.909,6.9986,7.1464,7.2188,7.2163,7.1058,6.9652,6.7855,6.3577,6.0783,5.8929,5.5085,5.3105,5.2775,5.319,5.3991,5.515,5.6087,5.7401,5.8902,6.1241,6.1893,6.1371,5.9022,5.6555,5.3727,4.8944,4.6866,4.6285,4.6656,4.6776,4.7236,4.9283,4.9881,5.0537,5.3221,5.3932,5.4352,5.5851,5.6219,5.6018,5.5265,5.4813,5.4235,5.313,5.1875,5.0293,4.8083,4.9063,4.9364,4.6954,4.8309,4.954,4.9339,4.964,4.9791,4.9615,4.959,4.959,4.959,4.8761,4.7908,4.7179,4.6075,4.4794,4.3313,4.2534,4.1204,3.917,3.6935,3.3897,3.0055,0.0,0.0,0.0,0.0,0.0,0.0,0.0,0.0,0.0,0.0,0.0,0.0,0.0,0.0,0.0,0.0,0.0,0.0,0.0,0.0,0.0,0.0,0.0,5.1029,5.3717,5.5844,5.595,5.8876,6.0539,5.9839,6.2473,6.3756,6.2443,6.0588,6.1114,6.474,6.2368,6.3463,6.9314,6.9059,7.0107,7.2621,7.274,7.274,7.2715,7.161,7.1083,7.0848,6.4596,6.1749,6.1415,5.5862,5.3225,5.2974,5.5,5.7048,5.8883,5.8367,5.9005,6.0589,6.2903,6.3324,6.2395,5.9674,5.6857,5.4328,5.3401,5.2771,5.2218,5.184,5.1683,5.2161,5.4256,5.4825,5.5169,5.6626,5.7022,5.6897,5.6344,5.6219,5.5917,5.4838,5.4587,5.426,5.3181,5.2528,5.1774,5.067,5.0946,5.0745,4.9063,5.0218,0.0,4.9038,4.9766,5.0193,4.9665,4.9565,4.954,4.9565,4.8033,4.7018,4.7018,4.4995,4.3288,4.2263,4.1128,3.9772,3.809,3.4826,3.2382,3.0748,0.0,0.0,0.0,0.0,0.0,0.0,0.0,0.0,0.0,0.0,0.0,0.0,0.0,0.0,0.0,0.0,0.0,0.0,0.0,0.0,0.0,0.0,5.8353,5.3593,5.4606,5.6418,5.7849,6.1369,6.4444,6.6547,6.7506,6.7888,6.7465,6.5242,6.43,6.5278,6.607,6.7225,6.889,7.0687,7.1931,7.274,7.274,7.274,7.2715,7.161,7.1083,7.0848,6.4596,6.1749,6.1438,5.6109,5.4644,5.5983,5.6134,5.8583,6.1933,6.102,6.1715,6.3315,6.3636,6.3324,6.2395,5.9674,5.7964,5.6571,5.4305,5.3183,5.2957,5.4012,5.4326,5.4752,5.656,5.6995,5.7047,5.7024,5.7022,5.6897,5.6344,5.6219,5.6118,5.5817,5.5139,5.4486,5.4185,5.3356,5.2477,5.1774,5.1774,5.1448,5.0167,5.072,0.0,5.0067,5.0218,5.0193,4.9665,4.8862,4.8535,4.8962,4.7129,4.5949,4.5949,4.4217,4.2886,4.2238,4.148,4.0526,3.9245,3.6358,3.449,0.0,0.0,0.0,0.0,0.0,0.0,0.0,0.0,0.0,0.0,0.0,0.0,0.0,0.0,0.0,0.0,0.0,0.0,0.0,0.0,0.0,0.0,6.1366,6.3571,5.9936,6.0079,6.1156,6.291,6.5224,6.8013,7.1198,7.1541,7.1468,7.1224,6.8767,6.784,6.9173,6.8883,6.9402,7.1078,7.2155,7.274,7.274,7.274,7.274,7.2715,7.161,7.1083,7.0941,6.5684,6.3279,0.0,5.895,5.7705,5.8577,5.9248,6.0888,0.0,0.0,0.0,0.0,0.0,6.3475,6.2934,6.1055,6.0081,5.93,5.7476,5.6442,5.6108,5.6903,5.715,5.7335,5.8324,5.8403,5.8102,5.7549,5.7223,5.6897,5.6344,5.6219,5.6143,5.5917,5.5189,5.4486,5.426,0.0,0.0,5.2503,5.2452,5.2076,5.0946,5.1473,5.1599,5.0544,5.0619,5.0569,4.9992,4.9138,4.8761,4.9088,4.7104,0.0,0.0,0.0,4.2137,4.088,4.0249,0.0,0.0,0.0,0.0,0.0,0.0,0.0,0.0,3.4114,3.3581,0.0,0.0,0.0,0.0,0.0,0.0,0.0,0.0,0.0,0.0,0.0,0.0,0.0,0.0,0.0,0.0,6.5233,6.794,6.7676,6.7702,6.8037,6.8966,6.944,7.0976,7.4232,7.4548,7.4297,7.382,7.1395,7.1224,7.4175,0.0,0.0,0.0,0.0,7.274,7.274,7.274,7.274,7.2715,7.161,7.1083,7.0941,6.723,6.5608,6.5421,6.2803,6.1351,6.1013,6.3033,6.3487,6.2912,6.2864,6.3826,6.5157,6.4078,6.3701,0.0,0.0,0.0,0.0,6.1441,6.0839,6.0236,5.9734,5.9533,5.9483,5.9483,5.9131,5.8604,5.8052,5.7474,5.6897,5.6344,5.6219,5.6068,5.5591,5.4988,5.4411,5.3909,5.3331,5.2929,5.2929,5.2929,5.2578,5.1523,5.2251,5.2377,5.0795,5.1046,5.1122,5.0494,0.0,0.0,4.9515,4.7481,4.625,4.6301,4.3815,4.1509,3.9496,3.8868,3.8316,3.7764,3.7688,3.8341,3.9798,3.9848,4.0174,4.0601,3.6031,3.4926,0.0,0.0,0.0,0.0,0.0,0.0,0.0,0.0,0.0,0.0,0.0,0.0,0.0,0.0,0.0,6.3324,6.7191,7.0047,7.0882,7.1335,7.1216,7.0261,7.0536,7.2211,7.5456,7.5327,7.5025,7.4925,7.3588,7.3115,7.3745,7.2591,0.0,7.3042,7.2841,7.274,7.274,7.274,7.274,7.2715,0.0,0.0,7.0941,6.723,6.5608,6.5421,6.2803,6.2784,6.4577,6.4097,6.4497,6.5347,6.49,6.5018,6.5157,6.4078,6.3701,6.3601,6.3023,6.2471,6.1994,6.1893,6.1165,6.0311,6.0186,5.9859,0.0,5.9483,5.9131,5.8604,5.8052,5.7474,5.6897,5.6344,5.6219,5.6168,5.6068,5.5265,5.4607,5.4411,5.3607,5.2929,5.2929,5.2929,5.2703,5.2051,5.2503,5.2653,5.1875,5.1875,5.1548,5.0519,4.9515,4.8937,4.8937,4.6903,4.5824,4.6276,4.4518,4.3288,4.2861,4.2308,4.1756,4.1257,4.0752,4.0423,4.035,4.0802,4.1304,4.1861,3.9948,3.9069,0.0,0.0,0.0,0.0,0.0,0.0,0.0,0.0,0.0,0.0,0.0,5.5164,5.7097,0.0,6.3726,6.6513,6.9275,7.1359,7.2213,7.2816,7.2865,7.2078,7.2275,7.3183,7.5078,7.5,7.4724,7.4423,7.3895,7.3594,7.3594,7.3042,7.2866,7.3142,7.2891,7.274,7.274,7.274,7.274,7.2715,7.161,7.1083,7.1033,6.8598,6.7531,6.7439,6.6166,6.6115,6.7042,6.5942,6.5679,6.6086,6.581,6.571,6.5559,6.4479,6.4078,6.3952,6.3124,6.2647,6.237,6.2094,6.1441,6.0688,6.0412,5.9935,5.9483,5.9483,5.9131,5.8604,5.8052,5.7474,5.6897,5.6344,5.6219,5.6143,5.5867,5.5139,5.4486,5.4185,5.3482,5.2929,5.2929,5.2929,5.2829,5.2553,5.2754,5.2829,5.2553,5.2277,5.1774,5.0946,5.0092,4.949,4.9213,4.7431,4.6301,4.6301,4.4995,4.4091,4.3815,4.3539,4.3263,4.2986,4.271,4.2559,4.2559,4.2805,4.3137,4.3388,4.2836,4.2283,0.0,0.0,0.0,0.0,0.0,0.0,0.0,0.0,5.2615,5.5149,5.7323,5.9483,6.1718,6.4128,6.6614,6.9175,7.0807,7.1987,7.264,7.3142,7.3393,7.3268,7.3569,7.392,7.4372,7.4322,7.4071,7.3619,7.3494,7.3418,7.3418,7.2991,7.2941,7.3418,7.2966,7.274,7.274,7.274,7.2665,7.2565,7.156,7.1033,7.0882,6.9903,6.9361,6.9336,6.9325,6.8974,6.8396,6.7392,6.6639,6.6112,6.6112,6.6112,6.5986,6.4982,6.4555,6.4329,6.335,6.2923,6.2747,6.232,6.1718,6.109,6.0638,6.0035,5.9483,5.9483,5.9131,5.8604,5.8052,5.7474,5.6897,5.6344,5.6219,5.6093,5.5641,5.5039,5.4436,5.3959,5.3356,5.2929,5.2929,5.2929,5.2929,5.2929,5.2929,5.2929,5.2929,5.2528,5.2026,5.1348,5.087,5.0268,4.949,4.8209,4.7179,4.6502,4.5623,4.4869,4.4317,4.4192,4.4141,4.4141,4.4141,4.4342,4.4794,4.5059,4.5284,4.5385,4.5521,4.5018,4.4196,4.3396,4.4282,4.6767,4.8498,5.1176,0.0,0.0,5.9751,6.2144,6.3927,6.5183,6.5509,6.6639,6.8095,6.9878,7.0732,7.1535,7.259,7.2791,7.264,7.2163,7.3418,7.4347,7.4397,7.3971,7.3669,7.3594,7.3117,7.2816,7.2816,7.2765,7.2765,7.2816,7.2765,7.274,7.274,7.274,7.2489,7.1987,7.1384,7.0832,7.033,6.9727,6.9361,6.9336,6.8924,6.8396,6.7844,6.7241,6.6639,6.6112,6.6112,6.6112,6.6036,6.5434,6.4881,6.4379,6.3802,6.3249,6.2822,6.2747,6.2044,6.1165,6.1115,6.0337,5.9483,5.9483,5.9131,5.8604,5.8052,5.7474,5.6897,5.6344,5.6219,5.6194,5.6118,5.529,5.4536,5.4486,5.3632,5.2929,5.2929,5.2929,5.2929,5.2929,5.2929,5.2929,5.2929,5.2879,5.2427,5.1398,5.1222,5.0544,4.8987,4.8686,4.8134,4.7104,4.6867,4.6602,4.605,4.5547,4.5296,4.5296,4.5296,4.5321,4.5397,4.6694,4.7617,4.8116,4.8921,4.7604,5.0107,5.0142,5.1144,5.4195,5.6651,5.9143,6.218,6.3592,6.4555,6.5835,6.7141,6.8045,6.8045,6.9225,7.0305,0.0,7.146,7.2087,7.2238,7.2238,7.1937,7.1058,7.1861,7.2615,7.2916,7.274,7.274,7.3067,7.2866,7.274,7.274,7.274,7.274,7.274,7.274,7.274,7.274,7.274,7.2439,7.1887,7.1359,7.0807,7.0255,6.9702,6.9275,6.8949,6.8723,6.812,6.7317,6.7066,6.6639,6.6112,6.6112,6.6112,6.6036,6.5484,6.5132,6.4831,6.3977,6.3525,6.3274,6.2948,6.2069,6.119,6.119,6.0387,5.9483,5.9483,5.9332,5.9056,5.8504,5.7951,5.7399,5.6821,5.6445,5.6118,5.5792,5.5114,5.4461,5.4135,5.3457,5.2929,5.2929,5.2929,5.2929,5.2929,5.2929,5.2929,5.2929,5.2929,5.2503,5.1398,5.0695,5.0017,4.9314,4.8962,4.8586,4.8109,4.7481,4.7029,4.6803,4.625,4.5974,4.5974,4.5974,4.64,4.7231,4.7843,4.8725,4.9764,5.0161,4.9582,5.3783,5.5415,5.7474,6.0487,6.3324,6.5559,6.6262,6.7066,6.7769,6.817,6.8899,6.9361,6.9361,7.0556,7.1359,7.1133,7.1887,7.2364,7.1962,7.1786,7.1209,6.9953,7.0029,7.0405,7.0958,7.141,7.1912,7.2464,7.2489,7.2565,7.2715,7.274,7.274,7.274,7.274,7.274,7.274,7.259,7.2238,7.1686,7.1108,7.0556,7.0029,6.9627,6.9225,6.8848,6.8698,6.807,6.7191,6.7041,6.6639,6.6112,6.6112,6.6112,6.6061,6.566,6.5434,6.5157,6.4228,6.3802,6.3601,6.3023,6.2069,6.119,6.119,6.0387,5.9483,5.9483,5.9483,5.9382,5.8855,5.8303,5.775,5.7173,5.662,5.6093,5.5691,5.5064,5.4436,5.4009,5.3381,5.298,5.313,5.303,5.298,5.313,5.303,5.2929,5.2929,5.2653,5.2101,5.1147,5.0167,4.959,4.959,4.9213,4.8937,4.8786,4.8033,4.7456,4.7093,4.6878,4.6602,4.6326,4.6847,4.7571,4.8474,4.9365,5.0296,5.1318,5.1753,5.1943,5.2955,5.652,6.0763,6.3023,6.566,6.797,6.9074,6.9351,6.9376,6.9311,6.9426,6.9361,6.9361,6.9928,7.048,7.1008,7.156,7.1937,7.1912,7.1435,7.0506,6.8874,6.8221,6.812,0.0,7.0179,7.1334,7.1887,7.1937,7.2163,7.269,7.274,7.274,7.274,7.274,7.274,7.274,7.2188,7.1661,7.1108,7.0556,7.0003,6.9476,6.9451,6.9336,6.9401,6.8848,6.8296,6.7744,6.7191,6.6639,6.6112,6.6112,6.6112,6.6112,6.6086,6.576,6.5208,6.463,6.4128,6.3601,6.3023,6.2069,6.119,6.119,6.0387,5.9483,5.9483,5.9483,5.9382,5.8855,5.8303,5.775,5.7173,5.662,5.6219,5.6194,5.534,5.4561,5.4607,5.3658,5.308,5.3582,5.3256,5.3105,5.3607,5.3256,5.2929,5.2929,5.2,5.1096,5.0494,4.9941,4.959,4.959,4.959,4.9339,4.8812,4.8736,4.8234,4.7179,4.7606,4.738,4.6326,4.8203,4.8942,4.8532,5.1428,5.291,5.2963,5.4406,5.5078,5.6595,6.0136,6.3701,6.6312,6.8472,7.0079,7.0455,7.0531,7.033,6.9602,6.8572,6.7693,6.7292,6.7693,6.8271,6.8823,7.028,7.1485,7.1861,7.1736,7.0732,6.8346,6.8547,0.0,0.0,0.0,0.0,7.1786,7.1912,7.2138,7.269,7.274,7.274,7.274,7.2364,7.2188,7.2188,7.1636,7.1083,7.0531,6.9978,6.9627,6.9361,6.9361,6.925,6.8874,6.8321,6.7769,6.7216,6.6639,6.6287,6.6112,6.6112,6.6112,6.6112,6.6112,6.576,6.5208,6.4655,6.4128,6.3601,6.3023,6.2069,6.119,6.119,6.0387,5.9483,5.9483,5.9483,5.9382,5.8855,5.8303,5.775,5.7173,5.662,5.6219,5.6219,5.534,5.4561,5.4561,5.3959,5.3381,5.3231,5.3331,5.3381,5.3206,5.303,5.2929,5.2929,5.1975,5.1197,5.1021,5.0167,4.959,4.959,4.959,4.9515,4.9339,4.8987,4.8611,4.8234,4.7682,4.7668,4.8288,4.8635,4.9667,5.1483,5.2509,5.3518,5.4487,5.5424,5.5837,6.0161,6.3425,6.6312,6.91,7.0732,7.156,7.1184,7.1083,7.0656,6.9175,6.7367,6.5911,6.5358,6.4906,6.5183,6.6915,6.8572,7.0079,7.1435,7.1435,7.0506,6.8346,6.8371,6.807,0.0,0.0,0.0,7.0882,7.1384,7.1861,7.2414,7.2615,7.274,7.274,7.2188,7.1912,7.1912,7.1158,7.0506,6.9953,6.9627,6.9361,6.9361,6.9361,6.915,6.8597,6.8246,6.7668,6.694,6.6589,6.6287,6.6112,6.6112,6.6112,6.6112,6.6112,6.5634,6.4931,6.458,6.4128,6.3601,6.3023,6.2069,6.119,6.119,6.0387,5.9483,5.9483,5.9483,5.9382,5.8855,5.8303,5.775,5.7173,5.662,5.6219,5.6219,5.534,5.4561,5.4561,5.3959,5.3381,5.3231,5.3331,5.3306,5.298,5.325,5.325,5.242,5.1724,5.1122,5.072,5.0017,4.959,4.959,4.959,4.959,4.959,4.9264,4.8987,4.8786,4.8796,4.9083,4.9634,5.0617,5.1961,5.3708,5.4187,5.4952,5.5867,5.6316,5.6496,6.3375,6.6237,6.8648,7.1259,7.2288,7.2414,7.1334,7.1008,7.033,6.812,6.581,6.4002,0.0,6.1617,6.1466,6.5233,6.6513,6.797,7.0732,7.0656,6.9903,0.0,0.0,0.0,0.0,0.0,0.0,6.9185,0.0,7.1309,7.1887,7.2439,7.2715,7.269,7.2163,7.1861,7.1836,7.0757,6.9953,6.9361,6.9361,6.9361,6.9361,6.9361,6.915,6.8673,6.8597,6.7995,6.7015,6.6965,6.6614,6.6112,6.6112,6.6112,6.6112,6.6112,6.5409,6.4454,6.4454,6.4103,6.355,6.2973,6.2044,6.1165,6.114,6.0362,5.9483,5.9483,5.9483,5.9332,5.8805,5.8278,5.77,5.7123,5.6595,5.6219,5.6219,5.534,5.4561,5.4561,5.3708,5.313,5.3607,5.3306,5.2955,5.2948,5.3941,5.3857,5.169,5.1431,5.1003,4.9791,4.9615,4.959,4.959,4.959,4.9654,4.9719,4.9719,4.9531,4.9065,5.1018,5.1591,5.0598,5.3977,5.5524,5.5028,5.6403,5.7094,5.7094,5.7124,5.7154,6.4931,6.8221,7.1033,7.1736,7.2012,7.1937,7.1234,7.0129,6.8622,6.6388,6.2873,5.9759,5.8378,5.8353,5.9382,6.2019,6.5333,6.8547,7.1309,7.1209,0.0,6.9376,0.0,6.8396,6.7292,6.7794,0.0,0.0,6.9853,7.0882,7.1861,7.2439,7.2539,7.2138,7.1585,7.1108,7.0681,7.0003,6.9577,6.9361,6.9361,6.9361,6.9361,6.9361,6.9376,6.92,6.8371,6.7844,6.7518,6.6689,6.6237,6.6112,6.6112,6.6112,6.6112,6.6112,6.5409,6.4454,6.4454,6.3852,6.2948,6.2395,6.1743,6.1115,6.0663,6.006,5.9483,5.9483,5.9207,5.8805,5.8252,5.7675,5.7123,5.6545,5.6319,5.6219,5.6219,5.534,5.4561,5.4561,5.3984,5.3557,5.3683,5.3582,5.3619,5.4008,5.4721,5.4522,5.2707,5.2899,5.2556,5.1003,5.0092,4.959,4.959,4.959,5.0142,5.133,5.1393,5.1848,5.291,5.3092,5.3472,5.4346,5.485,5.5583,5.6538,5.6937,5.7094,5.7094,5.7633,5.7872,6.7267,6.9878,7.1962,7.2213,7.2087,7.1309,6.9049,6.7643,6.5609,6.1441,5.7851,5.5089,5.3884,5.4185,5.5817,5.9483,6.34,6.7116,7.038,7.0757,7.0506,0.0,6.9602,0.0,6.8145,6.8396,6.8723,0.0,6.9777,7.0531,7.1158,7.1711,7.1861,7.156,7.1008,7.0455,6.9903,6.9351,6.92,6.9361,6.92,6.9074,6.9074,6.9074,6.8823,6.8321,0.0,6.7292,6.7015,6.6363,6.6112,6.6112,6.6112,6.6112,6.6112,6.6112,6.5409,6.4454,6.4454,6.3751,6.2772,6.2471,6.1843,6.1115,6.0788,6.0136,5.9483,5.9483,5.9282,5.888,5.8102,5.765,5.7223,5.6394,5.6219,5.6143,5.5892,5.5164,5.4486,5.4235,5.3733,5.3432,5.3658,5.3105,5.2843,5.3351,5.3949,5.3935,5.2682,5.3501,5.3335,5.1144,5.0343,4.9866,4.9615,4.959,5.0308,5.1927,5.1989,5.27,5.4327,5.4758,5.531,5.6132,5.7104,5.7971,5.8814,5.8814,5.8814,5.8814,5.8617,5.856,6.9752,7.1234,7.2113,7.2514,7.2087,7.0455,6.6162,6.4404,6.1918,5.5641,5.2427,5.0594,5.0167,5.0268,5.2201,5.7675,6.1391,6.4957,6.8899,6.9777,7.0104,7.0255,6.9777,6.9361,6.9361,6.8999,6.8924,6.9401,6.9878,7.0179,7.0255,7.0782,7.1058,7.0983,7.043,6.9903,6.9351,6.8848,6.8823,6.9225,6.8748,6.8522,6.8522,6.8522,6.7995,6.7091,0.0,0.0,6.6212,6.6137,6.6112,6.6112,6.6112,6.6061,6.6011,6.6011,6.5308,6.4354,6.4354,6.3676,6.2797,6.2647,6.1969,6.1165,6.1014,6.0261,5.9483,5.9483,5.9433,5.9156,5.8152,5.7901,5.7675,5.6763,5.639,5.6216,5.585,5.5102,5.4285,5.3708,5.3281,5.313,5.3432,5.2377,5.1641,5.2094,5.2725,5.2889,5.226,5.3555,5.3453,5.0817,5.0469,5.0193,4.964,4.9783,5.0626,5.2236,5.2516,5.3368,5.4976,5.6308,5.7018,5.7018,5.9607,6.0989,6.0989,6.1193,6.1243,6.1243,6.0097,5.9629,7.1108,7.2087,7.2489,7.2138,7.0958,6.8949,6.5409,6.2069,5.8478,5.411,5.0343,4.7958,4.8284,4.949,5.2101,5.7198,6.0814,6.4479,6.8823,6.9125,6.925,7.0154,6.9777,6.9361,6.9361,6.9351,0.0,0.0,0.0,6.9777,7.0229,7.0782,7.0882,7.0405,6.9878,6.9325,6.8773,6.8673,6.8447,6.8095,6.7995,6.7945,6.7945,6.7945,6.7844,6.7643,0.0,0.0,6.6789,6.6312,6.6112,6.6112,6.6112,6.5835,6.5434,6.5434,6.4756,6.3827,6.3827,6.34,6.2672,6.1768,6.1341,6.1014,6.006,5.9659,5.9483,5.9483,5.9182,5.8704,5.8052,5.7901,5.7948,5.8395,5.7636,5.701,5.7554,5.5637,5.3683,5.3181,5.3331,5.3306,5.2528,5.2528,5.2649,5.2684,5.326,5.3403,5.2758,5.3444,5.323,5.1346,5.0695,5.0193,4.964,5.0853,5.2271,5.385,5.5182,5.6622,5.8221,5.858,5.8689,5.8689,6.0224,6.0989,6.0989,6.2094,6.2634,6.2634,6.2421,6.2323,7.1535,7.2313,7.259,7.2037,7.0455,6.7543,6.1893,5.8278,5.4361,4.8159,4.5363,4.4134,4.4443,4.6326,4.9113,5.2955,5.6118,5.9834,6.4856,6.5584,6.6564,6.91,6.9426,6.9361,6.9361,6.9361,6.9361,6.9361,0.0,6.925,6.9803,7.0079,7.0104,6.9853,6.93,6.8899,6.8622,6.8045,6.7769,6.7794,6.7518,6.7367,6.7367,6.7367,6.7216,6.6915,6.6639,0.0,6.6488,6.5911,6.5685,6.566,6.5383,6.5082,6.4856,6.4856,6.4354,6.3651,6.335,6.2873,6.222,6.109,6.0939,6.1014,6.0186,5.9734,5.9483,5.9483,5.9307,5.9135,5.9299,5.9289,5.9492,6.0146,5.9334,5.8546,5.8914,5.7398,5.5668,5.4831,5.4576,5.4125,5.274,5.2277,5.1942,5.1627,5.1614,5.1717,5.1987,5.2335,5.2086,5.0911,5.0845,5.0887,5.0867,5.1554,5.3039,5.5444,5.6308,5.744,5.9045,5.9705,6.0097,6.0097,6.2013,6.3036,6.3036,6.3685,6.3998,6.3998,6.3307,6.3004,7.151,7.2213,7.2414,7.1861,6.9803,6.5961,5.8554,5.4762,5.0645,4.288,4.11,4.105,4.1455,4.3388,4.5974,4.9088,5.1724,5.5315,6.0864,6.232,6.4178,6.7844,6.8848,6.9275,6.9275,6.9275,0.0,6.9275,0.0,0.0,6.925,6.915,6.915,6.925,6.8748,6.8396,6.8271,6.7417,6.7141,6.7442,6.699,6.6789,6.6789,6.6789,6.6538,6.6112,6.5986,0.0,0.0,6.5333,6.5107,6.5082,6.463,6.4404,6.4304,6.4304,6.3902,6.3274,6.2797,6.2295,6.1667,6.0638,6.0638,6.0889,6.0311,5.9834,5.9483,5.9357,5.9691,6.015,6.0321,6.0887,6.1416,6.152,6.0948,6.0227,5.9699,5.875,5.7633,5.6359,5.5657,5.464,5.2851,5.1749,5.0896,5.0318,4.9967,5.0092,5.0971,5.1197,5.1046,5.0469,5.1226,5.1858,5.2032,5.2639,5.4061,5.6537,5.7018,5.7886,5.9416,6.0484,6.1142,6.1445,6.37,6.4869,6.4869,6.5171,6.5304,6.526,6.4276,6.3811,7.1209,7.1937,7.1836,7.1309,6.8346,6.3952,5.77,5.3005,4.8335,4.2479,4.0551,4.03,4.1861,4.2766,4.4618,4.8912,5.1096,5.4185,5.9709,6.1843,6.3902,6.6789,6.8045,6.8698,6.8698,6.8698,6.8698,6.8698,0.0,0.0,6.8673,6.8221,6.817,6.8673,6.817,6.7643,6.7141,6.7015,6.6739,6.6262,6.6212,6.6187,6.6187,6.6187,6.6162,6.6086,6.5584,0.0,0.0,6.4781,6.453,6.453,6.4479,6.4178,6.3751,6.3751,6.3099,6.2144,6.2094,6.1718,6.1165,6.0512,6.0362,6.0286,5.9734,5.9533,5.9408,5.893,6.0426,6.1795,6.0158,6.1808,6.3429,6.1807,6.1864,6.1611,5.9367,5.841,5.7496,5.5802,5.5024,5.3975,5.1832,5.0921,5.0318,4.9766,5.0067,5.0368,5.0494,5.0946,5.1046,5.0469,5.2194,5.3001,5.2068,5.4654,5.6366,5.665,5.8081,5.9439,6.0764,6.0938,6.1546,6.2779,6.4184,6.4869,6.4869,6.6029,6.6643,6.661,6.6525,6.644,6.9978,7.1158,7.1209,7.0305,6.7417,6.3023,5.6244,5.18,4.7431,4.1555,3.9998,3.9898,4.0551,4.0852,4.1806,4.4242,4.4895,4.7179,5.303,5.5315,5.8278,6.3375,6.5534,6.7015,6.802,0.0,6.7995,6.7668,0.0,0.0,6.7618,6.7744,6.7894,6.812,6.7593,6.7191,6.6965,6.6639,6.6338,6.6112,6.5785,6.5609,6.5609,6.5283,6.5132,6.5107,6.4881,0.0,0.0,6.4228,6.4002,6.3977,6.3626,6.335,6.3124,6.2797,6.2395,6.1893,6.1215,6.0839,6.0563,6.001,5.9608,5.9382,5.9458,5.9483,5.9458,5.9257,6.0708,6.2291,6.1932,6.3566,6.5071,6.4381,6.3807,6.3115,6.2128,6.1483,6.0266,5.7469,5.6559,5.5162,5.188,5.0795,5.0218,4.9665,5.0067,5.0544,5.0896,5.1423,5.1924,5.2246,5.2836,5.3236,5.345,5.6165,5.8313,5.9235,6.063,6.1678,6.2193,6.294,6.3638,6.4137,6.5426,6.6029,6.6029,6.6567,6.6812,6.6812,6.6812,6.6576,6.8145,6.9803,7.0129,6.92,6.5961,6.1316,5.4913,5.0519,4.625,4.0802,3.9697,3.9697,3.9697,3.9697,3.9998,4.0899,4.1329,4.3338,4.8611,5.0946,5.4135,5.9633,6.2245,6.4228,6.5911,6.699,6.7317,0.0,0.0,0.0,6.6714,6.694,6.7216,6.7543,6.7015,6.6714,6.6714,6.6162,6.586,6.586,6.5308,6.5032,6.5032,6.4655,6.4454,6.4454,0.0,0.0,0.0,6.3651,6.335,6.3149,6.2747,6.2496,6.2295,6.1893,6.1642,6.1391,6.0588,6.0111,5.9784,5.9408,5.9031,5.8831,5.9592,5.9998,6.0074,5.9845,6.1327,6.3199,6.4167,6.5182,6.5922,6.5503,6.4695,6.3947,6.3767,6.2999,6.1408,5.8348,5.6918,5.5085,5.1626,5.0544,5.0042,4.9665,5.0067,5.0817,5.1874,5.2221,5.2813,5.424,5.4117,5.4441,5.5561,5.7951,6.0041,6.1496,6.2487,6.3196,6.3544,6.4414,6.5081,6.5437,6.632,6.6812,6.6812,6.6812,6.6711,6.6474,6.6474,6.6068,6.566,6.7819,6.8522,6.7945,6.3651,5.8378,5.3934,4.9088,4.4418,4.0501,3.9697,3.9697,3.9697,3.9697,3.9873,4.0425,4.2359,4.4945,4.8309,5.0695,5.313,5.5942,5.8202,6.0211,6.1893,6.5057,6.6739,0.0,0.0,0.0,6.6112,6.5609,6.5835,6.694,6.6413,6.6112,6.6112,6.5584,6.5308,6.5283,6.4731,6.4479,6.4479,6.4454,6.4454,0.0,0.0,0.0,0.0,6.3073,6.2521,6.2019,6.2019,6.1667,6.119,6.119,6.0839,6.0337,6.0311,5.9608,5.873,5.873,5.873,5.8984,6.018,6.0994,6.131,6.0783,6.2385,6.4659,6.6476,6.652,6.5682,6.4336,6.4006,6.3827,6.3228,6.1792,5.9855,5.7667,5.5348,5.3098,5.0821,4.9967,4.9615,4.959,5.0067,5.1224,5.3497,5.3203,5.3637,5.5942,5.647,5.7212,5.8519,6.0071,6.1546,6.2876,6.3004,6.3576,6.4823,6.4869,6.5514,6.677,6.677,6.6812,6.6812,6.6812,6.644,6.5696,6.5696,6.5324,5.8227,6.0161,6.0964,5.9633,5.7148,5.3959,4.9891,4.6853,4.3915,4.0425,3.9697,3.9697,3.9697,3.9396,3.9923,4.2359,4.3037,4.4267,4.723,5.0218,5.2854,5.4838,5.9709,6.34,6.468,0.0,6.576,0.0,0.0,0.0,6.4982,6.4831,6.5057,6.581,6.6612,6.7104,6.7104,6.8251,6.8839,6.8839,6.6948,6.5987,6.5961,6.4133,0.0,0.0,0.0,0.0,0.0,6.3357,6.2787,6.1601,6.2843,6.2452,6.114,6.0738,6.0462,6.0261,5.9885,6.0074,6.0561,6.0561,6.0869,6.1397,6.2205,6.1979,6.1821,6.3792,6.4245,6.463,6.6508,6.5802,6.4545,6.4096,6.3677,6.2998,6.1614,6.0611,5.9066,5.5988,5.423,5.2653,5.0746,4.9967,4.959,4.959,5.1357,5.2787,5.306,5.4575,5.6019,5.7036,5.8056,5.8643,5.871,6.0967,6.2924,6.423,6.5126,6.5767,6.6192,6.6192,6.6128,6.6068,6.6034,6.5797,6.529,6.529,6.5189,6.4918,6.4444,6.4072,5.3105,5.5365,5.6344,5.5064,5.303,5.0569,4.7506,4.5045,4.2685,4.0199,3.9521,3.9371,3.9371,3.8919,3.922,4.1279,4.2208,4.3338,4.5296,4.8435,5.1523,5.4235,5.8956,6.2972,0.0,6.5984,0.0,0.0,0.0,0.0,6.5626,6.4753,6.4721,6.5773,6.6962,6.788,6.865,6.9662,7.0219,7.0143,6.8411,6.7024,6.5976,6.4396,0.0,0.0,0.0,0.0,0.0,6.3672,6.3641,6.3151,6.4315,6.3528,6.1685,6.204,6.1682,6.1095,6.1236,6.1674,6.2131,6.1845,6.2355,6.3174,6.3527,6.3073,6.2949,6.5708,6.5494,6.466,6.5589,6.4934,6.3947,6.3707,6.3169,6.2257,6.0582,5.9225,5.7477,5.458,5.2915,5.1589,5.0338,4.9816,4.9847,5.0436,5.1992,5.3467,5.4542,5.5955,5.7471,5.9106,5.9711,6.0333,6.0975,6.2652,6.4276,6.5559,6.6363,6.6812,6.6812,6.6542,6.617,6.5696,6.5425,6.5053,6.4613,6.4343,6.4174,6.4174,6.3429,6.3091,0.0,5.2477,5.3582,5.298,5.0519,4.7832,4.62,4.3438,0.0,3.9798,3.917,3.8894,3.8969,3.8391,3.8065,3.8417,4.0651,4.2615,4.3187,4.6175,4.9992,5.4511,5.707,0.0,6.4739,0.0,0.0,0.0,0.0,0.0,6.7294,6.5068,6.4704,6.6635,6.735,6.8593,7.0594,7.0242,7.0012,6.9984,6.9279,6.7647,6.5151,6.4997,0.0,0.0,0.0,0.0,0.0,6.4175,6.5005,6.607,6.6115,6.47,6.2804,6.4516,6.4039,6.2751,6.387,6.3943,6.3515,6.2918,6.3536,6.4474,6.4317,6.4224,6.4607,6.6389,6.5951,6.4814,6.4156,6.3977,6.3767,6.3139,6.254,6.1632,5.9973,5.7789,5.5532,5.3405,5.155,5.0193,4.9859,4.9783,5.0308,5.1927,5.2297,5.3646,5.7167,5.7281,5.8283,6.1606,6.1546,6.226,6.4688,6.4869,6.547,6.6728,6.6812,6.6779,6.6745,6.6068,6.5628,6.5527,6.4816,6.4444,6.4444,6.3768,6.3429,6.3429,6.2719,6.2381,4.2811,0.0,4.5472,4.4493,4.3607,4.276,0.0,4.0651,3.9772,3.8642,3.8291,3.8467,3.9346,3.8341,3.8617,4.2459,4.3614,4.4543,4.5949,4.9715,5.416,5.9056,6.2148,6.4717,6.674,0.0,0.0,0.0,0.0,6.6055,6.5606,6.4953,6.5339,6.6855,6.8473,7.0056,7.1532,7.2424,7.2933,7.2933,7.0732,6.8562,6.6493,6.4972,0.0,0.0,0.0,0.0,6.3566,6.6092,6.6426,6.5522,6.6477,6.5922,6.4516,6.4477,6.4445,6.4543,6.4906,6.5208,6.5488,6.5816,6.61,6.6295,6.5729,6.5581,6.5524,6.5502,6.4874,6.4216,6.4036,6.3647,6.3139,6.248,6.2211,6.1513,5.9247,5.7052,5.5011,5.3173,5.1152,5.0166,5.1231,5.1429,5.1989,5.361,5.5308,5.6475,5.6881,5.9155,6.0858,6.1165,6.2891,6.4243,6.4823,6.4869,6.547,6.6728,6.6812,6.6542,6.5967,6.5764,6.5155,6.4038,6.3294,6.2922,6.2922,6.2719,6.2651,6.2651,6.2482,6.2381,3.9371,4.0953,4.2459,4.1856,4.1329,4.0802,4.0199,3.9471,3.8743,3.814,3.7814,3.7889,3.8768,3.8165,3.8542,4.1505,4.3037,4.507,4.856,5.2542,5.6759,6.1248,6.4569,6.711,0.0,0.0,0.0,0.0,0.0,6.7596,6.7266,6.6372,6.6582,6.8268,6.9393,7.068,7.2314,7.3108,7.3432,7.3432,7.1972,7.0118,6.7918,6.5892,6.4167,0.0,0.0,0.0,6.5127,6.6879,6.7515,6.7429,6.7786,6.7036,6.5678,6.6183,6.6065,6.5678,6.6279,6.628,6.6109,6.6423,6.634,6.5951,6.5293,6.5084,6.5024,6.4665,6.4066,6.3498,6.3199,6.2869,6.245,6.1792,6.1403,6.0621,5.8552,5.6961,5.5451,5.3829,5.2571,5.2051,5.2944,5.3126,5.367,5.5211,5.6479,5.7592,5.854,6.0363,6.1851,6.2682,6.4059,6.5126,6.569,6.5734,6.6072,6.677,6.6474,6.6102,6.5696,6.5053,6.4174,6.3024,6.2584,6.2381,6.2381,6.2381,6.2381,6.2381,6.2381,6.2381,3.8316,4.0174,4.2011,4.176,4.1078,4.0475,4.03,3.9094,3.799,3.7889,3.7513,3.7387,3.8015,3.8216,3.8567,3.9471,4.2007,4.5773,5.1272,5.4946,5.8456,6.2164,6.5545,0.0,0.0,0.0,0.0,0.0,0.0,6.9827,6.9626,6.8015,6.7788,6.9269,6.9615,7.0566,7.2325,7.2624,7.2714,7.2595,7.2595,7.1242,6.8745,6.7087,6.5581,0.0,0.0,0.0,6.7132,6.7516,6.8628,7.0051,6.9303,6.8082,6.6854,6.8165,6.7693,6.6542,6.7367,6.6939,6.6011,6.6011,6.5562,6.4904,6.4336,6.4066,6.3947,6.3767,6.3318,6.281,6.2241,6.2032,6.1792,6.1104,6.0505,5.9696,5.82,5.7281,5.6308,5.4976,5.4564,5.4446,5.4682,5.4741,5.5327,5.7073,5.7353,5.8317,6.0958,6.1496,6.2456,6.4688,6.5081,6.5569,6.6559,6.6643,6.6609,6.6474,6.5967,6.5595,6.5358,6.4072,6.3057,6.2415,6.2537,6.2581,6.2581,6.2581,6.2581,6.2581,6.2459,6.2381,3.9747,4.0777,4.1128,3.9722,3.9948,4.0275,3.9346,3.8542,3.7864,3.7412,3.7236,3.7513,3.8542,3.912,4.0224,4.266,4.5773,4.9665,5.4737,5.7351,5.9784,6.2756,0.0,6.9661,0.0,0.0,0.0,0.0,0.0,6.9424,6.8428,6.7999,6.7415,6.672,6.8259,6.9317,6.9602,7.1218,7.1757,7.1218,7.1218,6.9854,6.7392,6.7122,6.5956,0.0,0.0,6.665,6.7295,6.9398,7.048,7.0649,6.9453,6.9176,6.9253,6.7834,6.7503,6.7585,6.6668,6.6191,6.6011,6.6011,6.5562,6.4994,6.4904,6.4455,6.3767,6.269,6.2331,6.2211,6.2121,6.1672,6.1074,6.0416,6.0146,5.9882,5.9066,5.7751,5.6593,5.6366,5.5269,5.48,5.6137,5.6366,5.7241,5.9923,6.034,6.0907,6.2487,6.3638,6.446,6.4869,6.5855,6.6297,6.5899,6.5865,6.5595,6.4986,6.5425,6.5121,6.3903,6.3024,6.2516,6.2381,6.3124,6.3535,6.3535,6.3535,6.3535,6.3498,6.274,6.2381,3.7262,3.8442,3.9496,3.9346,4.0375,4.1178,4.04,3.9546,3.8768,3.8216,3.809,3.8341,3.917,4.0727,4.3112,4.6778,4.9414,5.2506,5.6707,6.0074,6.3203,0.0,0.0,0.0,0.0,0.0,0.0,0.0,0.0,0.0,6.9178,6.873,6.8259,6.7671,6.85,6.9004,6.9004,6.9871,7.0171,6.9871,6.9871,6.9243,6.8083,6.605,6.5514,6.619,0.0,6.6051,6.7683,6.8449,6.9004,6.9183,6.7897,6.7777,6.8196,6.6939,6.643,6.6281,6.5682,6.5233,6.4934,6.4934,6.4485,6.3917,6.3558,6.3228,6.2922,6.2682,6.238,6.2081,6.2044,6.1835,6.1569,6.1619,6.1101,6.0516,6.0211,5.8979,5.797,5.797,5.744,5.7044,5.739,5.7981,5.8882,6.031,6.1064,6.2123,6.3793,6.4551,6.5171,6.5855,6.6112,6.6068,6.573,6.5324,6.4783,6.4072,6.4343,6.4038,6.2956,6.2584,6.262,6.3087,6.3498,6.3936,6.4392,6.3936,6.3719,6.3683,6.2408,6.1498,3.5705,3.6835,3.8266,3.9421,4.0752,4.1907,4.2384,4.1455,4.0526,4.0752,4.0501,4.03,4.0601,4.2911,4.61,5.0142,5.281,5.5442,5.8543,0.0,0.0,0.0,0.0,0.0,0.0,0.0,0.0,0.0,0.0,0.0,6.9752,0.0,6.8764,6.8764,6.8615,6.8525,6.8525,6.8525,6.8615,6.8764,6.8914,6.8914,6.8671,6.561,6.5527,6.7623,6.5085,6.5362,6.7478,6.7148,6.7298,6.7627,6.664,6.637,6.646,6.5951,6.5263,6.4575,6.4575,6.4216,6.3855,6.4324,6.3957,6.329,6.3234,6.3011,6.2805,6.314,6.2879,6.2554,6.2478,6.2331,6.2386,6.289,6.2193,6.1395,6.104,6.0255,5.9446,5.9153,5.9339,5.9372,5.8859,5.9645,6.0558,6.1159,6.1854,6.3047,6.5071,6.5349,6.5624,6.6492,6.6034,6.5561,6.5189,6.4512,6.3835,6.3294,6.326,6.299,6.2415,6.2581,6.3011,6.3683,6.4113,6.4494,6.4716,6.4043,6.3552,6.3129,6.1465,6.0184,3.8165,3.8291,3.8266,3.9421,4.0174,4.158,4.5146,4.4292,4.3463,4.6024,4.5296,4.4066,4.3589,4.5748,4.856,5.1498,5.5736,5.9272,6.1014,0.0,0.0,0.0,0.0,0.0,0.0,0.0,0.0,0.0,0.0,0.0,6.9064,0.0,0.0,6.8046,6.7448,6.7119,6.7119,6.7119,6.7448,6.8046,6.8704,6.8675,6.8016,6.714,6.6842,6.7029,6.6186,6.5918,6.6191,6.6759,6.7029,6.7059,6.6969,6.6191,6.5173,6.5114,6.4306,6.3228,6.3228,6.3199,6.3459,6.5366,6.5046,6.4274,6.6132,6.5733,6.4557,6.4038,6.391,6.3861,6.3864,6.3402,6.2972,6.3004,6.2956,6.2487,6.1243,6.0969,6.0536,5.9339,6.0045,6.0835,6.0805,6.1348,6.2377,6.4263,6.4063,6.4377,6.6381,6.6652,6.6458,6.5831,6.573,6.5155,6.3768,6.299,6.2516,6.2482,6.2482,6.2448,6.2381,6.3199,6.3647,6.3719,6.5365,6.5453,6.397,6.3904,6.3089,6.1606,5.9626,5.8672,3.5604,3.6358,3.7513,3.9672,4.1128,4.261,4.4769,4.5673,4.6552,4.8309,4.8159,4.7657,4.7431,4.8837,5.0795,5.3231,5.7565,6.1228,6.3089,0.0,0.0,0.0,0.0,0.0,0.0,0.0,0.0,0.0,0.0,0.0,0.0,0.0,0.0,6.7358,6.6729,6.637,6.637,6.5981,6.5892,6.6131,6.6819,6.6789,6.607,6.4676,6.471,6.5682,6.4323,6.4357,6.5383,6.5203,6.4544,6.3725,6.3725,6.4007,6.4336,6.3947,6.3498,6.3162,6.3553,6.3978,6.4599,6.6255,6.6112,6.5393,6.5714,6.513,6.435,6.4536,6.4575,6.4575,6.4575,6.4379,6.4368,6.5171,6.4766,6.4012,6.3512,6.2796,6.2094,6.1628,6.155,6.1452,6.1009,6.1363,6.2121,6.3408,6.3596,6.422,6.5925,6.573,6.5324,6.5053,6.4613,6.3619,6.1858,6.2159,6.207,6.1317,6.1991,6.2381,6.2381,6.2756,6.3205,6.3759,6.4501,6.4831,6.4779,6.3693,6.282,6.2178,5.9876,5.8458,3.4299,3.5228,3.6908,3.8944,4.1229,4.3438,4.5246,4.738,4.954,5.1523,5.1122,5.0343,5.0167,5.0745,0.0,0.0,5.9271,6.2909,6.4972,0.0,0.0,0.0,0.0,0.0,0.0,0.0,0.0,0.0,0.0,0.0,0.0,0.0,0.0,0.0,6.634,6.5922,6.5712,6.5263,6.4904,6.4695,6.5173,6.5263,6.4964,6.3495,6.3646,6.4875,6.3289,6.3352,6.4635,6.3977,6.3091,6.2049,6.1334,6.2142,6.3647,6.3228,6.3394,6.3785,6.4258,6.5031,6.5963,6.7112,6.6999,6.6338,6.6061,6.5488,6.4943,6.5348,6.5711,6.5947,6.5947,6.5711,6.569,6.6567,6.6148,6.5393,6.4992,6.423,6.3385,6.2812,6.2552,6.2285,6.1574,6.1874,6.2481,6.3254,6.3415,6.3971,6.5189,6.4918,6.4512,6.4275,6.3599,6.2448,6.0736,6.1716,6.181,6.034,6.1381,6.2042,6.2042,6.2343,6.2822,6.3412,6.3759,6.4134,6.4519,6.3327,6.2453,6.1923,5.9875,5.8533,3.5152,3.5504,3.6556,3.7086,4.0149,4.389,4.7205,4.969,5.2402,5.6269,5.4436,5.1975,5.1423,5.1297,0.0,0.0,0.0,0.0,0.0,0.0,0.0,0.0,0.0,0.0,0.0,0.0,0.0,0.0,0.0,0.0,0.0,0.0,0.0,0.0,6.634,6.5682,6.5024,6.4964,6.4665,6.3977,6.3977,6.4366,6.4994,6.4306,6.4366,6.4934,6.3647,6.3408,6.3947,6.3318,6.3049,6.2874,6.0588,6.1087,6.3079,6.3107,6.3928,6.5111,6.508,6.6016,6.7291,6.793,6.7589,6.7096,6.7719,6.7387,6.6812,6.6812,6.7461,6.8189,6.8189,6.7501,6.6812,6.6812,6.6812,6.6482,6.5171,6.4914,6.4322,6.2327,6.2971,6.3584,6.2848,6.3125,6.3768,6.4478,6.3971,6.3768,6.4478,6.458,6.4309,6.3599,6.2821,6.1877,6.067,6.1676,6.1575,5.9614,6.061,6.1298,6.1298,6.2142,6.2647,6.2698,6.3562,6.361,6.2823,6.2787,6.1989,6.0397,5.926,5.8727,3.3796,3.4972,3.7008,3.9471,4.3288,4.733,5.067,5.2553,5.4461,5.7575,5.6194,5.426,5.3683,5.3256,0.0,0.0,0.0,0.0,0.0,0.0,0.0,0.0,0.0,0.0,0.0,0.0,0.0,0.0,0.0,0.0,0.0,0.0,0.0,0.0,6.4964,6.4515,6.4306,6.3887,6.3558,6.3348,6.3348,6.3468,6.3647,6.2204,6.2352,6.3559,6.1939,6.2087,6.32,6.0939,6.0501,6.1053,5.9073,5.9945,6.2385,6.233,6.2887,6.3804,6.5215,6.6338,6.7257,6.8414,6.8282,6.7655,6.7877,6.7387,6.6946,6.7622,6.799,6.8204,6.8391,6.8113,6.7787,6.7787,6.725,6.6728,6.632,6.5832,6.5277,6.47,6.4036,6.3508,6.3306,6.2952,6.299,6.3734,6.3193,6.2821,6.3024,6.3057,6.2956,6.2753,6.1769,6.0472,5.8777,5.967,5.9761,5.8477,6.0258,6.1385,6.1385,6.167,6.21,6.2713,6.3372,6.3601,6.3379,6.3121,6.2767,6.2255,6.1376,6.0946,3.45,3.6157,3.8718,4.1605,4.5146,4.9012,5.3281,5.4913,5.6093,5.8001,5.6796,5.5555,5.6162,5.5637,0.0,0.0,0.0,0.0,0.0,0.0,0.0,0.0,0.0,0.0,0.0,0.0,0.0,0.0,0.0,0.0,0.0,0.0,0.0,0.0,6.4216,6.3767,6.3258,6.2869,6.257,6.2301,6.1668,6.1319,6.1349,6.0758,6.1195,6.2411,6.1821,6.1469,6.1173,5.9132,5.8724,5.9212,5.783,5.9259,6.2044,6.2016,6.3067,6.4739,6.5955,6.7036,6.7935,6.8456,6.8301,6.7861,6.7557,6.7151,6.692,6.7566,6.8006,6.8353,6.8531,6.8502,6.8218,6.744,6.681,6.6271,6.6,6.5854,6.5573,6.4966,6.4393,6.3801,6.317,6.2685,6.255,6.299,6.2685,6.2381,6.2381,6.2381,6.2088,6.1354,6.0646,5.9441,5.7504,5.8733,5.9179,5.8208,6.0248,6.1581,6.1792,6.1596,6.1885,6.2647,6.3002,6.3501,6.4122,6.3913,6.363,6.3291,6.2721,6.2317,3.6257,3.8341,4.1078,4.3438,4.625,4.9766,5.4888,5.6445,5.7022,5.775,5.6646,5.6218,5.8499,5.8075,0.0,0.0,0.0,0.0,0.0,0.0,0.0,0.0,0.0,0.0,0.0,0.0,0.0,0.0,0.0,0.0,0.0,6.4606,0.0,6.3767,6.3737,6.3169,6.2032,6.2002,6.1646,0.0,5.9422,5.8608,5.8519,5.9609,6.0502,6.1293,6.2263,6.1056,5.8433,5.7916,5.7628,5.7542,5.7193,5.9115,6.1991,6.2188,6.4168,6.6799,6.6938,6.778,6.8673,6.7929,6.7658,6.7489,6.6812,6.6651,6.6738,6.6954,6.7722,6.8565,6.8665,6.8713,6.8235,6.6387,6.5881,6.5644,6.4877,6.5319,6.5355,6.3917,6.4149,6.4105,6.2639,6.2381,6.2381,6.2381,6.2347,6.2279,6.2279,6.2133,6.14,5.9663,5.9317,5.8489,5.6852,5.8428,5.9285,5.8755,6.0595,6.1973,6.2583,6.1973,6.1959,6.2769,6.2745,6.3457,6.4831,6.4817,6.4393,6.3599,6.342,6.3037,3.5077,3.7739,4.1354,4.4895,4.9138,5.2879,5.4536,5.5013,5.5641,5.7524,5.7248,5.7058,5.8515,0.0,0.0,0.0,0.0,0.0,0.0,0.0,0.0,0.0,0.0,0.0,0.0,0.0,0.0,0.0,0.0,0.0,6.2002,6.1972,6.1882,6.1732,6.1732,6.1613,6.1313,6.1313,6.063,0.0,5.8841,5.799,5.6758,5.7009,5.7874,5.9153,5.9509,5.8572,5.6824,5.7451,5.7245,5.6785,5.917,6.0853,6.2188,6.3725,6.4741,6.5499,6.6531,6.6668,6.6373,6.6203,6.5764,6.529,6.5121,6.5551,6.6232,6.7023,6.7923,6.8697,6.8851,6.8807,6.83,6.6697,6.6628,6.6699,6.5814,6.5296,6.4925,6.46,6.3661,6.2824,6.2454,6.2381,6.2381,6.2381,6.1907,6.1535,6.1535,6.0263,5.9164,5.8797,5.7098,5.6237,5.6816,5.7668,5.8843,6.0377,6.216,6.3512,6.4337,6.3086,6.2944,6.4158,6.4022,6.4078,6.4425,6.4145,6.3953,6.3759,6.3712,6.3635,3.5855,3.8743,4.2484,4.7456,5.1222,5.3858,5.4436,5.5217,5.6155,5.7266,5.7266,5.7859,6.047,0.0,0.0,0.0,0.0,0.0,0.0,0.0,0.0,0.0,0.0,0.0,0.0,0.0,0.0,0.0,0.0,6.1852,6.1164,6.1104,6.1104,6.1104,6.1104,6.0805,6.0146,5.9421,5.8339,5.685,5.6079,5.5674,5.5556,5.6739,5.761,5.803,5.7917,5.7109,5.5981,5.6222,5.6051,5.5849,5.8805,6.0596,6.167,6.3258,6.4233,6.4914,6.5997,6.612,6.5778,6.5778,6.5539,6.5231,6.5231,6.5512,6.609,6.7112,6.7761,6.818,6.8302,6.8264,6.781,6.6115,6.5921,6.5896,6.504,6.4549,6.4161,6.3711,6.3323,6.2893,6.2459,6.211,6.1873,6.1873,6.1231,6.057,6.0035,5.9112,5.7921,5.6487,5.6071,5.618,5.6811,5.8308,6.004,6.2015,6.3291,6.4105,6.4372,6.3699,6.3692,6.4426,6.4357,6.426,6.4216,6.4106,6.3836,6.3403,6.3354,6.3124,3.6383,3.9823,4.3915,4.9464,5.2076,5.3476,5.4277,5.5478,5.6674,5.7358,5.749,5.8616,0.0,0.0,0.0,0.0,0.0,0.0,0.0,0.0,0.0,0.0,0.0,0.0,0.0,0.0,0.0,0.0,0.0,6.0835,6.0595,6.0595,6.0535,6.0416,6.0416,5.9877,5.877,5.7508,5.6206,5.4835,5.3557,5.3557,5.4866,5.7165,5.7859,5.7139,5.645,5.5736,5.5109,5.465,5.4615,5.5108,5.8095,5.9948,6.1078,6.2464,6.3777,6.4948,6.5665,6.5827,6.5723,6.5723,6.5619,6.5515,6.5515,6.5741,6.618,6.7052,6.7403,6.7563,6.7671,6.7687,6.7249,6.547,6.4845,6.4455,6.3859,6.3719,6.3429,6.257,6.2631,6.2604,6.1863,6.1234,6.0868,6.1057,6.0419,5.9535,5.8448,5.8034,5.6853,5.4392,5.5595,5.6774,5.7245,5.9599,6.175,6.3415,6.4156,6.4304,6.3808,6.3944,6.3982,6.3976,6.3972,6.3945,6.3829,6.3814,6.3436,6.2733,6.2641,6.2252,3.347,3.8894,4.507,4.8309,5.0368,5.2,5.34,5.3921,5.5055,5.849,5.9205,5.9727,0.0,0.0,0.0,0.0,0.0,0.0,0.0,0.0,0.0,0.0,0.0,0.0,0.0,0.0,0.0,0.0,6.0206,5.9727,5.859,5.853,5.8231,5.7663,5.7633,5.7543,5.7363,5.7176,5.6314,5.478,5.4615,5.4615,5.4864,5.6544,5.6554,5.5154,5.3726,5.3045,5.2905,5.2821,5.3613,5.5188,5.9127,6.0721,6.117,6.3482,6.4954,6.5742,6.5859,6.5481,6.493,6.493,6.4514,6.3995,6.3995,6.5085,6.6351,6.6524,6.7084,6.7689,6.7724,6.7687,6.7277,6.5583,6.459,6.3962,6.376,6.3719,6.3475,6.271,6.0766,5.9152,5.9032,5.8925,5.9212,6.0135,5.9641,5.8757,5.7681,5.6132,5.497,5.4549,5.5018,5.6393,5.8921,6.1169,6.2882,6.3956,6.4657,6.4631,6.3843,6.3729,6.3325,6.2592,6.2725,6.2805,6.2808,6.2184,6.1791,6.1715,6.1795,6.1716,3.4851,3.9697,4.4443,4.7531,5.0028,5.1935,5.2896,5.4824,5.6847,5.8598,5.9762,6.0696,0.0,0.0,0.0,0.0,0.0,0.0,0.0,0.0,0.0,0.0,0.0,0.0,0.0,0.0,0.0,0.0,5.8411,5.8141,5.7573,5.7543,5.7393,5.7094,5.7094,5.6944,5.6585,5.5411,5.4089,5.268,5.268,5.31,5.3936,5.4628,5.4938,5.478,5.2855,5.2519,5.3216,5.1961,5.2873,5.5308,5.8467,5.9708,6.0026,6.2448,6.3927,6.4726,6.5232,6.5198,6.4987,6.5532,6.4835,6.393,6.4697,6.517,6.5569,6.6046,6.6455,6.6679,6.6434,6.6366,6.5915,6.4202,6.3511,6.2941,6.1901,6.1708,6.1605,6.1263,6.0212,5.9393,5.9393,5.9059,5.8945,5.9396,5.8863,5.7763,5.6059,5.5645,5.5295,5.484,5.6468,5.8544,6.0954,6.2478,6.3633,6.4457,6.3976,6.334,6.2491,6.2145,6.1576,6.0696,6.1824,6.2191,6.1694,6.1507,6.1378,6.1378,6.1467,6.1428,3.5077,3.8668,4.1814,4.5555,4.8617,5.1096,5.2453,5.5283,5.7628,5.8059,5.9165,6.0236,0.0,0.0,0.0,0.0,0.0,0.0,0.0,0.0,0.0,0.0,0.0,0.0,0.0,0.0,0.0,0.0,5.7094,5.7034,5.6855,5.6705,5.6526,5.6376,5.6196,5.5867,5.5418,5.3855,5.2558,5.1548,5.1548,5.2129,5.3174,5.3174,5.344,5.3802,5.2232,5.2169,5.3054,5.1445,5.2497,5.5334,5.741,5.8446,5.8972,6.1278,6.2726,6.3555,6.4201,6.4397,6.4563,6.5233,6.4644,6.3939,6.5284,6.5459,6.5395,6.6051,6.6141,6.5914,6.5571,6.5393,6.4875,6.3137,6.2728,6.2258,6.0498,5.9945,5.9734,5.9468,5.9228,5.9093,5.9093,5.8656,5.8395,5.869,5.8254,5.7222,5.5247,5.6,5.6479,5.5895,5.8287,6.0654,6.2442,6.3316,6.38,6.3938,6.2924,6.1865,6.0936,6.0539,6.0048,5.9389,6.0826,6.123,6.0586,6.0583,6.0577,6.0546,6.0405,6.0328,3.1587,3.3796,3.6337,4.143,4.4942,4.8127,5.1943,5.3927,5.542,5.6852,5.7251,5.7304,0.0,0.0,0.0,0.0,0.0,0.0,0.0,0.0,0.0,0.0,0.0,0.0,0.0,0.0,0.0,0.0,5.7094,5.6825,5.6308,5.5628,5.4999,5.4371,5.3713,5.3384,5.3324,5.3245,5.3136,5.3077,5.3077,5.3125,5.3174,5.3174,5.2466,5.1212,5.1081,5.1081,5.1132,5.1024,5.2556,5.5055,5.6347,5.744,5.8599,6.0713,6.1983,6.2772,6.2804,6.2804,6.2836,6.2868,6.3188,6.3687,6.4659,6.5795,6.6727,6.6888,6.648,6.5992,6.5946,6.5607,6.4898,6.3189,6.2774,6.2307,6.0508,5.9573,5.8732,5.774,5.6909,5.6381,5.6381,5.6381,5.6729,5.7769,5.7915,5.748,5.6282,5.7313,5.8168,5.8299,5.9978,6.161,6.2781,6.3331,6.3039,6.1645,6.1482,6.0867,5.9571,5.9482,5.9427,5.9389,5.9496,5.953,5.9471,5.8834,5.8536,5.8549,5.7939,5.7582,2.964,3.2225,3.5184,3.8155,4.2391,4.6497,4.9109,5.2486,5.5338,5.6302,5.6825,5.7094,0.0,0.0,0.0,0.0,0.0,0.0,0.0,0.0,0.0,0.0,0.0,0.0,0.0,0.0,0.0,0.0,0.0,5.4491,5.4281,5.4042,5.3803,5.3563,5.3324,5.2965,5.2546,5.2546,5.2336,5.1917,5.1917,5.1917,5.1917,5.1917,5.1601,5.112,5.112,5.107,5.1062,5.1783,5.3206,5.5115,5.697,5.7969,5.8547,6.0649,6.1946,6.2793,6.329,6.3137,6.2888,6.3986,6.3675,6.3192,6.4963,6.5731,6.6012,6.5981,6.5788,6.5513,6.5084,6.4837,6.4426,6.3255,6.235,6.1523,6.0883,5.946,5.8177,5.7808,5.7499,5.7297,5.7297,5.7297,5.7409,5.7845,5.8352,5.8392,5.7598,5.9126,6.0176,6.0083,6.1373,6.2386,6.2672,6.2394,6.1844,6.0996,6.0144,5.9459,5.8971,5.8206,5.8024,5.8466,5.753,5.7559,5.8614,5.8403,5.8006,5.7491,5.7277,5.7148,2.8383,3.0592,3.3514,3.6574,4.0068,4.3718,4.7567,5.094,5.3503,5.461,5.5359,5.5777,0.0,0.0,0.0,0.0,0.0,0.0,0.0,0.0,0.0,0.0,0.0,0.0,0.0,0.0,0.0,0.0,0.0,0.0,5.3174,5.2965,5.2755,5.2546,5.2306,5.1977,5.1558,5.1319,5.099,5.0571,5.0571,5.0571,5.0571,5.0571,5.069,5.0853,5.0853,5.0947,5.1157,5.2276,5.3546,5.4982,5.6848,5.7813,5.8397,6.0358,6.1441,6.2044,6.2867,6.2772,6.2564,6.3882,6.364,6.3146,6.5076,6.5701,6.5739,6.5746,6.5576,6.533,6.49,6.4698,6.444,6.3858,6.279,6.1942,6.1942,6.0243,5.8737,5.8737,5.8737,5.8806,5.8973,5.8972,5.9038,5.9229,5.9743,5.9822,5.9102,6.0688,6.1654,6.0982,6.1786,6.2301,6.2055,6.1232,6.0546,6.0077,5.9193,5.8512,5.8128,5.7352,5.687,5.6866,5.5862,5.5632,5.6223,5.6668,5.6649,5.6106,5.5844,5.5674,0.0,0.0,0.0,3.638,3.7717,3.9664,4.7255,4.903,4.9659,5.1648,5.2576,5.3054,0.0,0.0,0.0,0.0,0.0,0.0,0.0,0.0,0.0,0.0,0.0,0.0,0.0,0.0,0.0,0.0,5.3114,5.3084,5.3084,5.2486,5.1828,5.1169,5.0495,5.0166,5.0166,4.9583,4.9299,4.9299,4.9299,4.9299,4.9299,4.9299,4.9659,5.0212,5.0212,5.0617,5.1326,5.2455,5.3613,5.4755,5.585,5.6925,5.8101,5.9768,6.0397,6.0519,6.1343,6.1632,6.1697,6.2263,6.2901,6.3681,6.4989,6.5723,6.6134,6.6327,6.5926,6.544,6.5588,6.5262,6.492,6.492,6.4279,6.3649,6.3673,6.1971,6.0503,6.0479,6.0448,6.0582,6.1071,6.1136,6.1306,6.1814,6.2019,6.1735,6.0754,6.1953,6.2387,6.105,6.1188,6.1242,6.0891,5.9961,5.9176,5.8733,5.8673,5.8128,5.6964,5.6825,5.6115,5.4638,5.4512,5.3768,5.2281,5.3707,5.4378,5.4283,5.3491,5.2978,2.6955,0.0,0.0,0.0,0.0,0.0,3.9755,4.2192,4.4526,4.7938,4.9194,5.0062,5.1498,0.0,0.0,0.0,0.0,0.0,0.0,0.0,0.0,0.0,0.0,0.0,0.0,0.0,0.0,0.0,5.1319,5.105,5.105,5.0421,5.0048,4.9823,4.9643,4.9523,4.9523,4.9389,4.9299,4.9299,4.9299,4.9299,4.9299,4.9299,4.9807,5.0603,5.0603,5.1141,5.2125,5.3545,5.4764,5.5889,5.7001,5.7628,5.8101,5.9768,6.0397,6.058,6.1996,6.2344,6.2327,6.319,6.3693,6.4128,6.5194,6.5897,6.6291,6.6209,6.604,6.5898,6.5833,6.5722,6.5627,6.5627,6.5153,6.4733,6.4851,6.364,6.2373,6.1931,6.1847,6.189,6.2023,6.2043,6.1834,6.1259,6.1685,6.1871,6.1204,6.1811,6.2065,6.1356,6.1147,6.0581,5.9401,5.9065,5.8676,5.8216,5.7687,5.7254,5.6912,5.5312,5.4493,5.4611,5.2958,5.2194,5.2281,5.3182,5.3062,5.2025,5.1786,5.1643,2.834,2.9551,3.1244,3.1805,0.0,0.0,3.7734,3.9409,4.1265,0.0,4.6591,4.7549,4.9284,0.0,0.0,0.0,0.0,0.0,0.0,0.0,0.0,0.0,0.0,0.0,0.0,5.1139,5.081,5.0421,5.0062,4.9823,4.9823,4.9464,4.9299,4.9299,4.906,4.8865,4.8865,4.864,4.8681,4.9057,4.9057,4.9316,4.9755,4.9755,5.0215,5.1047,5.1047,5.1787,5.3064,5.3984,5.4698,5.5424,5.6908,5.7442,5.7693,5.9663,6.0397,6.067,6.2508,6.3063,6.3195,6.4106,6.4547,6.4872,6.5505,6.5991,6.6259,6.6127,6.6156,6.6217,6.6115,6.5856,6.5582,6.5582,6.5061,6.4609,6.4721,6.4072,6.3369,6.2887,6.248,6.2313,6.2451,6.25,6.2363,6.194,6.2199,6.2169,6.1442,6.1478,6.125,6.038,6.0114,5.9549,5.8482,5.8397,5.8157,5.757,5.7116,5.6472,5.5522,5.4215,5.3241,5.2724,5.1425,5.0921,5.1329,5.2044,5.1922,5.1086,5.1086,5.0929,3.0889,3.1599,3.2916,0.0,0.0,0.0,3.8123,3.8542,3.8901,0.0,4.3868,4.4736,4.6172,4.6082,0.0,0.0,0.0,0.0,0.0,0.0,0.0,0.0,0.0,0.0,5.0136,4.9613,4.9299,4.9299,4.9239,4.9179,4.909,4.909,4.909,4.909,4.8476,4.8177,4.8177,4.7709,4.7904,4.88,4.8891,4.9496,5.0397,5.0397,5.0788,5.1442,5.1442,5.2416,5.3944,5.3944,5.4043,5.4353,5.6001,5.6735,5.7051,5.9309,6.024,6.0646,6.2664,6.3533,6.3888,6.4612,6.5105,6.5384,6.5592,6.5716,6.58,6.58,6.5915,6.6055,6.6055,6.5478,6.4895,6.4895,6.4318,6.3742,6.3761,6.3677,6.3456,6.3164,6.2664,6.2354,6.2599,6.2662,6.276,6.3002,6.2847,6.2306,6.1301,6.0891,6.0151,5.8833,5.8652,5.8461,5.8042,5.7923,5.7556,5.6819,5.6619,5.5552,5.345,5.3195,5.2176,5.0132,4.9999,4.9933,4.989,5.0527,5.0903,5.0981,5.0903,5.0437,3.2288,3.2317,3.2437,3.2318,0.0,0.0,3.2407,3.3484,3.4981,0.0,3.7734,3.8781,4.0606,4.1713,0.0,0.0,0.0,0.0,0.0,0.0,0.0,0.0,0.0,0.0,4.9464,4.9389,4.9299,4.9299,4.882,4.8237,4.7728,4.7698,4.7698,4.7698,4.7549,4.7489,4.7489,4.8175,4.8594,4.8841,4.9694,5.0204,5.0397,5.0397,5.0881,5.179,5.179,5.2503,5.3616,5.3616,5.4323,5.54,5.5781,5.6269,5.6938,5.8123,5.9163,6.0176,6.1396,6.2299,6.2903,6.3358,6.3592,6.3799,6.3992,6.3951,6.3839,6.3839,6.3873,6.3891,6.3891,6.3775,6.3659,6.3659,6.3505,6.3454,6.3589,6.2781,6.2017,6.1927,6.2767,6.335,6.3046,6.3016,6.2633,6.1522,6.1337,6.0928,5.9939,5.9412,5.9025,5.8733,5.8354,5.8097,5.802,5.7409,5.6752,5.6075,5.4802,5.3647,5.2651,5.1436,5.0561,5.0101,4.9526,4.9182,4.9229,4.9346,4.9664,5.023,4.9634,4.864,3.3844,3.3754,3.3933,3.3573,0.0,0.0,0.0,3.2497,3.3185,3.5519,3.5459,3.5699,3.8003,0.0,3.8661,0.0,0.0,0.0,0.0,0.0,0.0,0.0,0.0,0.0,4.7788,4.7489,4.7322,4.7322,4.698,4.6651,4.6322,4.6292,4.6292,4.6292,4.6292,4.6545,4.6985,4.7496,4.8419,4.9815,5.0343,5.1088,5.1954,5.1954,5.2205,5.2697,5.2697,5.2973,5.3518,5.3518,5.3957,5.4634,5.5006,5.562,5.6429,5.7973,5.9174,6.0194,6.162,6.2414,6.2886,6.3124,6.3327,6.3456,6.3448,6.3361,6.3308,6.3308,6.3308,6.3308,6.3308,6.3012,6.2704,6.2704,6.2358,6.2012,6.187,6.1313,6.0799,6.0557,6.1096,6.1538,6.1301,6.1275,6.0988,6.025,5.9954,5.9601,5.9103,5.828,5.774,5.774,5.6864,5.6308,5.6308,5.5607,5.4845,5.4161,5.3331,5.241,5.1291,5.0521,4.9932,4.956,4.9187,4.9018,4.9018,4.8207,4.8391,4.9457,4.8329,4.7363,0.0,0.0,0.0,0.0,0.0,3.3515,0.0,0.0,0.0,3.4861,0.0,0.0,0.0,0.0,0.0,0.0,0.0,0.0,0.0,0.0,0.0,0.0,0.0,0.0,0.0,4.5125,4.4885,4.5274,4.4945,4.4885,4.5274,4.5304,4.5304,4.5304,4.5304,4.5737,4.6686,4.6882,4.8205,5.0568,5.0812,5.1661,5.3078,5.3078,5.3078,5.3078,5.3078,5.3145,5.3281,5.3281,5.3449,5.3785,5.4363,5.5154,5.6106,5.8057,5.9322,6.0337,6.181,6.2453,6.2693,6.282,6.2952,6.3023,6.2852,6.282,6.2808,6.2708,6.2771,6.2796,6.2695,6.2271,6.187,6.187,6.132,6.0659,6.0189,6.0006,5.9839,5.9354,5.9176,5.9139,5.9248,5.9266,5.9192,5.8951,5.8572,5.8231,5.7942,5.6993,5.6324,5.6171,5.51,5.4381,5.4381,5.368,5.2964,5.223,5.2032,5.13,4.9929,4.9864,4.9593,4.9018,4.9018,4.8855,4.8531,4.7233,4.7266,4.85,4.6876,4.5996,0.0,0.0,0.0,0.0,3.6184,0.0,0.0,0.0,3.2886,3.148,0.0,0.0,0.0,0.0,0.0,0.0,0.0,0.0,0.0,0.0,0.0,0.0,0.0,0.0,0.0,4.309,4.3459,4.5155,4.3728,4.3489,4.5214,4.5304,4.5304,4.5304,4.5304,4.5737,4.6686,4.765,4.8683,4.9844,5.0727,5.1256,5.1455,5.1455,5.1455,5.1455,5.1455,5.1826,5.2435,5.2435,5.3232,5.4482,5.4586,5.5405,5.6676,5.7471,5.8844,6.03,6.0512,6.0799,6.1061,6.1205,6.1186,6.1097,6.11,6.1089,6.0991,6.0578,6.075,6.0991,6.0565,6.0725,6.0935,6.0935,6.0858,6.0659,6.0189,5.9792,5.9337,5.8874,5.8439,5.8304,5.8733,5.8776,5.8392,5.7294,5.703,5.6548,5.5232,5.4943,5.46,5.3966,5.3727,5.3638,5.3638,5.2892,5.2126,5.1495,5.072,4.9928,4.9151,4.912,4.9086,4.9018,4.9018,4.8306,4.6876,4.668,4.668,4.681,4.5211,4.3701,0.0,0.0,0.0,0.0,0.0,0.0,3.2296,0.0,3.121,0.0,0.0,0.0,0.0,0.0,0.0,0.0,0.0,0.0,0.0,0.0,0.0,0.0,0.0,0.0,0.0,0.0,0.0,0.0,4.1985,4.1936,4.3617,4.3636,4.3778,4.4137,4.4167,4.4874,4.6413,4.6852,4.8042,4.9957,5.0349,5.0811,5.1185,5.1185,5.1185,5.1185,5.1185,5.1386,5.1657,5.1657,5.2275,5.3341,5.4135,5.5631,5.7435,5.8244,5.9353,6.0516,6.0642,6.0792,6.0903,6.0906,6.0654,6.0378,6.0378,6.0378,6.0311,5.9839,5.9839,5.9991,6.0089,6.0021,6.0074,6.0324,6.0175,5.987,5.9389,5.8783,5.8145,5.7672,5.7074,5.6654,5.6879,5.727,5.7257,5.6242,5.5756,5.5305,5.4676,5.3799,5.3155,5.283,5.2001,5.1479,5.1479,5.0806,5.0263,5.0005,4.9637,4.9286,4.8984,4.9018,4.8815,4.8376,4.7876,4.7067,4.5988,4.4526,4.3466,4.289,4.219,4.152,4.1675,0.0,0.0,0.0,0.0,0.0,0.0,0.0,0.0,0.0,0.0,0.0,0.0,0.0,0.0,0.0,0.0,0.0,0.0,0.0,0.0,0.0,0.0,0.0,0.0,0.0,0.0,0.0,0.0,3.9989,4.215,4.2024,4.2192,4.303,4.3305,4.4332,4.6173,4.6454,4.7669,4.9796,4.9796,5.0067,5.0608,5.0608,5.048,5.0253,5.0512,5.0549,5.0555,5.0816,5.1576,5.2739,5.4008,5.5806,5.7753,5.8755,5.9684,6.042,6.0793,6.078,6.0548,6.0346,5.988,5.9402,5.9276,5.9246,5.9155,5.8676,5.8641,5.8778,5.8976,5.8895,5.8812,5.9171,5.9014,5.8606,5.8124,5.7578,5.7046,5.6566,5.5978,5.5537,5.5317,5.5941,5.6153,5.5117,5.4578,5.3999,5.3432,5.2343,5.1505,5.1046,5.023,4.96,4.9359,4.9131,4.8892,4.8639,4.8353,4.8125,4.7957,4.7957,4.7623,4.6889,4.6254,4.544,4.4464,4.269,4.1031,3.9528,3.9528,3.938,0.0,0.0,0.0,3.8173,0.0,0.0,0.0,0.0,3.2228,0.0,0.0,0.0,0.0,0.0,0.0,3.0672,0.0,0.0,0.0,0.0,0.0,0.0,0.0,0.0,0.0,0.0,0.0,0.0,0.0,0.0,4.1418,4.0873,4.1055,4.2381,4.3302,4.4543,4.6173,4.7104,4.8064,4.9052,4.9052,4.9052,4.9086,4.9086,4.858,4.777,4.8675,4.8951,4.886,4.9782,5.1425,5.3442,5.4543,5.589,5.7373,5.8556,5.9332,5.993,6.0569,6.0254,5.9477,5.9087,5.8377,5.762,5.7223,5.7095,5.6995,5.6538,5.6719,5.6979,5.6556,5.6737,5.7078,5.7095,5.7095,5.6945,5.6482,5.6367,5.6211,5.5742,5.5611,5.5354,5.4583,5.5097,5.5103,5.3592,5.3351,5.2573,5.0425,5.0096,4.9482,4.7933,4.8513,4.8671,4.7737,4.8513,4.8608,4.7704,4.6765,4.6025,4.5353,4.5321,4.5,4.4327,4.4293,4.3504,4.1918,4.1817,4.0461,3.7881,3.7881,3.7319,0.0,0.0,4.7796,4.2049,0.0,0.0,0.0,0.0,0.0,0.0,0.0,0.0,0.0,0.0,3.2682,3.0786,3.0516,0.0,0.0,0.0,0.0,0.0,0.0,0.0,0.0,0.0,0.0,0.0,3.734,0.0,0.0,4.1303,4.1775,4.2615,4.3469,4.4473,4.5636,4.6487,4.7333,4.8277,4.8781,4.9018,4.9018,4.9018,4.8829,4.8545,4.8861,4.8964,4.8914,4.9232,5.0506,5.2354,5.3115,5.4236,5.5623,5.7512,5.835,5.8505,5.8356,5.787,5.7418,5.758,5.7229,5.6715,5.6572,5.6518,5.6463,5.5969,5.5949,5.6115,5.6254,5.6214,5.6154,5.6444,5.6293,5.6014,5.5866,5.5417,5.4843,5.4209,5.3634,5.3059,5.2329,5.2436,5.2581,5.2522,5.1699,5.0834,5.0096,4.9059,4.8189,4.7638,4.734,4.7036,4.6696,4.6936,4.6808,4.6083,4.5711,4.525,4.4579,4.4547,4.4194,4.3489,4.292,4.2094,4.1065,3.9769,3.8327,3.6721,3.6041,3.5561,5.2337,5.2022,0.0,4.5132,4.2763,0.0,3.4829,0.0,0.0,0.0,0.0,0.0,0.0,0.0,0.0,3.189,3.0897,0.0,0.0,2.7297,0.0,0.0,0.0,0.0,0.0,0.0,3.4541,3.6648,3.5907,0.0,0.0,0.0,4.131,4.2458,4.3588,4.4529,4.5399,4.621,4.6915,4.753,4.8003,4.8084,4.7773,4.7773,4.7718,4.7665,4.8017,4.831,4.8545,4.9135,5.0301,5.1843,5.2489,5.3336,5.4452,5.6574,5.7448,5.7531,5.7118,5.6613,5.6104,5.6264,5.5899,5.5359,5.4909,5.4806,5.468,5.4159,5.401,5.4067,5.4364,5.4223,5.409,5.4386,5.42,5.401,5.401,5.3611,5.3072,5.2592,5.2099,5.1593,5.1164,5.0876,5.085,5.1317,5.0292,4.9443,4.918,4.7931,4.6801,4.6077,4.6106,4.5939,4.5338,4.4948,4.4309,4.3273,4.291,4.242,4.1745,4.1715,4.1342,4.0668,4.0094,3.9582,3.9098,3.7832,3.671,3.5654,3.502,3.4406]}]]